<?xml version='1.0' encoding='UTF-8'?><gpx version="1.1" creator="JPX - https://github.com/jenetics/jpx" xmlns="http://www.topografix.com/GPX/1/1"><trk><trkseg><trkpt lat="40.6427292" lon="15.0323346"><ele>283.0</ele><time>2026-03-28T14:55:58.8Z</time></trkpt><trkpt lat="40.6427703" lon="15.0324033"><ele>283.0</ele><time>2026-03-28T14:55:59.8Z</time></trkpt><trkpt lat="40.6428077" lon="15.0324794"><ele>283.0</ele><time>2026-03-28T14:56:00.799Z</time></trkpt><trkpt lat="40.6428419" lon="15.0325614"><ele>283.0</ele><time>2026-03-28T14:56:01.8Z</time></trkpt><trkpt lat="40.6429006" lon="15.0327436"><ele>283.0</ele><time>2026-03-28T14:56:03.8Z</time></trkpt><trkpt lat="40.6429381" lon="15.0328285"><ele>283.0</ele><time>2026-03-28T14:56:04.8Z</time></trkpt><trkpt lat="40.6429861" lon="15.0329076"><ele>285.3333333333333</ele><time>2026-03-28T14:56:05.799Z</time></trkpt><trkpt lat="40.6430304" lon="15.032972"><ele>287.66666666666663</ele><time>2026-03-28T14:56:06.8Z</time></trkpt><trkpt lat="40.6430798" lon="15.0330272"><ele>290.0</ele><time>2026-03-28T14:56:07.799Z</time></trkpt><trkpt lat="40.6431346" lon="15.0330771"><ele>292.3333333333333</ele><time>2026-03-28T14:56:08.801Z</time></trkpt><trkpt lat="40.6431892" lon="15.0331315"><ele>294.6666666666667</ele><time>2026-03-28T14:56:09.8Z</time></trkpt><trkpt lat="40.6432726" lon="15.0332212"><ele>297.0</ele><time>2026-03-28T14:56:11.801Z</time></trkpt><trkpt lat="40.64331" lon="15.033335"><ele>299.0</ele><time>2026-03-28T14:56:13.801Z</time></trkpt><trkpt lat="40.6432683" lon="15.0334433"><ele>301.0</ele><time>2026-03-28T14:56:16.799Z</time></trkpt><trkpt lat="40.6432133" lon="15.0334983"><ele>303.0</ele><time>2026-03-28T14:56:18.8Z</time></trkpt><trkpt lat="40.6431083" lon="15.03358"><ele>305.0</ele><time>2026-03-28T14:56:20.8Z</time></trkpt><trkpt lat="40.6430533" lon="15.0336217"><ele>307.0</ele><time>2026-03-28T14:56:21.801Z</time></trkpt><trkpt lat="40.6429583" lon="15.033685"><ele>307.0</ele><time>2026-03-28T14:56:23.801Z</time></trkpt><trkpt lat="40.6428933" lon="15.03376"><ele>307.0</ele><time>2026-03-28T14:56:25.801Z</time></trkpt><trkpt lat="40.64281" lon="15.0338367"><ele>307.0</ele><time>2026-03-28T14:56:27.799Z</time></trkpt><trkpt lat="40.64272" lon="15.03392"><ele>307.0</ele><time>2026-03-28T14:56:29.8Z</time></trkpt><trkpt lat="40.6426317" lon="15.033935"><ele>307.0</ele><time>2026-03-28T14:56:31.799Z</time></trkpt><trkpt lat="40.64256" lon="15.0338617"><ele>306.8</ele><time>2026-03-28T14:56:33.799Z</time></trkpt><trkpt lat="40.6424667" lon="15.0337717"><ele>306.6</ele><time>2026-03-28T14:56:35.799Z</time></trkpt><trkpt lat="40.6424117" lon="15.0337217"><ele>306.40000000000003</ele><time>2026-03-28T14:56:36.799Z</time></trkpt><trkpt lat="40.64232" lon="15.0336233"><ele>306.2</ele><time>2026-03-28T14:56:38.799Z</time></trkpt><trkpt lat="40.6422383" lon="15.033535"><ele>306.0</ele><time>2026-03-28T14:56:40.8Z</time></trkpt><trkpt lat="40.642135" lon="15.0334767"><ele>306.0</ele><time>2026-03-28T14:56:42.799Z</time></trkpt><trkpt lat="40.6420267" lon="15.0334283"><ele>306.0</ele><time>2026-03-28T14:56:44.802Z</time></trkpt><trkpt lat="40.6419617" lon="15.0334017"><ele>306.0</ele><time>2026-03-28T14:56:46.799Z</time></trkpt><trkpt lat="40.641865" lon="15.033395"><ele>306.0</ele><time>2026-03-28T15:02:40.799Z</time></trkpt><trkpt lat="40.6417633" lon="15.0334317"><ele>306.0</ele><time>2026-03-28T15:02:42.799Z</time></trkpt><trkpt lat="40.6417017" lon="15.033475"><ele>306.0</ele><time>2026-03-28T15:02:43.8Z</time></trkpt><trkpt lat="40.64164" lon="15.0335233"><ele>306.0</ele><time>2026-03-28T15:02:44.802Z</time></trkpt><trkpt lat="40.6415533" lon="15.0336433"><ele>306.0</ele><time>2026-03-28T15:02:46.799Z</time></trkpt><trkpt lat="40.6414683" lon="15.0337717"><ele>306.0</ele><time>2026-03-28T15:02:48.799Z</time></trkpt><trkpt lat="40.6414233" lon="15.0338567"><ele>306.0</ele><time>2026-03-28T15:02:49.799Z</time></trkpt><trkpt lat="40.6413717" lon="15.03398"><ele>306.0</ele><time>2026-03-28T15:02:50.799Z</time></trkpt><trkpt lat="40.641315" lon="15.0340767"><ele>306.0</ele><time>2026-03-28T15:02:51.799Z</time></trkpt><trkpt lat="40.64126" lon="15.03419"><ele>306.0</ele><time>2026-03-28T15:02:52.8Z</time></trkpt><trkpt lat="40.641215" lon="15.034305"><ele>306.0</ele><time>2026-03-28T15:02:53.799Z</time></trkpt><trkpt lat="40.6411767" lon="15.034425"><ele>306.0</ele><time>2026-03-28T15:02:54.799Z</time></trkpt><trkpt lat="40.64115" lon="15.0345433"><ele>305.8</ele><time>2026-03-28T15:02:55.799Z</time></trkpt><trkpt lat="40.6411167" lon="15.0346533"><ele>305.6</ele><time>2026-03-28T15:02:56.799Z</time></trkpt><trkpt lat="40.64108" lon="15.0347633"><ele>305.4</ele><time>2026-03-28T15:02:57.799Z</time></trkpt><trkpt lat="40.6410433" lon="15.0348683"><ele>305.2</ele><time>2026-03-28T15:02:58.799Z</time></trkpt><trkpt lat="40.6410033" lon="15.0349817"><ele>305.0</ele><time>2026-03-28T15:02:59.8Z</time></trkpt><trkpt lat="40.6409667" lon="15.0351"><ele>305.0</ele><time>2026-03-28T15:03:00.799Z</time></trkpt><trkpt lat="40.640935" lon="15.0352117"><ele>305.0</ele><time>2026-03-28T15:03:01.799Z</time></trkpt><trkpt lat="40.6409033" lon="15.0353133"><ele>305.0</ele><time>2026-03-28T15:03:02.8Z</time></trkpt><trkpt lat="40.6408717" lon="15.0354133"><ele>305.0</ele><time>2026-03-28T15:03:03.801Z</time></trkpt><trkpt lat="40.640845" lon="15.0355067"><ele>305.0</ele><time>2026-03-28T15:03:04.8Z</time></trkpt><trkpt lat="40.6408083" lon="15.0356017"><ele>305.0</ele><time>2026-03-28T15:03:05.801Z</time></trkpt><trkpt lat="40.6407667" lon="15.035695"><ele>305.0</ele><time>2026-03-28T15:03:06.799Z</time></trkpt><trkpt lat="40.6407167" lon="15.03579"><ele>305.0</ele><time>2026-03-28T15:03:07.8Z</time></trkpt><trkpt lat="40.64067" lon="15.0358917"><ele>305.0</ele><time>2026-03-28T15:03:08.8Z</time></trkpt><trkpt lat="40.6406083" lon="15.0359933"><ele>305.0</ele><time>2026-03-28T15:03:09.799Z</time></trkpt><trkpt lat="40.6405467" lon="15.0360867"><ele>305.0</ele><time>2026-03-28T15:03:10.8Z</time></trkpt><trkpt lat="40.6404783" lon="15.0361617"><ele>303.33333333333337</ele><time>2026-03-28T15:03:11.799Z</time></trkpt><trkpt lat="40.6404217" lon="15.0362417"><ele>301.6666666666667</ele><time>2026-03-28T15:03:12.799Z</time></trkpt><trkpt lat="40.64036" lon="15.036315"><ele>300.0</ele><time>2026-03-28T15:03:13.799Z</time></trkpt><trkpt lat="40.6403017" lon="15.0363833"><ele>298.3333333333333</ele><time>2026-03-28T15:03:14.799Z</time></trkpt><trkpt lat="40.6402367" lon="15.0364533"><ele>296.66666666666663</ele><time>2026-03-28T15:03:15.799Z</time></trkpt><trkpt lat="40.6401717" lon="15.036515"><ele>295.0</ele><time>2026-03-28T15:03:16.8Z</time></trkpt><trkpt lat="40.64011" lon="15.0365967"><ele>298.4</ele><time>2026-03-28T15:03:17.8Z</time></trkpt><trkpt lat="40.6400617" lon="15.0366717"><ele>301.8</ele><time>2026-03-28T15:03:18.8Z</time></trkpt><trkpt lat="40.6400067" lon="15.0367583"><ele>305.2</ele><time>2026-03-28T15:03:19.8Z</time></trkpt><trkpt lat="40.6399517" lon="15.036845"><ele>308.6</ele><time>2026-03-28T15:03:20.799Z</time></trkpt><trkpt lat="40.63988" lon="15.03693"><ele>312.0</ele><time>2026-03-28T15:03:22.799Z</time></trkpt><trkpt lat="40.6397733" lon="15.0370417"><ele>312.0</ele><time>2026-03-28T15:03:24.799Z</time></trkpt><trkpt lat="40.6396933" lon="15.0371517"><ele>312.0</ele><time>2026-03-28T15:03:25.799Z</time></trkpt><trkpt lat="40.6396217" lon="15.0372367"><ele>312.0</ele><time>2026-03-28T15:03:26.801Z</time></trkpt><trkpt lat="40.6395617" lon="15.0373533"><ele>312.0</ele><time>2026-03-28T15:03:27.799Z</time></trkpt><trkpt lat="40.6394867" lon="15.037425"><ele>312.0</ele><time>2026-03-28T15:03:28.799Z</time></trkpt><trkpt lat="40.6394283" lon="15.0374733"><ele>309.8333333333333</ele><time>2026-03-28T15:03:29.8Z</time></trkpt><trkpt lat="40.63932" lon="15.0375"><ele>307.6666666666667</ele><time>2026-03-28T15:03:31.8Z</time></trkpt><trkpt lat="40.6392717" lon="15.03759"><ele>305.5</ele><time>2026-03-28T15:03:33.799Z</time></trkpt><trkpt lat="40.6392633" lon="15.037675"><ele>303.33333333333337</ele><time>2026-03-28T15:03:34.799Z</time></trkpt><trkpt lat="40.63926" lon="15.0377583"><ele>301.1666666666667</ele><time>2026-03-28T15:03:35.8Z</time></trkpt><trkpt lat="40.6392633" lon="15.0378467"><ele>299.0</ele><time>2026-03-28T15:03:36.799Z</time></trkpt><trkpt lat="40.6392783" lon="15.0379433"><ele>299.0</ele><time>2026-03-28T15:03:37.8Z</time></trkpt><trkpt lat="40.6392917" lon="15.0380383"><ele>299.0</ele><time>2026-03-28T15:03:38.799Z</time></trkpt><trkpt lat="40.6393033" lon="15.03814"><ele>299.0</ele><time>2026-03-28T15:03:39.799Z</time></trkpt><trkpt lat="40.6392967" lon="15.0382517"><ele>299.0</ele><time>2026-03-28T15:03:40.8Z</time></trkpt><trkpt lat="40.6392917" lon="15.0383383"><ele>299.0</ele><time>2026-03-28T15:03:41.801Z</time></trkpt><trkpt lat="40.6392867" lon="15.0384933"><ele>299.0</ele><time>2026-03-28T15:03:43.8Z</time></trkpt><trkpt lat="40.63925" lon="15.0386167"><ele>301.0</ele><time>2026-03-28T15:03:45.798Z</time></trkpt><trkpt lat="40.63918" lon="15.038725"><ele>303.0</ele><time>2026-03-28T15:03:47.799Z</time></trkpt><trkpt lat="40.639095" lon="15.0388417"><ele>305.0</ele><time>2026-03-28T15:03:49.799Z</time></trkpt><trkpt lat="40.63905" lon="15.0389117"><ele>307.0</ele><time>2026-03-28T15:03:50.799Z</time></trkpt><trkpt lat="40.639005" lon="15.038995"><ele>309.0</ele><time>2026-03-28T15:03:51.798Z</time></trkpt><trkpt lat="40.6389383" lon="15.03911"><ele>309.0</ele><time>2026-03-28T15:03:53.803Z</time></trkpt><trkpt lat="40.63886" lon="15.03914"><ele>309.0</ele><time>2026-03-28T15:03:55.799Z</time></trkpt><trkpt lat="40.6387633" lon="15.0390933"><ele>309.0</ele><time>2026-03-28T15:03:57.798Z</time></trkpt><trkpt lat="40.6387133" lon="15.0390367"><ele>309.0</ele><time>2026-03-28T15:03:58.799Z</time></trkpt><trkpt lat="40.6385917" lon="15.0389667"><ele>309.0</ele><time>2026-03-28T15:04:00.801Z</time></trkpt><trkpt lat="40.6384667" lon="15.0389283"><ele>308.3333333333333</ele><time>2026-03-28T15:04:02.799Z</time></trkpt><trkpt lat="40.6383933" lon="15.0389633"><ele>307.6666666666667</ele><time>2026-03-28T15:04:03.802Z</time></trkpt><trkpt lat="40.6383233" lon="15.0390133"><ele>307.0</ele><time>2026-03-28T15:04:04.799Z</time></trkpt><trkpt lat="40.6382483" lon="15.039095"><ele>306.33333333333337</ele><time>2026-03-28T15:04:05.799Z</time></trkpt><trkpt lat="40.6381867" lon="15.0391717"><ele>305.6666666666667</ele><time>2026-03-28T15:04:06.8Z</time></trkpt><trkpt lat="40.6380983" lon="15.039225"><ele>305.0</ele><time>2026-03-28T15:04:08.8Z</time></trkpt><trkpt lat="40.638025" lon="15.0392017"><ele>305.0</ele><time>2026-03-28T15:04:10.798Z</time></trkpt><trkpt lat="40.6379433" lon="15.039145"><ele>305.0</ele><time>2026-03-28T15:04:12.801Z</time></trkpt><trkpt lat="40.6378267" lon="15.039095"><ele>305.0</ele><time>2026-03-28T15:04:14.801Z</time></trkpt><trkpt lat="40.6377533" lon="15.0391033"><ele>305.0</ele><time>2026-03-28T15:04:15.802Z</time></trkpt><trkpt lat="40.6376767" lon="15.0391117"><ele>305.0</ele><time>2026-03-28T15:04:16.799Z</time></trkpt><trkpt lat="40.6376083" lon="15.0391167"><ele>305.0</ele><time>2026-03-28T15:04:17.801Z</time></trkpt><trkpt lat="40.6375417" lon="15.039125"><ele>305.7142857142857</ele><time>2026-03-28T15:04:18.801Z</time></trkpt><trkpt lat="40.6374717" lon="15.039145"><ele>306.4285714285714</ele><time>2026-03-28T15:04:19.801Z</time></trkpt><trkpt lat="40.6373967" lon="15.0391683"><ele>307.1428571428571</ele><time>2026-03-28T15:04:20.8Z</time></trkpt><trkpt lat="40.6373267" lon="15.0391867"><ele>307.8571428571429</ele><time>2026-03-28T15:04:21.799Z</time></trkpt><trkpt lat="40.6372633" lon="15.0392033"><ele>308.57142857142856</ele><time>2026-03-28T15:04:22.801Z</time></trkpt><trkpt lat="40.6371983" lon="15.0392217"><ele>309.2857142857143</ele><time>2026-03-28T15:04:23.8Z</time></trkpt><trkpt lat="40.637125" lon="15.039255"><ele>310.0</ele><time>2026-03-28T15:04:24.801Z</time></trkpt><trkpt lat="40.6370567" lon="15.0392733"><ele>310.0</ele><time>2026-03-28T15:04:25.799Z</time></trkpt><trkpt lat="40.6369933" lon="15.0392867"><ele>310.0</ele><time>2026-03-28T15:04:26.799Z</time></trkpt><trkpt lat="40.6369317" lon="15.0393067"><ele>310.0</ele><time>2026-03-28T15:04:27.801Z</time></trkpt><trkpt lat="40.636825" lon="15.0393367"><ele>310.0</ele><time>2026-03-28T15:04:29.8Z</time></trkpt><trkpt lat="40.6367633" lon="15.039365"><ele>310.0</ele><time>2026-03-28T15:04:31.802Z</time></trkpt><trkpt lat="40.6367017" lon="15.0393833"><ele>310.0</ele><time>2026-03-28T15:04:35.8Z</time></trkpt><trkpt lat="40.63662" lon="15.03931"><ele>309.6</ele><time>2026-03-28T15:04:49.801Z</time></trkpt><trkpt lat="40.6365967" lon="15.0391783"><ele>309.2</ele><time>2026-03-28T15:04:51.799Z</time></trkpt><trkpt lat="40.6365917" lon="15.0390217"><ele>308.8</ele><time>2026-03-28T15:04:53.801Z</time></trkpt><trkpt lat="40.6365917" lon="15.0389383"><ele>308.4</ele><time>2026-03-28T15:04:56.799Z</time></trkpt><trkpt lat="40.6365933" lon="15.0388217"><ele>308.0</ele><time>2026-03-28T15:04:59.801Z</time></trkpt><trkpt lat="40.6366233" lon="15.0386917"><ele>307.0</ele><time>2026-03-28T15:05:01.8Z</time></trkpt><trkpt lat="40.6366383" lon="15.0386083"><ele>306.0</ele><time>2026-03-28T15:05:02.8Z</time></trkpt><trkpt lat="40.6366367" lon="15.0385167"><ele>305.0</ele><time>2026-03-28T15:05:03.801Z</time></trkpt><trkpt lat="40.6366367" lon="15.03842"><ele>304.0</ele><time>2026-03-28T15:05:04.8Z</time></trkpt><trkpt lat="40.63663" lon="15.038315"><ele>303.0</ele><time>2026-03-28T15:05:05.801Z</time></trkpt><trkpt lat="40.63663" lon="15.0382033"><ele>302.0</ele><time>2026-03-28T15:05:06.801Z</time></trkpt><trkpt lat="40.6366333" lon="15.0380867"><ele>301.4</ele><time>2026-03-28T15:05:07.801Z</time></trkpt><trkpt lat="40.63665" lon="15.0379667"><ele>300.79999999999995</ele><time>2026-03-28T15:05:08.8Z</time></trkpt><trkpt lat="40.6366417" lon="15.0378317"><ele>300.2</ele><time>2026-03-28T15:05:09.799Z</time></trkpt><trkpt lat="40.6366417" lon="15.0376883"><ele>299.59999999999997</ele><time>2026-03-28T15:05:10.799Z</time></trkpt><trkpt lat="40.63664" lon="15.0375517"><ele>299.0</ele><time>2026-03-28T15:05:11.803Z</time></trkpt><trkpt lat="40.6366367" lon="15.0374283"><ele>298.0</ele><time>2026-03-28T15:05:12.801Z</time></trkpt><trkpt lat="40.6366417" lon="15.037305"><ele>297.0</ele><time>2026-03-28T15:05:13.802Z</time></trkpt><trkpt lat="40.6366483" lon="15.03718"><ele>296.0</ele><time>2026-03-28T15:05:14.8Z</time></trkpt><trkpt lat="40.6366567" lon="15.0370433"><ele>295.0</ele><time>2026-03-28T15:05:15.803Z</time></trkpt><trkpt lat="40.6366717" lon="15.0369083"><ele>294.0</ele><time>2026-03-28T15:05:16.802Z</time></trkpt><trkpt lat="40.6366917" lon="15.0367767"><ele>294.0</ele><time>2026-03-28T15:05:17.8Z</time></trkpt><trkpt lat="40.6367133" lon="15.0366483"><ele>294.0</ele><time>2026-03-28T15:05:18.8Z</time></trkpt><trkpt lat="40.6367333" lon="15.03652"><ele>294.0</ele><time>2026-03-28T15:05:19.8Z</time></trkpt><trkpt lat="40.63674" lon="15.036385"><ele>294.0</ele><time>2026-03-28T15:05:20.801Z</time></trkpt><trkpt lat="40.6367383" lon="15.0362417"><ele>294.0</ele><time>2026-03-28T15:05:21.8Z</time></trkpt><trkpt lat="40.6367467" lon="15.0361067"><ele>293.8333333333333</ele><time>2026-03-28T15:05:22.801Z</time></trkpt><trkpt lat="40.6367367" lon="15.035975"><ele>293.6666666666667</ele><time>2026-03-28T15:05:23.802Z</time></trkpt><trkpt lat="40.63673" lon="15.035865"><ele>293.5</ele><time>2026-03-28T15:05:24.8Z</time></trkpt><trkpt lat="40.636735" lon="15.03576"><ele>293.33333333333337</ele><time>2026-03-28T15:05:25.8Z</time></trkpt><trkpt lat="40.63673" lon="15.0356483"><ele>293.1666666666667</ele><time>2026-03-28T15:05:26.802Z</time></trkpt><trkpt lat="40.6367317" lon="15.0355483"><ele>293.0</ele><time>2026-03-28T15:05:27.799Z</time></trkpt><trkpt lat="40.6367367" lon="15.0354417"><ele>292.6</ele><time>2026-03-28T15:05:28.8Z</time></trkpt><trkpt lat="40.6367483" lon="15.03532"><ele>292.20000000000005</ele><time>2026-03-28T15:05:29.801Z</time></trkpt><trkpt lat="40.63676" lon="15.0351733"><ele>291.8</ele><time>2026-03-28T15:05:30.8Z</time></trkpt><trkpt lat="40.6367667" lon="15.0350317"><ele>291.40000000000003</ele><time>2026-03-28T15:05:31.799Z</time></trkpt><trkpt lat="40.63678" lon="15.0349033"><ele>291.0</ele><time>2026-03-28T15:05:32.8Z</time></trkpt><trkpt lat="40.6367933" lon="15.0347733"><ele>290.5</ele><time>2026-03-28T15:05:33.801Z</time></trkpt><trkpt lat="40.6368067" lon="15.0346567"><ele>290.0</ele><time>2026-03-28T15:05:34.801Z</time></trkpt><trkpt lat="40.636815" lon="15.0345467"><ele>289.5</ele><time>2026-03-28T15:05:35.801Z</time></trkpt><trkpt lat="40.636825" lon="15.034445"><ele>289.0</ele><time>2026-03-28T15:05:36.801Z</time></trkpt><trkpt lat="40.6368333" lon="15.0343567"><ele>288.5</ele><time>2026-03-28T15:05:37.799Z</time></trkpt><trkpt lat="40.6368467" lon="15.03426"><ele>288.0</ele><time>2026-03-28T15:05:38.8Z</time></trkpt><trkpt lat="40.6368683" lon="15.034175"><ele>287.2</ele><time>2026-03-28T15:05:39.8Z</time></trkpt><trkpt lat="40.6368933" lon="15.0340967"><ele>286.4</ele><time>2026-03-28T15:05:40.802Z</time></trkpt><trkpt lat="40.63696" lon="15.0339767"><ele>285.59999999999997</ele><time>2026-03-28T15:05:42.801Z</time></trkpt><trkpt lat="40.637015" lon="15.03385"><ele>284.8</ele><time>2026-03-28T15:05:44.802Z</time></trkpt><trkpt lat="40.6370517" lon="15.0337267"><ele>284.0</ele><time>2026-03-28T15:05:46.801Z</time></trkpt><trkpt lat="40.63709" lon="15.0336067"><ele>284.0</ele><time>2026-03-28T15:05:48.799Z</time></trkpt><trkpt lat="40.63712" lon="15.0335017"><ele>284.0</ele><time>2026-03-28T15:05:50.8Z</time></trkpt><trkpt lat="40.6371517" lon="15.033395"><ele>284.0</ele><time>2026-03-28T15:05:52.8Z</time></trkpt><trkpt lat="40.637175" lon="15.033275"><ele>284.0</ele><time>2026-03-28T15:05:54.801Z</time></trkpt><trkpt lat="40.6371933" lon="15.0331867"><ele>284.0</ele><time>2026-03-28T15:05:56.801Z</time></trkpt><trkpt lat="40.6372467" lon="15.0330783"><ele>284.0</ele><time>2026-03-28T15:05:59.8Z</time></trkpt><trkpt lat="40.63731" lon="15.0329833"><ele>283.0</ele><time>2026-03-28T15:06:01.8Z</time></trkpt><trkpt lat="40.6373667" lon="15.0328617"><ele>282.0</ele><time>2026-03-28T15:06:03.802Z</time></trkpt><trkpt lat="40.6374483" lon="15.032765"><ele>281.0</ele><time>2026-03-28T15:06:05.801Z</time></trkpt><trkpt lat="40.6375517" lon="15.0326767"><ele>280.0</ele><time>2026-03-28T15:06:07.8Z</time></trkpt><trkpt lat="40.6376117" lon="15.0326317"><ele>279.0</ele><time>2026-03-28T15:06:08.8Z</time></trkpt><trkpt lat="40.6376683" lon="15.0325883"><ele>279.0</ele><time>2026-03-28T15:06:09.8Z</time></trkpt><trkpt lat="40.6377183" lon="15.0325317"><ele>279.0</ele><time>2026-03-28T15:06:10.8Z</time></trkpt><trkpt lat="40.6377617" lon="15.0324667"><ele>279.0</ele><time>2026-03-28T15:06:11.8Z</time></trkpt><trkpt lat="40.6377933" lon="15.032375"><ele>279.0</ele><time>2026-03-28T15:06:12.799Z</time></trkpt><trkpt lat="40.63782" lon="15.0322817"><ele>279.0</ele><time>2026-03-28T15:06:13.8Z</time></trkpt><trkpt lat="40.637825" lon="15.0321983"><ele>279.0</ele><time>2026-03-28T15:06:14.8Z</time></trkpt><trkpt lat="40.6378483" lon="15.032055"><ele>279.0</ele><time>2026-03-28T15:06:16.8Z</time></trkpt><trkpt lat="40.63785" lon="15.0319667"><ele>279.0</ele><time>2026-03-28T15:06:18.801Z</time></trkpt><trkpt lat="40.6378117" lon="15.0319"><ele>279.0</ele><time>2026-03-28T15:06:22.8Z</time></trkpt><trkpt lat="40.637745" lon="15.0319317"><ele>279.0</ele><time>2026-03-28T15:06:24.8Z</time></trkpt><trkpt lat="40.6376633" lon="15.03201"><ele>279.0</ele><time>2026-03-28T15:06:26.801Z</time></trkpt><trkpt lat="40.6376067" lon="15.0320867"><ele>279.0</ele><time>2026-03-28T15:06:28.8Z</time></trkpt><trkpt lat="40.6374917" lon="15.0321667"><ele>278.0</ele><time>2026-03-28T15:06:30.802Z</time></trkpt><trkpt lat="40.637425" lon="15.0322217"><ele>277.0</ele><time>2026-03-28T15:06:31.8Z</time></trkpt><trkpt lat="40.6373667" lon="15.0322717"><ele>276.0</ele><time>2026-03-28T15:06:32.8Z</time></trkpt><trkpt lat="40.637305" lon="15.0323033"><ele>275.0</ele><time>2026-03-28T15:06:33.8Z</time></trkpt><trkpt lat="40.6372033" lon="15.0322967"><ele>274.0</ele><time>2026-03-28T15:06:35.8Z</time></trkpt><trkpt lat="40.63712" lon="15.0322267"><ele>273.0</ele><time>2026-03-28T15:06:38.801Z</time></trkpt><trkpt lat="40.6370383" lon="15.0321517"><ele>273.0</ele><time>2026-03-28T15:06:40.8Z</time></trkpt><trkpt lat="40.6369967" lon="15.0320817"><ele>273.0</ele><time>2026-03-28T15:06:41.8Z</time></trkpt><trkpt lat="40.636965" lon="15.0320067"><ele>273.0</ele><time>2026-03-28T15:06:42.8Z</time></trkpt><trkpt lat="40.6369133" lon="15.03187"><ele>273.0</ele><time>2026-03-28T15:06:44.801Z</time></trkpt><trkpt lat="40.636885" lon="15.0317883"><ele>273.0</ele><time>2026-03-28T15:06:45.8Z</time></trkpt><trkpt lat="40.6368983" lon="15.0316033"><ele>272.4</ele><time>2026-03-28T15:06:47.8Z</time></trkpt><trkpt lat="40.636915" lon="15.0314917"><ele>271.8</ele><time>2026-03-28T15:06:48.801Z</time></trkpt><trkpt lat="40.63695" lon="15.0313883"><ele>271.2</ele><time>2026-03-28T15:06:49.801Z</time></trkpt><trkpt lat="40.6370167" lon="15.0312833"><ele>270.6</ele><time>2026-03-28T15:06:50.8Z</time></trkpt><trkpt lat="40.6370483" lon="15.0311567"><ele>270.0</ele><time>2026-03-28T15:06:51.8Z</time></trkpt><trkpt lat="40.637075" lon="15.0309733"><ele>270.25</ele><time>2026-03-28T15:06:52.8Z</time></trkpt><trkpt lat="40.63708" lon="15.0307567"><ele>270.5</ele><time>2026-03-28T15:06:53.8Z</time></trkpt><trkpt lat="40.6370833" lon="15.0306183"><ele>270.75</ele><time>2026-03-28T15:06:54.801Z</time></trkpt><trkpt lat="40.637085" lon="15.0304467"><ele>271.0</ele><time>2026-03-28T15:06:55.8Z</time></trkpt><trkpt lat="40.637085" lon="15.0302917"><ele>271.0</ele><time>2026-03-28T15:06:56.802Z</time></trkpt><trkpt lat="40.6370883" lon="15.03014"><ele>271.0</ele><time>2026-03-28T15:06:57.8Z</time></trkpt><trkpt lat="40.6370967" lon="15.0300067"><ele>271.0</ele><time>2026-03-28T15:06:58.8Z</time></trkpt><trkpt lat="40.6370783" lon="15.0298983"><ele>271.0</ele><time>2026-03-28T15:06:59.8Z</time></trkpt><trkpt lat="40.6370067" lon="15.0297567"><ele>271.0</ele><time>2026-03-28T15:07:00.801Z</time></trkpt><trkpt lat="40.636895" lon="15.02958"><ele>275.0</ele><time>2026-03-28T15:07:01.8Z</time></trkpt><trkpt lat="40.6367883" lon="15.0294017"><ele>279.0</ele><time>2026-03-28T15:07:02.799Z</time></trkpt><trkpt lat="40.6367067" lon="15.02925"><ele>283.0</ele><time>2026-03-28T15:07:03.799Z</time></trkpt><trkpt lat="40.6366283" lon="15.0291"><ele>283.0</ele><time>2026-03-28T15:07:04.8Z</time></trkpt><trkpt lat="40.636565" lon="15.028945"><ele>283.0</ele><time>2026-03-28T15:07:05.8Z</time></trkpt><trkpt lat="40.6364967" lon="15.0287933"><ele>283.0</ele><time>2026-03-28T15:07:06.801Z</time></trkpt><trkpt lat="40.6364317" lon="15.0286667"><ele>283.0</ele><time>2026-03-28T15:07:07.799Z</time></trkpt><trkpt lat="40.6363817" lon="15.02855"><ele>283.0</ele><time>2026-03-28T15:07:08.801Z</time></trkpt><trkpt lat="40.636335" lon="15.0284317"><ele>283.0</ele><time>2026-03-28T15:07:09.8Z</time></trkpt><trkpt lat="40.636285" lon="15.02832"><ele>283.0</ele><time>2026-03-28T15:07:10.8Z</time></trkpt><trkpt lat="40.6362267" lon="15.0282183"><ele>283.0</ele><time>2026-03-28T15:07:11.8Z</time></trkpt><trkpt lat="40.63615" lon="15.028135"><ele>283.0</ele><time>2026-03-28T15:07:12.8Z</time></trkpt><trkpt lat="40.63605" lon="15.0280683"><ele>285.0</ele><time>2026-03-28T15:07:13.801Z</time></trkpt><trkpt lat="40.63594" lon="15.028015"><ele>287.0</ele><time>2026-03-28T15:07:14.8Z</time></trkpt><trkpt lat="40.6358333" lon="15.0279717"><ele>289.0</ele><time>2026-03-28T15:07:15.8Z</time></trkpt><trkpt lat="40.63576" lon="15.0279483"><ele>291.0</ele><time>2026-03-28T15:07:16.8Z</time></trkpt><trkpt lat="40.63568" lon="15.0279333"><ele>293.0</ele><time>2026-03-28T15:07:17.801Z</time></trkpt><trkpt lat="40.6356117" lon="15.027935"><ele>293.0</ele><time>2026-03-28T15:07:18.8Z</time></trkpt><trkpt lat="40.635545" lon="15.0279567"><ele>293.0</ele><time>2026-03-28T15:07:19.8Z</time></trkpt><trkpt lat="40.6354817" lon="15.0280117"><ele>293.0</ele><time>2026-03-28T15:07:20.801Z</time></trkpt><trkpt lat="40.63542" lon="15.0280617"><ele>293.0</ele><time>2026-03-28T15:07:21.8Z</time></trkpt><trkpt lat="40.6354333" lon="15.02825"><ele>293.0</ele><time>2026-03-28T15:07:22.8Z</time></trkpt><trkpt lat="40.635425" lon="15.0284517"><ele>294.0</ele><time>2026-03-28T15:07:23.8Z</time></trkpt><trkpt lat="40.6354433" lon="15.0286517"><ele>295.0</ele><time>2026-03-28T15:07:24.801Z</time></trkpt><trkpt lat="40.6354417" lon="15.028855"><ele>296.0</ele><time>2026-03-28T15:07:25.802Z</time></trkpt><trkpt lat="40.6354483" lon="15.029055"><ele>297.6666666666667</ele><time>2026-03-28T15:07:26.8Z</time></trkpt><trkpt lat="40.6354533" lon="15.02927"><ele>299.3333333333333</ele><time>2026-03-28T15:07:27.801Z</time></trkpt><trkpt lat="40.635455" lon="15.029485"><ele>301.0</ele><time>2026-03-28T15:07:28.8Z</time></trkpt><trkpt lat="40.635455" lon="15.029695"><ele>301.0</ele><time>2026-03-28T15:07:29.8Z</time></trkpt><trkpt lat="40.63547" lon="15.0298917"><ele>301.0</ele><time>2026-03-28T15:07:30.8Z</time></trkpt><trkpt lat="40.63548" lon="15.0300433"><ele>301.0</ele><time>2026-03-28T15:07:31.8Z</time></trkpt><trkpt lat="40.635455" lon="15.030225"><ele>301.0</ele><time>2026-03-28T15:07:32.801Z</time></trkpt><trkpt lat="40.6354567" lon="15.0303833"><ele>302.25</ele><time>2026-03-28T15:07:33.8Z</time></trkpt><trkpt lat="40.63544" lon="15.03054"><ele>303.5</ele><time>2026-03-28T15:07:34.8Z</time></trkpt><trkpt lat="40.635435" lon="15.03069"><ele>304.75</ele><time>2026-03-28T15:07:35.804Z</time></trkpt><trkpt lat="40.635435" lon="15.03086"><ele>306.0</ele><time>2026-03-28T15:07:36.799Z</time></trkpt><trkpt lat="40.6354183" lon="15.031045"><ele>307.6</ele><time>2026-03-28T15:07:37.803Z</time></trkpt><trkpt lat="40.6354" lon="15.0312083"><ele>309.20000000000005</ele><time>2026-03-28T15:07:38.8Z</time></trkpt><trkpt lat="40.6353683" lon="15.0313583"><ele>310.79999999999995</ele><time>2026-03-28T15:07:39.801Z</time></trkpt><trkpt lat="40.6353317" lon="15.0314833"><ele>312.4</ele><time>2026-03-28T15:07:40.8Z</time></trkpt><trkpt lat="40.63531" lon="15.0315883"><ele>314.0</ele><time>2026-03-28T15:07:41.802Z</time></trkpt><trkpt lat="40.63528" lon="15.03168"><ele>317.0</ele><time>2026-03-28T15:07:42.801Z</time></trkpt><trkpt lat="40.6352433" lon="15.0317633"><ele>320.0</ele><time>2026-03-28T15:07:43.8Z</time></trkpt><trkpt lat="40.6351917" lon="15.0318417"><ele>323.0</ele><time>2026-03-28T15:07:44.801Z</time></trkpt><trkpt lat="40.6351067" lon="15.0318283"><ele>326.0</ele><time>2026-03-28T15:07:45.799Z</time></trkpt><trkpt lat="40.63505" lon="15.0317883"><ele>329.0</ele><time>2026-03-28T15:07:46.799Z</time></trkpt><trkpt lat="40.6349867" lon="15.0317217"><ele>332.0</ele><time>2026-03-28T15:07:47.801Z</time></trkpt><trkpt lat="40.6349217" lon="15.0316533"><ele>331.75</ele><time>2026-03-28T15:07:48.8Z</time></trkpt><trkpt lat="40.63483" lon="15.0314867"><ele>331.5</ele><time>2026-03-28T15:07:49.801Z</time></trkpt><trkpt lat="40.6347467" lon="15.03135"><ele>331.25</ele><time>2026-03-28T15:07:50.8Z</time></trkpt><trkpt lat="40.634665" lon="15.0312183"><ele>331.0</ele><time>2026-03-28T15:07:51.8Z</time></trkpt><trkpt lat="40.6345583" lon="15.03108"><ele>333.0</ele><time>2026-03-28T15:07:52.8Z</time></trkpt><trkpt lat="40.6344467" lon="15.03096"><ele>335.0</ele><time>2026-03-28T15:07:53.804Z</time></trkpt><trkpt lat="40.634325" lon="15.03085"><ele>337.0</ele><time>2026-03-28T15:07:54.801Z</time></trkpt><trkpt lat="40.6341917" lon="15.03073"><ele>337.0</ele><time>2026-03-28T15:07:55.801Z</time></trkpt><trkpt lat="40.634075" lon="15.0306133"><ele>337.0</ele><time>2026-03-28T15:07:56.8Z</time></trkpt><trkpt lat="40.6339683" lon="15.0304967"><ele>337.0</ele><time>2026-03-28T15:07:57.8Z</time></trkpt><trkpt lat="40.6338717" lon="15.0304067"><ele>337.0</ele><time>2026-03-28T15:07:58.801Z</time></trkpt><trkpt lat="40.633785" lon="15.03033"><ele>337.0</ele><time>2026-03-28T15:07:59.801Z</time></trkpt><trkpt lat="40.6336983" lon="15.030255"><ele>337.0</ele><time>2026-03-28T15:08:00.8Z</time></trkpt><trkpt lat="40.6335967" lon="15.0301917"><ele>337.0</ele><time>2026-03-28T15:08:01.8Z</time></trkpt><trkpt lat="40.6334683" lon="15.0301467"><ele>337.0</ele><time>2026-03-28T15:08:02.799Z</time></trkpt><trkpt lat="40.6333367" lon="15.0301167"><ele>339.75</ele><time>2026-03-28T15:08:03.802Z</time></trkpt><trkpt lat="40.63319" lon="15.0300767"><ele>342.5</ele><time>2026-03-28T15:08:04.802Z</time></trkpt><trkpt lat="40.6330383" lon="15.0300383"><ele>345.25</ele><time>2026-03-28T15:08:05.802Z</time></trkpt><trkpt lat="40.6329" lon="15.03001"><ele>348.0</ele><time>2026-03-28T15:08:06.801Z</time></trkpt><trkpt lat="40.6327717" lon="15.0299917"><ele>348.75</ele><time>2026-03-28T15:08:07.802Z</time></trkpt><trkpt lat="40.6326367" lon="15.0299967"><ele>349.5</ele><time>2026-03-28T15:08:08.802Z</time></trkpt><trkpt lat="40.6325067" lon="15.0300517"><ele>350.25</ele><time>2026-03-28T15:08:09.802Z</time></trkpt><trkpt lat="40.6323717" lon="15.0301383"><ele>351.0</ele><time>2026-03-28T15:08:10.802Z</time></trkpt><trkpt lat="40.632225" lon="15.0302367"><ele>351.0</ele><time>2026-03-28T15:08:11.8Z</time></trkpt><trkpt lat="40.6320683" lon="15.0303317"><ele>351.0</ele><time>2026-03-28T15:08:12.8Z</time></trkpt><trkpt lat="40.6319083" lon="15.0304317"><ele>351.0</ele><time>2026-03-28T15:08:13.802Z</time></trkpt><trkpt lat="40.63174" lon="15.03054"><ele>353.0</ele><time>2026-03-28T15:08:14.8Z</time></trkpt><trkpt lat="40.631565" lon="15.0306483"><ele>355.0</ele><time>2026-03-28T15:08:15.802Z</time></trkpt><trkpt lat="40.6313933" lon="15.030755"><ele>357.0</ele><time>2026-03-28T15:08:16.801Z</time></trkpt><trkpt lat="40.6312283" lon="15.030855"><ele>359.3333333333333</ele><time>2026-03-28T15:08:17.8Z</time></trkpt><trkpt lat="40.6310717" lon="15.0309533"><ele>361.66666666666663</ele><time>2026-03-28T15:08:18.8Z</time></trkpt><trkpt lat="40.6309267" lon="15.0310483"><ele>364.0</ele><time>2026-03-28T15:08:19.8Z</time></trkpt><trkpt lat="40.63079" lon="15.0311333"><ele>364.0</ele><time>2026-03-28T15:08:20.801Z</time></trkpt><trkpt lat="40.6306583" lon="15.0312183"><ele>364.0</ele><time>2026-03-28T15:08:21.8Z</time></trkpt><trkpt lat="40.630565" lon="15.031275"><ele>364.0</ele><time>2026-03-28T15:08:22.799Z</time></trkpt><trkpt lat="40.6305033" lon="15.0313017"><ele>364.0</ele><time>2026-03-28T15:08:23.803Z</time></trkpt><trkpt lat="40.6303917" lon="15.0313217"><ele>364.0</ele><time>2026-03-28T15:08:25.804Z</time></trkpt><trkpt lat="40.6303517" lon="15.0312033"><ele>364.0</ele><time>2026-03-28T15:08:27.8Z</time></trkpt><trkpt lat="40.6303467" lon="15.031085"><ele>364.0</ele><time>2026-03-28T15:08:28.801Z</time></trkpt><trkpt lat="40.6303417" lon="15.0309433"><ele>364.0</ele><time>2026-03-28T15:08:29.8Z</time></trkpt><trkpt lat="40.630335" lon="15.0307867"><ele>364.0</ele><time>2026-03-28T15:08:30.801Z</time></trkpt><trkpt lat="40.630325" lon="15.0306283"><ele>364.0</ele><time>2026-03-28T15:08:31.803Z</time></trkpt><trkpt lat="40.630315" lon="15.0304533"><ele>362.8333333333333</ele><time>2026-03-28T15:08:32.8Z</time></trkpt><trkpt lat="40.6303" lon="15.03031"><ele>361.66666666666663</ele><time>2026-03-28T15:08:33.8Z</time></trkpt><trkpt lat="40.6302867" lon="15.030175"><ele>360.5</ele><time>2026-03-28T15:08:34.8Z</time></trkpt><trkpt lat="40.630265" lon="15.0300667"><ele>359.3333333333333</ele><time>2026-03-28T15:08:35.8Z</time></trkpt><trkpt lat="40.6302417" lon="15.02998"><ele>358.1666666666667</ele><time>2026-03-28T15:08:36.8Z</time></trkpt><trkpt lat="40.6302083" lon="15.029905"><ele>357.0</ele><time>2026-03-28T15:08:37.801Z</time></trkpt><trkpt lat="40.6301417" lon="15.0298517"><ele>356.0</ele><time>2026-03-28T15:08:38.801Z</time></trkpt><trkpt lat="40.6300467" lon="15.0298267"><ele>355.0</ele><time>2026-03-28T15:08:39.801Z</time></trkpt><trkpt lat="40.6299133" lon="15.0298433"><ele>354.0</ele><time>2026-03-28T15:08:40.803Z</time></trkpt><trkpt lat="40.629785" lon="15.02985"><ele>353.0</ele><time>2026-03-28T15:08:41.799Z</time></trkpt><trkpt lat="40.629645" lon="15.029865"><ele>353.0</ele><time>2026-03-28T15:08:42.801Z</time></trkpt><trkpt lat="40.6294917" lon="15.0298833"><ele>353.0</ele><time>2026-03-28T15:08:43.8Z</time></trkpt><trkpt lat="40.6293367" lon="15.0298867"><ele>353.0</ele><time>2026-03-28T15:08:44.8Z</time></trkpt><trkpt lat="40.6291933" lon="15.0298833"><ele>352.75</ele><time>2026-03-28T15:08:45.8Z</time></trkpt><trkpt lat="40.6290517" lon="15.0298817"><ele>352.5</ele><time>2026-03-28T15:08:46.801Z</time></trkpt><trkpt lat="40.628915" lon="15.0298767"><ele>352.25</ele><time>2026-03-28T15:08:47.8Z</time></trkpt><trkpt lat="40.6287783" lon="15.0298717"><ele>352.0</ele><time>2026-03-28T15:08:48.8Z</time></trkpt><trkpt lat="40.6286417" lon="15.0298783"><ele>353.0</ele><time>2026-03-28T15:08:49.8Z</time></trkpt><trkpt lat="40.6285033" lon="15.0298883"><ele>354.0</ele><time>2026-03-28T15:08:50.8Z</time></trkpt><trkpt lat="40.6283617" lon="15.0298967"><ele>355.0</ele><time>2026-03-28T15:08:51.801Z</time></trkpt><trkpt lat="40.628215" lon="15.0298983"><ele>356.0</ele><time>2026-03-28T15:08:52.8Z</time></trkpt><trkpt lat="40.6280733" lon="15.0299"><ele>356.0</ele><time>2026-03-28T15:08:53.8Z</time></trkpt><trkpt lat="40.6279333" lon="15.0298967"><ele>356.0</ele><time>2026-03-28T15:08:54.804Z</time></trkpt><trkpt lat="40.6278217" lon="15.0299017"><ele>356.0</ele><time>2026-03-28T15:08:55.802Z</time></trkpt><trkpt lat="40.627725" lon="15.02992"><ele>356.0</ele><time>2026-03-28T15:08:56.802Z</time></trkpt><trkpt lat="40.6276117" lon="15.0299267"><ele>356.6</ele><time>2026-03-28T15:08:57.802Z</time></trkpt><trkpt lat="40.6274967" lon="15.0299233"><ele>357.20000000000005</ele><time>2026-03-28T15:08:58.803Z</time></trkpt><trkpt lat="40.627385" lon="15.0299167"><ele>357.79999999999995</ele><time>2026-03-28T15:08:59.799Z</time></trkpt><trkpt lat="40.6272817" lon="15.0299267"><ele>358.4</ele><time>2026-03-28T15:09:00.802Z</time></trkpt><trkpt lat="40.6271833" lon="15.0299317"><ele>359.0</ele><time>2026-03-28T15:09:01.801Z</time></trkpt><trkpt lat="40.6270817" lon="15.0299367"><ele>359.0</ele><time>2026-03-28T15:09:02.801Z</time></trkpt><trkpt lat="40.62698" lon="15.02994"><ele>359.0</ele><time>2026-03-28T15:09:03.802Z</time></trkpt><trkpt lat="40.626905" lon="15.0299383"><ele>359.0</ele><time>2026-03-28T15:09:04.799Z</time></trkpt><trkpt lat="40.6268367" lon="15.0299333"><ele>359.0</ele><time>2026-03-28T15:09:05.802Z</time></trkpt><trkpt lat="40.6267617" lon="15.0299367"><ele>359.0</ele><time>2026-03-28T15:09:07.8Z</time></trkpt><trkpt lat="40.6266883" lon="15.02994"><ele>359.0</ele><time>2026-03-28T15:09:09.803Z</time></trkpt><trkpt lat="40.6265933" lon="15.0299367"><ele>361.0</ele><time>2026-03-28T15:09:11.8Z</time></trkpt><trkpt lat="40.6265017" lon="15.0299317"><ele>363.0</ele><time>2026-03-28T15:09:13.8Z</time></trkpt><trkpt lat="40.6263967" lon="15.0299267"><ele>365.0</ele><time>2026-03-28T15:09:15.803Z</time></trkpt><trkpt lat="40.6263283" lon="15.0299033"><ele>367.0</ele><time>2026-03-28T15:09:16.799Z</time></trkpt><trkpt lat="40.626265" lon="15.029855"><ele>369.0</ele><time>2026-03-28T15:09:17.8Z</time></trkpt><trkpt lat="40.6262117" lon="15.02978"><ele>371.0</ele><time>2026-03-28T15:09:18.8Z</time></trkpt><trkpt lat="40.62614" lon="15.0297033"><ele>372.4</ele><time>2026-03-28T15:09:19.8Z</time></trkpt><trkpt lat="40.6260783" lon="15.0296217"><ele>373.8</ele><time>2026-03-28T15:09:20.8Z</time></trkpt><trkpt lat="40.6260017" lon="15.029525"><ele>375.2</ele><time>2026-03-28T15:09:21.8Z</time></trkpt><trkpt lat="40.6259367" lon="15.0294383"><ele>376.59999999999997</ele><time>2026-03-28T15:09:22.8Z</time></trkpt><trkpt lat="40.6258633" lon="15.02936"><ele>378.0</ele><time>2026-03-28T15:09:23.8Z</time></trkpt><trkpt lat="40.6257817" lon="15.0292867"><ele>378.0</ele><time>2026-03-28T15:09:24.801Z</time></trkpt><trkpt lat="40.6257" lon="15.0292067"><ele>378.0</ele><time>2026-03-28T15:09:25.803Z</time></trkpt><trkpt lat="40.625625" lon="15.029125"><ele>378.0</ele><time>2026-03-28T15:09:26.802Z</time></trkpt><trkpt lat="40.6255517" lon="15.0290483"><ele>378.0</ele><time>2026-03-28T15:09:27.801Z</time></trkpt><trkpt lat="40.62548" lon="15.0289767"><ele>378.0</ele><time>2026-03-28T15:09:28.801Z</time></trkpt><trkpt lat="40.6253967" lon="15.0289033"><ele>378.4</ele><time>2026-03-28T15:09:29.8Z</time></trkpt><trkpt lat="40.6253267" lon="15.0288317"><ele>378.79999999999995</ele><time>2026-03-28T15:09:30.8Z</time></trkpt><trkpt lat="40.6252717" lon="15.028775"><ele>379.2</ele><time>2026-03-28T15:09:31.8Z</time></trkpt><trkpt lat="40.6251783" lon="15.028685"><ele>379.6</ele><time>2026-03-28T15:09:33.8Z</time></trkpt><trkpt lat="40.62511" lon="15.0285867"><ele>380.0</ele><time>2026-03-28T15:09:35.8Z</time></trkpt><trkpt lat="40.625045" lon="15.02848"><ele>381.8</ele><time>2026-03-28T15:09:37.8Z</time></trkpt><trkpt lat="40.6249617" lon="15.0284083"><ele>383.6</ele><time>2026-03-28T15:09:39.799Z</time></trkpt><trkpt lat="40.6248933" lon="15.0282683"><ele>385.4</ele><time>2026-03-28T15:09:41.8Z</time></trkpt><trkpt lat="40.6248467" lon="15.0281317"><ele>387.2</ele><time>2026-03-28T15:09:43.8Z</time></trkpt><trkpt lat="40.62479" lon="15.02801"><ele>389.0</ele><time>2026-03-28T15:09:45.8Z</time></trkpt><trkpt lat="40.6247383" lon="15.0278983"><ele>389.0</ele><time>2026-03-28T15:09:47.8Z</time></trkpt><trkpt lat="40.624695" lon="15.0277733"><ele>389.0</ele><time>2026-03-28T15:09:49.802Z</time></trkpt><trkpt lat="40.6246517" lon="15.0277067"><ele>389.0</ele><time>2026-03-28T15:09:50.8Z</time></trkpt><trkpt lat="40.6246133" lon="15.02763"><ele>389.0</ele><time>2026-03-28T15:09:51.8Z</time></trkpt><trkpt lat="40.6245767" lon="15.0274983"><ele>389.0</ele><time>2026-03-28T15:09:53.803Z</time></trkpt><trkpt lat="40.6244967" lon="15.0273567"><ele>390.6</ele><time>2026-03-28T15:09:55.803Z</time></trkpt><trkpt lat="40.6244433" lon="15.027255"><ele>392.2</ele><time>2026-03-28T15:09:56.803Z</time></trkpt><trkpt lat="40.624365" lon="15.0271217"><ele>393.8</ele><time>2026-03-28T15:09:57.803Z</time></trkpt><trkpt lat="40.6243133" lon="15.0270017"><ele>395.40000000000003</ele><time>2026-03-28T15:09:58.802Z</time></trkpt><trkpt lat="40.6242633" lon="15.0268783"><ele>397.0</ele><time>2026-03-28T15:09:59.804Z</time></trkpt><trkpt lat="40.6242117" lon="15.0267517"><ele>397.40000000000003</ele><time>2026-03-28T15:10:00.801Z</time></trkpt><trkpt lat="40.624155" lon="15.026615"><ele>397.8</ele><time>2026-03-28T15:10:01.801Z</time></trkpt><trkpt lat="40.6240983" lon="15.0265017"><ele>398.2</ele><time>2026-03-28T15:10:02.8Z</time></trkpt><trkpt lat="40.6240317" lon="15.0264167"><ele>398.6</ele><time>2026-03-28T15:10:03.801Z</time></trkpt><trkpt lat="40.6239867" lon="15.026325"><ele>399.0</ele><time>2026-03-28T15:10:04.8Z</time></trkpt><trkpt lat="40.62395" lon="15.0262217"><ele>399.0</ele><time>2026-03-28T15:10:05.8Z</time></trkpt><trkpt lat="40.6239183" lon="15.0261317"><ele>399.0</ele><time>2026-03-28T15:10:06.803Z</time></trkpt><trkpt lat="40.6238767" lon="15.0259817"><ele>399.0</ele><time>2026-03-28T15:10:08.803Z</time></trkpt><trkpt lat="40.6238417" lon="15.025895"><ele>399.0</ele><time>2026-03-28T15:10:09.8Z</time></trkpt><trkpt lat="40.6237917" lon="15.025815"><ele>399.0</ele><time>2026-03-28T15:10:10.802Z</time></trkpt><trkpt lat="40.6237333" lon="15.0257517"><ele>399.0</ele><time>2026-03-28T15:10:11.802Z</time></trkpt><trkpt lat="40.623675" lon="15.025705"><ele>399.79999999999995</ele><time>2026-03-28T15:10:12.803Z</time></trkpt><trkpt lat="40.6235833" lon="15.0256033"><ele>400.59999999999997</ele><time>2026-03-28T15:10:14.802Z</time></trkpt><trkpt lat="40.6235267" lon="15.0255283"><ele>401.4</ele><time>2026-03-28T15:10:16.802Z</time></trkpt><trkpt lat="40.6234683" lon="15.0254383"><ele>402.2</ele><time>2026-03-28T15:10:19.799Z</time></trkpt><trkpt lat="40.62342" lon="15.0253467"><ele>403.0</ele><time>2026-03-28T15:10:21.8Z</time></trkpt><trkpt lat="40.6233683" lon="15.0252617"><ele>403.00000000000006</ele><time>2026-03-28T15:10:23.803Z</time></trkpt><trkpt lat="40.6233017" lon="15.0251983"><ele>403.0</ele><time>2026-03-28T15:10:25.802Z</time></trkpt><trkpt lat="40.62324" lon="15.0251317"><ele>403.0</ele><time>2026-03-28T15:10:27.8Z</time></trkpt><trkpt lat="40.6231817" lon="15.0250967"><ele>403.0</ele><time>2026-03-28T15:10:29.803Z</time></trkpt><trkpt lat="40.6231367" lon="15.025005"><ele>403.00000000000006</ele><time>2026-03-28T15:10:33.802Z</time></trkpt><trkpt lat="40.62312" lon="15.02492"><ele>403.0</ele><time>2026-03-28T15:10:36.801Z</time></trkpt><trkpt lat="40.6231817" lon="15.0248383"><ele>403.00000000000006</ele><time>2026-03-28T15:10:39.8Z</time></trkpt><trkpt lat="40.6232583" lon="15.0248"><ele>403.0</ele><time>2026-03-28T15:10:41.801Z</time></trkpt><trkpt lat="40.6233333" lon="15.02485"><ele>403.0</ele><time>2026-03-28T15:10:44.803Z</time></trkpt><trkpt lat="40.6233733" lon="15.0249617"><ele>403.0</ele><time>2026-03-28T15:10:47.8Z</time></trkpt><trkpt lat="40.6233933" lon="15.0250633"><ele>403.00000000000006</ele><time>2026-03-28T15:10:49.799Z</time></trkpt><trkpt lat="40.6234483" lon="15.0251733"><ele>403.0</ele><time>2026-03-28T15:10:51.799Z</time></trkpt><trkpt lat="40.62352" lon="15.0253017"><ele>403.00000000000006</ele><time>2026-03-28T15:10:53.801Z</time></trkpt><trkpt lat="40.6235417" lon="15.0253967"><ele>403.0</ele><time>2026-03-28T15:10:55.799Z</time></trkpt><trkpt lat="40.6235333" lon="15.0255067"><ele>403.0</ele><time>2026-03-28T15:10:58.799Z</time></trkpt><trkpt lat="40.62356" lon="15.025595"><ele>403.0</ele><time>2026-03-28T15:11:00.8Z</time></trkpt><trkpt lat="40.6236067" lon="15.02571"><ele>403.00000000000006</ele><time>2026-03-28T15:11:02.799Z</time></trkpt><trkpt lat="40.62367" lon="15.025795"><ele>403.0</ele><time>2026-03-28T15:11:04.801Z</time></trkpt><trkpt lat="40.623735" lon="15.0257983"><ele>403.0</ele><time>2026-03-28T15:11:07.8Z</time></trkpt><trkpt lat="40.6236533" lon="15.0257017"><ele>403.0</ele><time>2026-03-28T15:11:11.801Z</time></trkpt><trkpt lat="40.6236033" lon="15.0256383"><ele>403.0</ele><time>2026-03-28T15:11:12.801Z</time></trkpt><trkpt lat="40.62353" lon="15.0255183"><ele>403.0</ele><time>2026-03-28T15:11:14.8Z</time></trkpt><trkpt lat="40.6234683" lon="15.02542"><ele>403.0</ele><time>2026-03-28T15:11:16.8Z</time></trkpt><trkpt lat="40.623415" lon="15.025325"><ele>403.00000000000006</ele><time>2026-03-28T15:11:18.8Z</time></trkpt><trkpt lat="40.623355" lon="15.0252717"><ele>403.0</ele><time>2026-03-28T15:11:21.799Z</time></trkpt><trkpt lat="40.6232867" lon="15.0252117"><ele>403.0</ele><time>2026-03-28T15:11:23.804Z</time></trkpt><trkpt lat="40.6232167" lon="15.02512"><ele>403.0</ele><time>2026-03-28T15:11:25.802Z</time></trkpt><trkpt lat="40.623185" lon="15.025045"><ele>403.00000000000006</ele><time>2026-03-28T15:11:26.802Z</time></trkpt><trkpt lat="40.6231517" lon="15.0249683"><ele>403.0</ele><time>2026-03-28T15:11:27.803Z</time></trkpt><trkpt lat="40.623105" lon="15.024835"><ele>402.83333333333337</ele><time>2026-03-28T15:11:29.8Z</time></trkpt><trkpt lat="40.6230717" lon="15.0247183"><ele>402.6666666666667</ele><time>2026-03-28T15:11:31.799Z</time></trkpt><trkpt lat="40.6230383" lon="15.0246367"><ele>402.5</ele><time>2026-03-28T15:11:32.799Z</time></trkpt><trkpt lat="40.6229967" lon="15.0245483"><ele>402.33333333333337</ele><time>2026-03-28T15:11:33.801Z</time></trkpt><trkpt lat="40.622955" lon="15.0244583"><ele>402.1666666666667</ele><time>2026-03-28T15:11:34.8Z</time></trkpt><trkpt lat="40.6229167" lon="15.0243717"><ele>402.0</ele><time>2026-03-28T15:11:35.8Z</time></trkpt><trkpt lat="40.622875" lon="15.024285"><ele>402.0</ele><time>2026-03-28T15:11:36.799Z</time></trkpt><trkpt lat="40.622835" lon="15.0242083"><ele>402.0</ele><time>2026-03-28T15:11:37.8Z</time></trkpt><trkpt lat="40.6227933" lon="15.0241367"><ele>402.0</ele><time>2026-03-28T15:11:38.802Z</time></trkpt><trkpt lat="40.62275" lon="15.0240567"><ele>402.0</ele><time>2026-03-28T15:11:39.799Z</time></trkpt><trkpt lat="40.62271" lon="15.02396"><ele>402.0</ele><time>2026-03-28T15:11:40.799Z</time></trkpt><trkpt lat="40.6226667" lon="15.0238683"><ele>402.0</ele><time>2026-03-28T15:11:41.8Z</time></trkpt><trkpt lat="40.6226233" lon="15.02377"><ele>399.20000000000005</ele><time>2026-03-28T15:11:42.8Z</time></trkpt><trkpt lat="40.622575" lon="15.0236583"><ele>396.4</ele><time>2026-03-28T15:11:43.802Z</time></trkpt><trkpt lat="40.6225283" lon="15.0235467"><ele>393.6</ele><time>2026-03-28T15:11:44.799Z</time></trkpt><trkpt lat="40.6224883" lon="15.023445"><ele>390.79999999999995</ele><time>2026-03-28T15:11:45.802Z</time></trkpt><trkpt lat="40.6224467" lon="15.0233333"><ele>388.0</ele><time>2026-03-28T15:11:46.799Z</time></trkpt><trkpt lat="40.6223983" lon="15.023225"><ele>388.0</ele><time>2026-03-28T15:11:47.801Z</time></trkpt><trkpt lat="40.6223583" lon="15.0231117"><ele>388.0</ele><time>2026-03-28T15:11:48.802Z</time></trkpt><trkpt lat="40.62231" lon="15.022975"><ele>388.0</ele><time>2026-03-28T15:11:49.8Z</time></trkpt><trkpt lat="40.6222583" lon="15.022845"><ele>388.0</ele><time>2026-03-28T15:11:50.8Z</time></trkpt><trkpt lat="40.6221967" lon="15.0227"><ele>388.0</ele><time>2026-03-28T15:11:51.8Z</time></trkpt><trkpt lat="40.6221417" lon="15.0225483"><ele>388.0</ele><time>2026-03-28T15:11:52.802Z</time></trkpt><trkpt lat="40.6220917" lon="15.0224083"><ele>388.0</ele><time>2026-03-28T15:11:53.801Z</time></trkpt><trkpt lat="40.6220533" lon="15.0222883"><ele>388.0</ele><time>2026-03-28T15:11:54.799Z</time></trkpt><trkpt lat="40.6220217" lon="15.0221817"><ele>388.0</ele><time>2026-03-28T15:11:55.801Z</time></trkpt><trkpt lat="40.6219767" lon="15.0220933"><ele>388.0</ele><time>2026-03-28T15:11:56.799Z</time></trkpt><trkpt lat="40.621925" lon="15.0219967"><ele>387.50000000000006</ele><time>2026-03-28T15:11:57.799Z</time></trkpt><trkpt lat="40.62187" lon="15.021905"><ele>387.0</ele><time>2026-03-28T15:11:58.799Z</time></trkpt><trkpt lat="40.6218217" lon="15.0218083"><ele>386.5</ele><time>2026-03-28T15:11:59.8Z</time></trkpt><trkpt lat="40.62177" lon="15.02171"><ele>386.0</ele><time>2026-03-28T15:12:00.802Z</time></trkpt><trkpt lat="40.62172" lon="15.021625"><ele>385.50000000000006</ele><time>2026-03-28T15:12:01.801Z</time></trkpt><trkpt lat="40.6216633" lon="15.0215367"><ele>385.0</ele><time>2026-03-28T15:12:02.8Z</time></trkpt><trkpt lat="40.6216133" lon="15.0214667"><ele>385.0</ele><time>2026-03-28T15:12:03.8Z</time></trkpt><trkpt lat="40.6215717" lon="15.021395"><ele>385.0</ele><time>2026-03-28T15:12:04.801Z</time></trkpt><trkpt lat="40.6215283" lon="15.021305"><ele>385.0</ele><time>2026-03-28T15:12:05.802Z</time></trkpt><trkpt lat="40.621485" lon="15.02121"><ele>385.0</ele><time>2026-03-28T15:12:06.8Z</time></trkpt><trkpt lat="40.6214483" lon="15.0211167"><ele>385.0</ele><time>2026-03-28T15:12:07.799Z</time></trkpt><trkpt lat="40.62141" lon="15.021045"><ele>385.0</ele><time>2026-03-28T15:12:08.8Z</time></trkpt><trkpt lat="40.6213667" lon="15.0209733"><ele>385.0</ele><time>2026-03-28T15:12:09.799Z</time></trkpt><trkpt lat="40.6213133" lon="15.0209167"><ele>385.0</ele><time>2026-03-28T15:12:10.802Z</time></trkpt><trkpt lat="40.6212633" lon="15.02086"><ele>385.0</ele><time>2026-03-28T15:12:11.802Z</time></trkpt><trkpt lat="40.621175" lon="15.02077"><ele>385.0</ele><time>2026-03-28T15:12:13.802Z</time></trkpt><trkpt lat="40.62109" lon="15.02065"><ele>385.0</ele><time>2026-03-28T15:12:15.799Z</time></trkpt><trkpt lat="40.6210167" lon="15.0205283"><ele>385.0</ele><time>2026-03-28T15:12:17.801Z</time></trkpt><trkpt lat="40.6209783" lon="15.0204617"><ele>384.4</ele><time>2026-03-28T15:12:18.799Z</time></trkpt><trkpt lat="40.6209133" lon="15.0203283"><ele>383.8</ele><time>2026-03-28T15:12:20.8Z</time></trkpt><trkpt lat="40.620865" lon="15.02018"><ele>383.20000000000005</ele><time>2026-03-28T15:12:22.799Z</time></trkpt><trkpt lat="40.6208367" lon="15.020105"><ele>382.6</ele><time>2026-03-28T15:12:23.8Z</time></trkpt><trkpt lat="40.62081" lon="15.0200283"><ele>382.0</ele><time>2026-03-28T15:12:24.801Z</time></trkpt><trkpt lat="40.6207533" lon="15.0198833"><ele>382.0</ele><time>2026-03-28T15:12:26.802Z</time></trkpt><trkpt lat="40.6207067" lon="15.01974"><ele>382.0</ele><time>2026-03-28T15:12:28.8Z</time></trkpt><trkpt lat="40.620695" lon="15.0195917"><ele>382.0</ele><time>2026-03-28T15:12:30.799Z</time></trkpt><trkpt lat="40.6206817" lon="15.0195067"><ele>382.0</ele><time>2026-03-28T15:12:31.801Z</time></trkpt><trkpt lat="40.6206617" lon="15.0194"><ele>382.0</ele><time>2026-03-28T15:12:32.8Z</time></trkpt><trkpt lat="40.6206317" lon="15.01929"><ele>382.0</ele><time>2026-03-28T15:12:33.799Z</time></trkpt><trkpt lat="40.6206" lon="15.0192067"><ele>382.0</ele><time>2026-03-28T15:12:34.799Z</time></trkpt><trkpt lat="40.6205367" lon="15.0190833"><ele>382.0</ele><time>2026-03-28T15:12:36.799Z</time></trkpt><trkpt lat="40.6204833" lon="15.0189533"><ele>382.0</ele><time>2026-03-28T15:12:38.802Z</time></trkpt><trkpt lat="40.6204617" lon="15.0188667"><ele>382.0</ele><time>2026-03-28T15:12:39.799Z</time></trkpt><trkpt lat="40.6204233" lon="15.0187283"><ele>381.3333333333333</ele><time>2026-03-28T15:12:41.802Z</time></trkpt><trkpt lat="40.6203967" lon="15.018605"><ele>380.66666666666663</ele><time>2026-03-28T15:12:43.801Z</time></trkpt><trkpt lat="40.6203833" lon="15.018505"><ele>380.0</ele><time>2026-03-28T15:12:45.802Z</time></trkpt><trkpt lat="40.6203567" lon="15.0184017"><ele>379.3333333333333</ele><time>2026-03-28T15:12:48.801Z</time></trkpt><trkpt lat="40.6203267" lon="15.0182767"><ele>378.6666666666667</ele><time>2026-03-28T15:12:51.8Z</time></trkpt><trkpt lat="40.6202933" lon="15.0181867"><ele>378.0</ele><time>2026-03-28T15:12:53.802Z</time></trkpt><trkpt lat="40.6202767" lon="15.0180783"><ele>378.0</ele><time>2026-03-28T15:12:55.803Z</time></trkpt><trkpt lat="40.620295" lon="15.0179933"><ele>378.0</ele><time>2026-03-28T15:12:56.801Z</time></trkpt><trkpt lat="40.6203183" lon="15.0178933"><ele>378.0</ele><time>2026-03-28T15:12:57.8Z</time></trkpt><trkpt lat="40.620345" lon="15.017795"><ele>378.0</ele><time>2026-03-28T15:12:58.801Z</time></trkpt><trkpt lat="40.62037" lon="15.01769"><ele>378.0</ele><time>2026-03-28T15:12:59.801Z</time></trkpt><trkpt lat="40.6203917" lon="15.0175933"><ele>378.0</ele><time>2026-03-28T15:13:00.801Z</time></trkpt><trkpt lat="40.620405" lon="15.0175117"><ele>378.0</ele><time>2026-03-28T15:13:01.8Z</time></trkpt><trkpt lat="40.6204217" lon="15.0174283"><ele>378.0</ele><time>2026-03-28T15:13:02.799Z</time></trkpt><trkpt lat="40.6204167" lon="15.0173433"><ele>378.0</ele><time>2026-03-28T15:13:03.801Z</time></trkpt><trkpt lat="40.6204167" lon="15.01726"><ele>378.0</ele><time>2026-03-28T15:13:04.8Z</time></trkpt><trkpt lat="40.6204383" lon="15.0171083"><ele>378.0</ele><time>2026-03-28T15:13:06.8Z</time></trkpt><trkpt lat="40.6204767" lon="15.0170233"><ele>378.0</ele><time>2026-03-28T15:13:07.802Z</time></trkpt><trkpt lat="40.6205133" lon="15.016945"><ele>378.0</ele><time>2026-03-28T15:13:08.799Z</time></trkpt><trkpt lat="40.6205583" lon="15.016865"><ele>378.0</ele><time>2026-03-28T15:13:09.8Z</time></trkpt><trkpt lat="40.620625" lon="15.0167817"><ele>378.0</ele><time>2026-03-28T15:13:10.801Z</time></trkpt><trkpt lat="40.6207167" lon="15.0167033"><ele>378.0</ele><time>2026-03-28T15:13:11.8Z</time></trkpt><trkpt lat="40.620785" lon="15.0166183"><ele>378.0</ele><time>2026-03-28T15:13:12.799Z</time></trkpt><trkpt lat="40.6208433" lon="15.0165483"><ele>378.0</ele><time>2026-03-28T15:13:13.8Z</time></trkpt><trkpt lat="40.6208917" lon="15.016485"><ele>378.0</ele><time>2026-03-28T15:13:14.799Z</time></trkpt><trkpt lat="40.6209517" lon="15.0164533"><ele>378.0</ele><time>2026-03-28T15:13:15.8Z</time></trkpt><trkpt lat="40.6210433" lon="15.0163867"><ele>378.0</ele><time>2026-03-28T15:13:17.8Z</time></trkpt><trkpt lat="40.6211167" lon="15.0163717"><ele>378.0</ele><time>2026-03-28T15:13:20.799Z</time></trkpt><trkpt lat="40.621025" lon="15.0163533"><ele>378.0</ele><time>2026-03-28T15:13:37.8Z</time></trkpt><trkpt lat="40.6210817" lon="15.0164033"><ele>378.0</ele><time>2026-03-28T15:14:07.801Z</time></trkpt><trkpt lat="40.6211033" lon="15.0163083"><ele>378.0</ele><time>2026-03-28T15:14:12.799Z</time></trkpt><trkpt lat="40.621175" lon="15.01623"><ele>380.4</ele><time>2026-03-28T15:14:16.8Z</time></trkpt><trkpt lat="40.621225" lon="15.0161667"><ele>382.79999999999995</ele><time>2026-03-28T15:14:18.8Z</time></trkpt><trkpt lat="40.6213033" lon="15.0160733"><ele>385.2</ele><time>2026-03-28T15:14:20.799Z</time></trkpt><trkpt lat="40.62139" lon="15.0159667"><ele>387.6</ele><time>2026-03-28T15:14:22.799Z</time></trkpt><trkpt lat="40.6214733" lon="15.0158667"><ele>390.0</ele><time>2026-03-28T15:14:24.799Z</time></trkpt><trkpt lat="40.62154" lon="15.01581"><ele>391.0</ele><time>2026-03-28T15:14:25.799Z</time></trkpt><trkpt lat="40.6216067" lon="15.0157567"><ele>392.0</ele><time>2026-03-28T15:14:26.8Z</time></trkpt><trkpt lat="40.621705" lon="15.015685"><ele>393.0</ele><time>2026-03-28T15:14:28.801Z</time></trkpt><trkpt lat="40.6217283" lon="15.015575"><ele>394.0</ele><time>2026-03-28T15:14:31.8Z</time></trkpt><trkpt lat="40.6217133" lon="15.0154717"><ele>395.0</ele><time>2026-03-28T15:14:33.799Z</time></trkpt><trkpt lat="40.6216883" lon="15.0153467"><ele>395.0</ele><time>2026-03-28T15:14:35.8Z</time></trkpt><trkpt lat="40.6216733" lon="15.01519"><ele>395.0</ele><time>2026-03-28T15:14:37.801Z</time></trkpt><trkpt lat="40.62166" lon="15.0151083"><ele>395.0</ele><time>2026-03-28T15:14:38.8Z</time></trkpt><trkpt lat="40.62164" lon="15.0150217"><ele>395.0</ele><time>2026-03-28T15:14:39.799Z</time></trkpt><trkpt lat="40.6216017" lon="15.01491"><ele>395.0</ele><time>2026-03-28T15:14:40.801Z</time></trkpt><trkpt lat="40.6215533" lon="15.0147733"><ele>395.75</ele><time>2026-03-28T15:14:41.801Z</time></trkpt><trkpt lat="40.621505" lon="15.014635"><ele>396.5</ele><time>2026-03-28T15:14:42.801Z</time></trkpt><trkpt lat="40.6214533" lon="15.0144833"><ele>397.25</ele><time>2026-03-28T15:14:43.802Z</time></trkpt><trkpt lat="40.6214033" lon="15.01434"><ele>398.0</ele><time>2026-03-28T15:14:44.801Z</time></trkpt><trkpt lat="40.6213533" lon="15.0142233"><ele>397.49999999999994</ele><time>2026-03-28T15:14:45.8Z</time></trkpt><trkpt lat="40.6213217" lon="15.014125"><ele>397.0</ele><time>2026-03-28T15:14:46.802Z</time></trkpt><trkpt lat="40.621295" lon="15.014025"><ele>396.5</ele><time>2026-03-28T15:14:47.803Z</time></trkpt><trkpt lat="40.621275" lon="15.0139433"><ele>396.0</ele><time>2026-03-28T15:14:48.802Z</time></trkpt><trkpt lat="40.6212417" lon="15.0137983"><ele>395.49999999999994</ele><time>2026-03-28T15:14:50.8Z</time></trkpt><trkpt lat="40.62125" lon="15.0137"><ele>395.0</ele><time>2026-03-28T15:14:52.8Z</time></trkpt><trkpt lat="40.621275" lon="15.0136217"><ele>394.99999999999994</ele><time>2026-03-28T15:14:56.803Z</time></trkpt><trkpt lat="40.6212" lon="15.013605"><ele>395.0</ele><time>2026-03-28T15:15:00.802Z</time></trkpt><trkpt lat="40.621095" lon="15.013555"><ele>395.0</ele><time>2026-03-28T15:15:03.799Z</time></trkpt><trkpt lat="40.6210517" lon="15.0134333"><ele>395.0</ele><time>2026-03-28T15:15:05.799Z</time></trkpt><trkpt lat="40.6210267" lon="15.0133483"><ele>394.99999999999994</ele><time>2026-03-28T15:15:06.8Z</time></trkpt><trkpt lat="40.620995" lon="15.0132533"><ele>395.0</ele><time>2026-03-28T15:15:07.802Z</time></trkpt><trkpt lat="40.6209517" lon="15.01314"><ele>394.6</ele><time>2026-03-28T15:15:08.802Z</time></trkpt><trkpt lat="40.6209033" lon="15.0130217"><ele>394.2</ele><time>2026-03-28T15:15:09.799Z</time></trkpt><trkpt lat="40.620855" lon="15.0129067"><ele>393.79999999999995</ele><time>2026-03-28T15:15:10.801Z</time></trkpt><trkpt lat="40.62082" lon="15.0128117"><ele>393.4</ele><time>2026-03-28T15:15:11.801Z</time></trkpt><trkpt lat="40.6207983" lon="15.0127183"><ele>393.0</ele><time>2026-03-28T15:15:12.801Z</time></trkpt><trkpt lat="40.62079" lon="15.0125817"><ele>393.0</ele><time>2026-03-28T15:15:14.801Z</time></trkpt><trkpt lat="40.620775" lon="15.0124683"><ele>393.0</ele><time>2026-03-28T15:15:16.799Z</time></trkpt><trkpt lat="40.62077" lon="15.0123733"><ele>393.0</ele><time>2026-03-28T15:15:18.799Z</time></trkpt><trkpt lat="40.6206867" lon="15.012355"><ele>393.0</ele><time>2026-03-28T15:15:21.8Z</time></trkpt><trkpt lat="40.620705" lon="15.012495"><ele>393.0</ele><time>2026-03-28T15:15:24.799Z</time></trkpt><trkpt lat="40.62074" lon="15.01258"><ele>393.0</ele><time>2026-03-28T15:15:25.8Z</time></trkpt><trkpt lat="40.62079" lon="15.01268"><ele>393.0</ele><time>2026-03-28T15:15:26.799Z</time></trkpt><trkpt lat="40.6208283" lon="15.01281"><ele>393.0</ele><time>2026-03-28T15:15:27.799Z</time></trkpt><trkpt lat="40.6208567" lon="15.0129417"><ele>393.0</ele><time>2026-03-28T15:15:28.802Z</time></trkpt><trkpt lat="40.6209117" lon="15.0131033"><ele>393.0</ele><time>2026-03-28T15:15:29.802Z</time></trkpt><trkpt lat="40.6209783" lon="15.013255"><ele>392.5</ele><time>2026-03-28T15:15:30.799Z</time></trkpt><trkpt lat="40.6210567" lon="15.0134217"><ele>392.0</ele><time>2026-03-28T15:15:31.799Z</time></trkpt><trkpt lat="40.621125" lon="15.0135867"><ele>391.5</ele><time>2026-03-28T15:15:32.8Z</time></trkpt><trkpt lat="40.6211833" lon="15.0137333"><ele>391.0</ele><time>2026-03-28T15:15:33.802Z</time></trkpt><trkpt lat="40.6212283" lon="15.0138433"><ele>392.0</ele><time>2026-03-28T15:15:34.8Z</time></trkpt><trkpt lat="40.6212733" lon="15.0139667"><ele>393.0</ele><time>2026-03-28T15:15:35.799Z</time></trkpt><trkpt lat="40.62132" lon="15.0141117"><ele>394.0</ele><time>2026-03-28T15:15:36.799Z</time></trkpt><trkpt lat="40.621375" lon="15.0142783"><ele>395.0</ele><time>2026-03-28T15:15:37.8Z</time></trkpt><trkpt lat="40.62144" lon="15.0144667"><ele>395.0</ele><time>2026-03-28T15:15:38.799Z</time></trkpt><trkpt lat="40.6215017" lon="15.0146633"><ele>395.0</ele><time>2026-03-28T15:15:39.799Z</time></trkpt><trkpt lat="40.6215467" lon="15.01481"><ele>395.0</ele><time>2026-03-28T15:15:40.801Z</time></trkpt><trkpt lat="40.6215867" lon="15.0149367"><ele>395.0</ele><time>2026-03-28T15:15:41.801Z</time></trkpt><trkpt lat="40.6216217" lon="15.0150483"><ele>394.99999999999994</ele><time>2026-03-28T15:15:42.799Z</time></trkpt><trkpt lat="40.6216517" lon="15.0151533"><ele>395.0</ele><time>2026-03-28T15:15:43.803Z</time></trkpt><trkpt lat="40.6216483" lon="15.0152583"><ele>395.0</ele><time>2026-03-28T15:15:44.802Z</time></trkpt><trkpt lat="40.62168" lon="15.0154067"><ele>395.0</ele><time>2026-03-28T15:15:46.802Z</time></trkpt><trkpt lat="40.6216967" lon="15.0154883"><ele>394.99999999999994</ele><time>2026-03-28T15:15:47.8Z</time></trkpt><trkpt lat="40.6217183" lon="15.0155667"><ele>395.0</ele><time>2026-03-28T15:15:48.8Z</time></trkpt><trkpt lat="40.6217383" lon="15.015655"><ele>395.0</ele><time>2026-03-28T15:15:49.799Z</time></trkpt><trkpt lat="40.6217617" lon="15.0157467"><ele>395.0</ele><time>2026-03-28T15:15:50.805Z</time></trkpt><trkpt lat="40.6217783" lon="15.015835"><ele>395.0</ele><time>2026-03-28T15:15:51.8Z</time></trkpt><trkpt lat="40.6217933" lon="15.01592"><ele>395.0</ele><time>2026-03-28T15:15:52.8Z</time></trkpt><trkpt lat="40.6218117" lon="15.0160133"><ele>395.0</ele><time>2026-03-28T15:15:53.803Z</time></trkpt><trkpt lat="40.62183" lon="15.0161017"><ele>395.0</ele><time>2026-03-28T15:15:54.801Z</time></trkpt><trkpt lat="40.621845" lon="15.0162067"><ele>395.0</ele><time>2026-03-28T15:15:55.801Z</time></trkpt><trkpt lat="40.6218567" lon="15.0163067"><ele>394.66666666666663</ele><time>2026-03-28T15:15:56.802Z</time></trkpt><trkpt lat="40.6218717" lon="15.016395"><ele>394.3333333333333</ele><time>2026-03-28T15:15:57.799Z</time></trkpt><trkpt lat="40.62191" lon="15.01655"><ele>394.0</ele><time>2026-03-28T15:15:59.8Z</time></trkpt><trkpt lat="40.6219333" lon="15.0166367"><ele>393.66666666666663</ele><time>2026-03-28T15:16:00.8Z</time></trkpt><trkpt lat="40.6219583" lon="15.0167333"><ele>393.3333333333333</ele><time>2026-03-28T15:16:01.801Z</time></trkpt><trkpt lat="40.6219917" lon="15.016835"><ele>393.0</ele><time>2026-03-28T15:16:02.799Z</time></trkpt><trkpt lat="40.622015" lon="15.0169383"><ele>393.0</ele><time>2026-03-28T15:16:03.799Z</time></trkpt><trkpt lat="40.6220367" lon="15.01703"><ele>393.0</ele><time>2026-03-28T15:16:04.8Z</time></trkpt><trkpt lat="40.62205" lon="15.01712"><ele>393.0</ele><time>2026-03-28T15:16:05.799Z</time></trkpt><trkpt lat="40.6220633" lon="15.0172733"><ele>393.0</ele><time>2026-03-28T15:16:07.799Z</time></trkpt><trkpt lat="40.622045" lon="15.017365"><ele>393.0</ele><time>2026-03-28T15:16:09.799Z</time></trkpt><trkpt lat="40.6219983" lon="15.0174217"><ele>393.0</ele><time>2026-03-28T15:16:11.8Z</time></trkpt><trkpt lat="40.62191" lon="15.017465"><ele>392.0</ele><time>2026-03-28T15:16:13.801Z</time></trkpt><trkpt lat="40.6217833" lon="15.0174317"><ele>391.0</ele><time>2026-03-28T15:16:15.799Z</time></trkpt><trkpt lat="40.6217117" lon="15.0173867"><ele>390.0</ele><time>2026-03-28T15:16:16.799Z</time></trkpt><trkpt lat="40.621645" lon="15.0173367"><ele>389.0</ele><time>2026-03-28T15:16:17.799Z</time></trkpt><trkpt lat="40.6215883" lon="15.0172717"><ele>388.0</ele><time>2026-03-28T15:16:18.799Z</time></trkpt><trkpt lat="40.6215283" lon="15.0172033"><ele>387.0</ele><time>2026-03-28T15:16:19.799Z</time></trkpt><trkpt lat="40.6214733" lon="15.017135"><ele>387.0</ele><time>2026-03-28T15:16:20.8Z</time></trkpt><trkpt lat="40.6214317" lon="15.0170483"><ele>387.0</ele><time>2026-03-28T15:16:21.799Z</time></trkpt><trkpt lat="40.621395" lon="15.01697"><ele>387.0</ele><time>2026-03-28T15:16:22.801Z</time></trkpt><trkpt lat="40.621375" lon="15.0168883"><ele>387.0</ele><time>2026-03-28T15:16:23.801Z</time></trkpt><trkpt lat="40.6213367" lon="15.0168217"><ele>387.0</ele><time>2026-03-28T15:16:24.803Z</time></trkpt><trkpt lat="40.621275" lon="15.0166983"><ele>387.0</ele><time>2026-03-28T15:16:26.802Z</time></trkpt><trkpt lat="40.6212383" lon="15.016625"><ele>387.5</ele><time>2026-03-28T15:16:27.801Z</time></trkpt><trkpt lat="40.621195" lon="15.0165617"><ele>388.0</ele><time>2026-03-28T15:16:28.802Z</time></trkpt><trkpt lat="40.62113" lon="15.01644"><ele>388.5</ele><time>2026-03-28T15:16:30.802Z</time></trkpt><trkpt lat="40.621075" lon="15.016345"><ele>389.0</ele><time>2026-03-28T15:16:32.801Z</time></trkpt><trkpt lat="40.6210233" lon="15.0162867"><ele>389.5</ele><time>2026-03-28T15:16:33.799Z</time></trkpt><trkpt lat="40.620965" lon="15.0162367"><ele>390.0</ele><time>2026-03-28T15:16:34.8Z</time></trkpt><trkpt lat="40.6208617" lon="15.016165"><ele>388.6</ele><time>2026-03-28T15:16:36.801Z</time></trkpt><trkpt lat="40.6207483" lon="15.0161083"><ele>387.2</ele><time>2026-03-28T15:16:38.801Z</time></trkpt><trkpt lat="40.6206833" lon="15.0160733"><ele>385.79999999999995</ele><time>2026-03-28T15:16:39.8Z</time></trkpt><trkpt lat="40.62059" lon="15.015965"><ele>384.4</ele><time>2026-03-28T15:16:41.802Z</time></trkpt><trkpt lat="40.6205267" lon="15.0158383"><ele>383.0</ele><time>2026-03-28T15:16:43.799Z</time></trkpt><trkpt lat="40.6204867" lon="15.0156883"><ele>383.0</ele><time>2026-03-28T15:16:45.8Z</time></trkpt><trkpt lat="40.62047" lon="15.0156083"><ele>383.0</ele><time>2026-03-28T15:16:46.799Z</time></trkpt><trkpt lat="40.6204317" lon="15.0154567"><ele>383.0</ele><time>2026-03-28T15:16:48.801Z</time></trkpt><trkpt lat="40.62041" lon="15.0153767"><ele>383.0</ele><time>2026-03-28T15:16:49.799Z</time></trkpt><trkpt lat="40.6203917" lon="15.0152867"><ele>383.0</ele><time>2026-03-28T15:16:50.8Z</time></trkpt><trkpt lat="40.620345" lon="15.0152017"><ele>383.0</ele><time>2026-03-28T15:16:51.8Z</time></trkpt><trkpt lat="40.6202933" lon="15.015125"><ele>378.79999999999995</ele><time>2026-03-28T15:16:52.8Z</time></trkpt><trkpt lat="40.620255" lon="15.015055"><ele>374.6</ele><time>2026-03-28T15:16:53.799Z</time></trkpt><trkpt lat="40.62018" lon="15.0149167"><ele>370.4</ele><time>2026-03-28T15:16:55.8Z</time></trkpt><trkpt lat="40.6201367" lon="15.0148433"><ele>366.20000000000005</ele><time>2026-03-28T15:16:56.8Z</time></trkpt><trkpt lat="40.6200333" lon="15.0147283"><ele>362.0</ele><time>2026-03-28T15:16:58.799Z</time></trkpt><trkpt lat="40.61997" lon="15.014655"><ele>362.0</ele><time>2026-03-28T15:16:59.8Z</time></trkpt><trkpt lat="40.61991" lon="15.0145967"><ele>362.0</ele><time>2026-03-28T15:17:00.801Z</time></trkpt><trkpt lat="40.6198567" lon="15.01453"><ele>362.0</ele><time>2026-03-28T15:17:01.799Z</time></trkpt><trkpt lat="40.6197683" lon="15.014445"><ele>362.0</ele><time>2026-03-28T15:17:03.799Z</time></trkpt><trkpt lat="40.619675" lon="15.0143617"><ele>362.0</ele><time>2026-03-28T15:17:05.799Z</time></trkpt><trkpt lat="40.6195867" lon="15.014285"><ele>362.0</ele><time>2026-03-28T15:17:07.799Z</time></trkpt><trkpt lat="40.619515" lon="15.014195"><ele>362.0</ele><time>2026-03-28T15:17:09.8Z</time></trkpt><trkpt lat="40.61947" lon="15.014135"><ele>362.0</ele><time>2026-03-28T15:17:10.801Z</time></trkpt><trkpt lat="40.6193883" lon="15.014035"><ele>362.0</ele><time>2026-03-28T15:17:12.799Z</time></trkpt><trkpt lat="40.619305" lon="15.0139233"><ele>362.0</ele><time>2026-03-28T15:17:14.801Z</time></trkpt><trkpt lat="40.6192483" lon="15.0138067"><ele>358.20000000000005</ele><time>2026-03-28T15:17:16.801Z</time></trkpt><trkpt lat="40.619225" lon="15.0137067"><ele>354.4</ele><time>2026-03-28T15:17:17.799Z</time></trkpt><trkpt lat="40.6191983" lon="15.013565"><ele>350.6</ele><time>2026-03-28T15:17:19.8Z</time></trkpt><trkpt lat="40.6191767" lon="15.0134167"><ele>346.79999999999995</ele><time>2026-03-28T15:17:21.799Z</time></trkpt><trkpt lat="40.6191567" lon="15.0132783"><ele>343.0</ele><time>2026-03-28T15:17:23.8Z</time></trkpt><trkpt lat="40.6191267" lon="15.0131633"><ele>343.0</ele><time>2026-03-28T15:17:25.801Z</time></trkpt><trkpt lat="40.6190583" lon="15.0130717"><ele>343.0</ele><time>2026-03-28T15:17:27.801Z</time></trkpt><trkpt lat="40.6189517" lon="15.013035"><ele>343.0</ele><time>2026-03-28T15:17:29.8Z</time></trkpt><trkpt lat="40.61883" lon="15.0130217"><ele>343.0</ele><time>2026-03-28T15:17:31.8Z</time></trkpt><trkpt lat="40.6187617" lon="15.013045"><ele>343.0</ele><time>2026-03-28T15:17:32.801Z</time></trkpt><trkpt lat="40.61865" lon="15.0130683"><ele>339.59999999999997</ele><time>2026-03-28T15:17:34.799Z</time></trkpt><trkpt lat="40.6185417" lon="15.0130717"><ele>336.2</ele><time>2026-03-28T15:17:36.8Z</time></trkpt><trkpt lat="40.618415" lon="15.0130733"><ele>332.8</ele><time>2026-03-28T15:17:38.799Z</time></trkpt><trkpt lat="40.618345" lon="15.013075"><ele>329.4</ele><time>2026-03-28T15:17:39.799Z</time></trkpt><trkpt lat="40.6182733" lon="15.0130817"><ele>326.0</ele><time>2026-03-28T15:17:40.803Z</time></trkpt><trkpt lat="40.6181917" lon="15.013085"><ele>326.0</ele><time>2026-03-28T15:17:41.803Z</time></trkpt><trkpt lat="40.6181" lon="15.013085"><ele>326.0</ele><time>2026-03-28T15:17:42.799Z</time></trkpt><trkpt lat="40.61801" lon="15.0130883"><ele>326.0</ele><time>2026-03-28T15:17:43.8Z</time></trkpt><trkpt lat="40.6179183" lon="15.0130917"><ele>326.0</ele><time>2026-03-28T15:17:44.803Z</time></trkpt><trkpt lat="40.6178217" lon="15.013095"><ele>326.0</ele><time>2026-03-28T15:17:45.799Z</time></trkpt><trkpt lat="40.6177233" lon="15.0131"><ele>325.6</ele><time>2026-03-28T15:17:46.8Z</time></trkpt><trkpt lat="40.61762" lon="15.0131"><ele>325.20000000000005</ele><time>2026-03-28T15:17:47.801Z</time></trkpt><trkpt lat="40.61751" lon="15.0130833"><ele>324.79999999999995</ele><time>2026-03-28T15:17:48.799Z</time></trkpt><trkpt lat="40.617415" lon="15.013095"><ele>324.4</ele><time>2026-03-28T15:17:49.8Z</time></trkpt><trkpt lat="40.617335" lon="15.0131017"><ele>324.0</ele><time>2026-03-28T15:17:50.799Z</time></trkpt><trkpt lat="40.6172517" lon="15.0131067"><ele>324.0</ele><time>2026-03-28T15:17:51.799Z</time></trkpt><trkpt lat="40.6171683" lon="15.0131117"><ele>324.0</ele><time>2026-03-28T15:17:52.8Z</time></trkpt><trkpt lat="40.6170867" lon="15.0131233"><ele>324.0</ele><time>2026-03-28T15:17:53.799Z</time></trkpt><trkpt lat="40.617005" lon="15.0131367"><ele>324.0</ele><time>2026-03-28T15:17:54.799Z</time></trkpt><trkpt lat="40.6169333" lon="15.01315"><ele>324.0</ele><time>2026-03-28T15:17:55.801Z</time></trkpt><trkpt lat="40.6168367" lon="15.01321"><ele>324.0</ele><time>2026-03-28T15:17:57.799Z</time></trkpt><trkpt lat="40.6167783" lon="15.0132933"><ele>324.75</ele><time>2026-03-28T15:17:59.799Z</time></trkpt><trkpt lat="40.6167683" lon="15.0134133"><ele>325.5</ele><time>2026-03-28T15:18:02.8Z</time></trkpt><trkpt lat="40.6168183" lon="15.01367"><ele>326.25</ele><time>2026-03-28T15:18:04.8Z</time></trkpt><trkpt lat="40.616845" lon="15.01384"><ele>327.0</ele><time>2026-03-28T15:18:05.802Z</time></trkpt><trkpt lat="40.6168717" lon="15.01402"><ele>325.6666666666667</ele><time>2026-03-28T15:18:06.8Z</time></trkpt><trkpt lat="40.6168817" lon="15.0142533"><ele>324.33333333333337</ele><time>2026-03-28T15:18:07.799Z</time></trkpt><trkpt lat="40.6169033" lon="15.0144833"><ele>323.0</ele><time>2026-03-28T15:18:08.801Z</time></trkpt><trkpt lat="40.61692" lon="15.0147267"><ele>323.0</ele><time>2026-03-28T15:18:09.799Z</time></trkpt><trkpt lat="40.616925" lon="15.0149567"><ele>323.0</ele><time>2026-03-28T15:18:10.8Z</time></trkpt><trkpt lat="40.6169367" lon="15.01518"><ele>323.0</ele><time>2026-03-28T15:18:11.799Z</time></trkpt><trkpt lat="40.6169417" lon="15.0153983"><ele>322.79999999999995</ele><time>2026-03-28T15:18:12.799Z</time></trkpt><trkpt lat="40.6169617" lon="15.0155817"><ele>322.6</ele><time>2026-03-28T15:18:13.799Z</time></trkpt><trkpt lat="40.6169867" lon="15.0157333"><ele>322.4</ele><time>2026-03-28T15:18:14.799Z</time></trkpt><trkpt lat="40.617005" lon="15.0158667"><ele>322.20000000000005</ele><time>2026-03-28T15:18:15.799Z</time></trkpt><trkpt lat="40.6170167" lon="15.0159817"><ele>322.0</ele><time>2026-03-28T15:18:16.799Z</time></trkpt><trkpt lat="40.6170333" lon="15.0160767"><ele>321.66666666666663</ele><time>2026-03-28T15:18:17.8Z</time></trkpt><trkpt lat="40.6170483" lon="15.016165"><ele>321.3333333333333</ele><time>2026-03-28T15:18:18.8Z</time></trkpt><trkpt lat="40.617065" lon="15.0162533"><ele>321.0</ele><time>2026-03-28T15:18:19.799Z</time></trkpt><trkpt lat="40.61705" lon="15.0163917"><ele>320.6666666666667</ele><time>2026-03-28T15:18:21.799Z</time></trkpt><trkpt lat="40.6169683" lon="15.0164817"><ele>320.33333333333337</ele><time>2026-03-28T15:18:23.803Z</time></trkpt><trkpt lat="40.6168733" lon="15.0164967"><ele>320.0</ele><time>2026-03-28T15:18:25.801Z</time></trkpt><trkpt lat="40.61676" lon="15.0165133"><ele>320.0</ele><time>2026-03-28T15:18:27.8Z</time></trkpt><trkpt lat="40.6166933" lon="15.0165267"><ele>320.0</ele><time>2026-03-28T15:18:28.799Z</time></trkpt><trkpt lat="40.61663" lon="15.01655"><ele>320.0</ele><time>2026-03-28T15:18:29.8Z</time></trkpt><trkpt lat="40.6165483" lon="15.01658"><ele>320.0</ele><time>2026-03-28T15:18:31.799Z</time></trkpt><trkpt lat="40.616475" lon="15.0166267"><ele>320.0</ele><time>2026-03-28T15:18:33.799Z</time></trkpt><trkpt lat="40.6163967" lon="15.0166367"><ele>320.0</ele><time>2026-03-28T15:18:35.802Z</time></trkpt><trkpt lat="40.6162983" lon="15.0166117"><ele>320.0</ele><time>2026-03-28T15:18:37.801Z</time></trkpt><trkpt lat="40.61624" lon="15.0165333"><ele>320.0</ele><time>2026-03-28T15:18:39.799Z</time></trkpt><trkpt lat="40.6162033" lon="15.016375"><ele>320.0</ele><time>2026-03-28T15:18:41.799Z</time></trkpt><trkpt lat="40.616185" lon="15.0162917"><ele>320.0</ele><time>2026-03-28T15:18:42.799Z</time></trkpt><trkpt lat="40.6161617" lon="15.0161533"><ele>320.0</ele><time>2026-03-28T15:18:44.802Z</time></trkpt><trkpt lat="40.616135" lon="15.0160517"><ele>317.5</ele><time>2026-03-28T15:18:46.8Z</time></trkpt><trkpt lat="40.6160683" lon="15.0159733"><ele>315.0</ele><time>2026-03-28T15:18:48.8Z</time></trkpt><trkpt lat="40.616005" lon="15.0159217"><ele>312.5</ele><time>2026-03-28T15:18:50.799Z</time></trkpt><trkpt lat="40.6159317" lon="15.0158783"><ele>310.0</ele><time>2026-03-28T15:18:52.799Z</time></trkpt><trkpt lat="40.6158617" lon="15.0158333"><ele>307.5</ele><time>2026-03-28T15:18:54.801Z</time></trkpt><trkpt lat="40.6158067" lon="15.0157867"><ele>305.0</ele><time>2026-03-28T15:18:57.802Z</time></trkpt><trkpt lat="40.615855" lon="15.015875"><ele>305.0</ele><time>2026-03-28T15:19:09.799Z</time></trkpt><trkpt lat="40.61594" lon="15.01589"><ele>305.0</ele><time>2026-03-28T15:19:11.802Z</time></trkpt><trkpt lat="40.61604" lon="15.0159483"><ele>305.0</ele><time>2026-03-28T15:19:13.8Z</time></trkpt><trkpt lat="40.616085" lon="15.0160167"><ele>305.0</ele><time>2026-03-28T15:19:14.8Z</time></trkpt><trkpt lat="40.6161317" lon="15.016085"><ele>305.0</ele><time>2026-03-28T15:19:15.8Z</time></trkpt><trkpt lat="40.6161667" lon="15.0161683"><ele>305.0</ele><time>2026-03-28T15:19:16.799Z</time></trkpt><trkpt lat="40.6161883" lon="15.016255"><ele>307.0</ele><time>2026-03-28T15:19:17.799Z</time></trkpt><trkpt lat="40.6162083" lon="15.0163467"><ele>309.0</ele><time>2026-03-28T15:19:18.801Z</time></trkpt><trkpt lat="40.6162317" lon="15.016445"><ele>311.0</ele><time>2026-03-28T15:19:19.8Z</time></trkpt><trkpt lat="40.61625" lon="15.0165433"><ele>313.0</ele><time>2026-03-28T15:19:20.799Z</time></trkpt><trkpt lat="40.61627" lon="15.0166233"><ele>315.0</ele><time>2026-03-28T15:19:21.798Z</time></trkpt><trkpt lat="40.6163617" lon="15.0166733"><ele>317.0</ele><time>2026-03-28T15:19:23.8Z</time></trkpt><trkpt lat="40.6164567" lon="15.01666"><ele>317.6</ele><time>2026-03-28T15:19:25.799Z</time></trkpt><trkpt lat="40.6165483" lon="15.0166267"><ele>318.2</ele><time>2026-03-28T15:19:27.8Z</time></trkpt><trkpt lat="40.6166683" lon="15.0165517"><ele>318.8</ele><time>2026-03-28T15:19:29.799Z</time></trkpt><trkpt lat="40.6167383" lon="15.0165233"><ele>319.4</ele><time>2026-03-28T15:19:30.799Z</time></trkpt><trkpt lat="40.6168683" lon="15.0164967"><ele>320.0</ele><time>2026-03-28T15:19:32.799Z</time></trkpt><trkpt lat="40.6170033" lon="15.016475"><ele>320.0</ele><time>2026-03-28T15:19:34.799Z</time></trkpt><trkpt lat="40.617085" lon="15.0164267"><ele>320.0</ele><time>2026-03-28T15:19:36.8Z</time></trkpt><trkpt lat="40.6171117" lon="15.0163"><ele>320.0</ele><time>2026-03-28T15:19:38.802Z</time></trkpt><trkpt lat="40.6170783" lon="15.016115"><ele>320.0</ele><time>2026-03-28T15:19:40.8Z</time></trkpt><trkpt lat="40.6170483" lon="15.0159983"><ele>320.0</ele><time>2026-03-28T15:19:41.802Z</time></trkpt><trkpt lat="40.6170183" lon="15.01587"><ele>320.2</ele><time>2026-03-28T15:19:42.801Z</time></trkpt><trkpt lat="40.6169917" lon="15.0157483"><ele>320.4</ele><time>2026-03-28T15:19:43.801Z</time></trkpt><trkpt lat="40.6169733" lon="15.0156317"><ele>320.6</ele><time>2026-03-28T15:19:44.801Z</time></trkpt><trkpt lat="40.6169567" lon="15.0155033"><ele>320.8</ele><time>2026-03-28T15:19:45.799Z</time></trkpt><trkpt lat="40.616945" lon="15.0153917"><ele>321.0</ele><time>2026-03-28T15:19:46.8Z</time></trkpt><trkpt lat="40.6169283" lon="15.0152733"><ele>321.20000000000005</ele><time>2026-03-28T15:19:47.799Z</time></trkpt><trkpt lat="40.6169117" lon="15.0151417"><ele>321.40000000000003</ele><time>2026-03-28T15:19:48.799Z</time></trkpt><trkpt lat="40.6168983" lon="15.015015"><ele>321.6</ele><time>2026-03-28T15:19:49.799Z</time></trkpt><trkpt lat="40.61689" lon="15.0148833"><ele>321.8</ele><time>2026-03-28T15:19:50.799Z</time></trkpt><trkpt lat="40.61688" lon="15.0147467"><ele>322.0</ele><time>2026-03-28T15:19:51.799Z</time></trkpt><trkpt lat="40.6168667" lon="15.0146133"><ele>322.20000000000005</ele><time>2026-03-28T15:19:52.799Z</time></trkpt><trkpt lat="40.6168533" lon="15.01449"><ele>322.4</ele><time>2026-03-28T15:19:53.804Z</time></trkpt><trkpt lat="40.616845" lon="15.0143567"><ele>322.6</ele><time>2026-03-28T15:19:54.802Z</time></trkpt><trkpt lat="40.6168317" lon="15.01424"><ele>322.79999999999995</ele><time>2026-03-28T15:19:55.803Z</time></trkpt><trkpt lat="40.6168267" lon="15.01411"><ele>323.0</ele><time>2026-03-28T15:19:56.799Z</time></trkpt><trkpt lat="40.6168233" lon="15.01399"><ele>323.79999999999995</ele><time>2026-03-28T15:19:57.802Z</time></trkpt><trkpt lat="40.616815" lon="15.0138533"><ele>324.6</ele><time>2026-03-28T15:19:58.799Z</time></trkpt><trkpt lat="40.6168083" lon="15.01372"><ele>325.4</ele><time>2026-03-28T15:19:59.801Z</time></trkpt><trkpt lat="40.616795" lon="15.0135833"><ele>326.20000000000005</ele><time>2026-03-28T15:20:00.8Z</time></trkpt><trkpt lat="40.6167917" lon="15.0134633"><ele>327.0</ele><time>2026-03-28T15:20:01.799Z</time></trkpt><trkpt lat="40.6167833" lon="15.0133417"><ele>327.5</ele><time>2026-03-28T15:20:02.801Z</time></trkpt><trkpt lat="40.6168017" lon="15.0132267"><ele>328.0</ele><time>2026-03-28T15:20:03.799Z</time></trkpt><trkpt lat="40.6167983" lon="15.0131117"><ele>328.5</ele><time>2026-03-28T15:20:04.8Z</time></trkpt><trkpt lat="40.6168033" lon="15.0130083"><ele>329.0</ele><time>2026-03-28T15:20:05.799Z</time></trkpt><trkpt lat="40.6168083" lon="15.0129"><ele>329.5</ele><time>2026-03-28T15:20:06.804Z</time></trkpt><trkpt lat="40.6168167" lon="15.0127883"><ele>330.0</ele><time>2026-03-28T15:20:07.799Z</time></trkpt><trkpt lat="40.6168283" lon="15.012675"><ele>330.0</ele><time>2026-03-28T15:20:08.799Z</time></trkpt><trkpt lat="40.6168467" lon="15.01257"><ele>330.0</ele><time>2026-03-28T15:20:09.8Z</time></trkpt><trkpt lat="40.61687" lon="15.01247"><ele>330.0</ele><time>2026-03-28T15:20:10.799Z</time></trkpt><trkpt lat="40.616895" lon="15.012375"><ele>330.0</ele><time>2026-03-28T15:20:11.803Z</time></trkpt><trkpt lat="40.61692" lon="15.0122817"><ele>330.0</ele><time>2026-03-28T15:20:12.801Z</time></trkpt><trkpt lat="40.6169383" lon="15.0121833"><ele>330.0</ele><time>2026-03-28T15:20:13.802Z</time></trkpt><trkpt lat="40.616955" lon="15.0120817"><ele>330.2</ele><time>2026-03-28T15:20:14.802Z</time></trkpt><trkpt lat="40.61698" lon="15.0119667"><ele>330.4</ele><time>2026-03-28T15:20:15.802Z</time></trkpt><trkpt lat="40.617" lon="15.0118583"><ele>330.6</ele><time>2026-03-28T15:20:16.799Z</time></trkpt><trkpt lat="40.617015" lon="15.0117433"><ele>330.8</ele><time>2026-03-28T15:20:17.799Z</time></trkpt><trkpt lat="40.6170117" lon="15.01162"><ele>331.0</ele><time>2026-03-28T15:20:18.799Z</time></trkpt><trkpt lat="40.61701" lon="15.011485"><ele>329.4</ele><time>2026-03-28T15:20:19.8Z</time></trkpt><trkpt lat="40.6170267" lon="15.0113467"><ele>327.8</ele><time>2026-03-28T15:20:20.799Z</time></trkpt><trkpt lat="40.6170483" lon="15.0112067"><ele>326.2</ele><time>2026-03-28T15:20:21.799Z</time></trkpt><trkpt lat="40.6170483" lon="15.0110683"><ele>324.59999999999997</ele><time>2026-03-28T15:20:22.8Z</time></trkpt><trkpt lat="40.6170417" lon="15.0109333"><ele>323.0</ele><time>2026-03-28T15:20:23.8Z</time></trkpt><trkpt lat="40.617035" lon="15.0107933"><ele>321.79999999999995</ele><time>2026-03-28T15:20:24.799Z</time></trkpt><trkpt lat="40.6170317" lon="15.0106583"><ele>320.59999999999997</ele><time>2026-03-28T15:20:25.8Z</time></trkpt><trkpt lat="40.6170533" lon="15.0105167"><ele>319.4</ele><time>2026-03-28T15:20:26.802Z</time></trkpt><trkpt lat="40.6170633" lon="15.01041"><ele>318.2</ele><time>2026-03-28T15:20:27.799Z</time></trkpt><trkpt lat="40.61706" lon="15.01029"><ele>317.0</ele><time>2026-03-28T15:20:28.801Z</time></trkpt><trkpt lat="40.617055" lon="15.0101533"><ele>317.0</ele><time>2026-03-28T15:20:29.799Z</time></trkpt><trkpt lat="40.6170467" lon="15.0100133"><ele>317.0</ele><time>2026-03-28T15:20:30.801Z</time></trkpt><trkpt lat="40.6170417" lon="15.0098583"><ele>317.0</ele><time>2026-03-28T15:20:31.802Z</time></trkpt><trkpt lat="40.6170367" lon="15.00969"><ele>317.0</ele><time>2026-03-28T15:20:32.801Z</time></trkpt><trkpt lat="40.617025" lon="15.00952"><ele>317.2</ele><time>2026-03-28T15:20:33.801Z</time></trkpt><trkpt lat="40.6170167" lon="15.0093533"><ele>317.4</ele><time>2026-03-28T15:20:34.802Z</time></trkpt><trkpt lat="40.6170167" lon="15.0092067"><ele>317.6</ele><time>2026-03-28T15:20:35.801Z</time></trkpt><trkpt lat="40.617015" lon="15.0090633"><ele>317.8</ele><time>2026-03-28T15:20:36.802Z</time></trkpt><trkpt lat="40.6170117" lon="15.0089283"><ele>318.0</ele><time>2026-03-28T15:20:37.801Z</time></trkpt><trkpt lat="40.6170067" lon="15.0088033"><ele>317.1666666666667</ele><time>2026-03-28T15:20:38.801Z</time></trkpt><trkpt lat="40.6170017" lon="15.008675"><ele>316.3333333333333</ele><time>2026-03-28T15:20:39.801Z</time></trkpt><trkpt lat="40.6170017" lon="15.0085517"><ele>315.5</ele><time>2026-03-28T15:20:40.802Z</time></trkpt><trkpt lat="40.6170033" lon="15.008435"><ele>314.66666666666663</ele><time>2026-03-28T15:20:41.801Z</time></trkpt><trkpt lat="40.6170033" lon="15.0083383"><ele>313.8333333333333</ele><time>2026-03-28T15:20:42.802Z</time></trkpt><trkpt lat="40.6170033" lon="15.00825"><ele>313.0</ele><time>2026-03-28T15:20:43.801Z</time></trkpt><trkpt lat="40.6170033" lon="15.0081667"><ele>312.2</ele><time>2026-03-28T15:20:44.801Z</time></trkpt><trkpt lat="40.6169983" lon="15.0080117"><ele>311.4</ele><time>2026-03-28T15:20:46.799Z</time></trkpt><trkpt lat="40.617025" lon="15.0078617"><ele>310.59999999999997</ele><time>2026-03-28T15:20:48.8Z</time></trkpt><trkpt lat="40.6170517" lon="15.00778"><ele>309.8</ele><time>2026-03-28T15:20:49.8Z</time></trkpt><trkpt lat="40.6170833" lon="15.00768"><ele>309.0</ele><time>2026-03-28T15:20:50.798Z</time></trkpt><trkpt lat="40.6171217" lon="15.0075717"><ele>307.8</ele><time>2026-03-28T15:20:51.8Z</time></trkpt><trkpt lat="40.6171583" lon="15.0074567"><ele>306.59999999999997</ele><time>2026-03-28T15:20:52.799Z</time></trkpt><trkpt lat="40.6171983" lon="15.0073183"><ele>305.4</ele><time>2026-03-28T15:20:53.802Z</time></trkpt><trkpt lat="40.61724" lon="15.0071733"><ele>304.2</ele><time>2026-03-28T15:20:54.801Z</time></trkpt><trkpt lat="40.6172933" lon="15.0070267"><ele>303.0</ele><time>2026-03-28T15:20:55.801Z</time></trkpt><trkpt lat="40.6173417" lon="15.006885"><ele>303.0</ele><time>2026-03-28T15:20:56.801Z</time></trkpt><trkpt lat="40.6173883" lon="15.0067233"><ele>303.0</ele><time>2026-03-28T15:20:57.798Z</time></trkpt><trkpt lat="40.6174367" lon="15.00655"><ele>303.0</ele><time>2026-03-28T15:20:58.801Z</time></trkpt><trkpt lat="40.6174733" lon="15.006375"><ele>303.0</ele><time>2026-03-28T15:20:59.801Z</time></trkpt><trkpt lat="40.6175" lon="15.0062133"><ele>300.75</ele><time>2026-03-28T15:21:00.801Z</time></trkpt><trkpt lat="40.6175333" lon="15.006055"><ele>298.5</ele><time>2026-03-28T15:21:01.8Z</time></trkpt><trkpt lat="40.6175667" lon="15.0059017"><ele>296.25</ele><time>2026-03-28T15:21:02.8Z</time></trkpt><trkpt lat="40.6175967" lon="15.0057533"><ele>294.0</ele><time>2026-03-28T15:21:03.799Z</time></trkpt><trkpt lat="40.6176267" lon="15.0056067"><ele>291.8</ele><time>2026-03-28T15:21:04.8Z</time></trkpt><trkpt lat="40.6176533" lon="15.0054567"><ele>289.59999999999997</ele><time>2026-03-28T15:21:05.8Z</time></trkpt><trkpt lat="40.617685" lon="15.0053133"><ele>287.4</ele><time>2026-03-28T15:21:06.799Z</time></trkpt><trkpt lat="40.6177217" lon="15.005165"><ele>285.2</ele><time>2026-03-28T15:21:07.798Z</time></trkpt><trkpt lat="40.6177483" lon="15.0050467"><ele>283.0</ele><time>2026-03-28T15:21:08.799Z</time></trkpt><trkpt lat="40.6177767" lon="15.0049283"><ele>283.4</ele><time>2026-03-28T15:21:09.799Z</time></trkpt><trkpt lat="40.6178033" lon="15.0048017"><ele>283.8</ele><time>2026-03-28T15:21:10.8Z</time></trkpt><trkpt lat="40.617835" lon="15.0046733"><ele>284.2</ele><time>2026-03-28T15:21:11.8Z</time></trkpt><trkpt lat="40.6178683" lon="15.0045533"><ele>284.6</ele><time>2026-03-28T15:21:12.8Z</time></trkpt><trkpt lat="40.6178967" lon="15.00443"><ele>285.0</ele><time>2026-03-28T15:21:13.799Z</time></trkpt><trkpt lat="40.6179267" lon="15.00431"><ele>285.0</ele><time>2026-03-28T15:21:14.799Z</time></trkpt><trkpt lat="40.61796" lon="15.0041933"><ele>285.0</ele><time>2026-03-28T15:21:15.799Z</time></trkpt><trkpt lat="40.61799" lon="15.0040717"><ele>285.0</ele><time>2026-03-28T15:21:16.8Z</time></trkpt><trkpt lat="40.6180183" lon="15.003955"><ele>285.0</ele><time>2026-03-28T15:21:17.799Z</time></trkpt><trkpt lat="40.6180467" lon="15.00384"><ele>285.0</ele><time>2026-03-28T15:21:18.799Z</time></trkpt><trkpt lat="40.6180767" lon="15.0037217"><ele>283.4</ele><time>2026-03-28T15:21:19.799Z</time></trkpt><trkpt lat="40.6181017" lon="15.0035967"><ele>281.8</ele><time>2026-03-28T15:21:20.799Z</time></trkpt><trkpt lat="40.61814" lon="15.0034783"><ele>280.2</ele><time>2026-03-28T15:21:21.799Z</time></trkpt><trkpt lat="40.6181767" lon="15.003355"><ele>278.6</ele><time>2026-03-28T15:21:22.799Z</time></trkpt><trkpt lat="40.6182183" lon="15.0032383"><ele>277.0</ele><time>2026-03-28T15:21:23.803Z</time></trkpt><trkpt lat="40.6182567" lon="15.0031217"><ele>275.16666666666663</ele><time>2026-03-28T15:21:24.802Z</time></trkpt><trkpt lat="40.6182967" lon="15.0029983"><ele>273.3333333333333</ele><time>2026-03-28T15:21:25.801Z</time></trkpt><trkpt lat="40.6183233" lon="15.002885"><ele>271.5</ele><time>2026-03-28T15:21:26.801Z</time></trkpt><trkpt lat="40.618345" lon="15.0027767"><ele>269.6666666666667</ele><time>2026-03-28T15:21:27.801Z</time></trkpt><trkpt lat="40.6183683" lon="15.00268"><ele>267.83333333333337</ele><time>2026-03-28T15:21:28.801Z</time></trkpt><trkpt lat="40.618385" lon="15.0026"><ele>266.0</ele><time>2026-03-28T15:21:29.806Z</time></trkpt><trkpt lat="40.6184217" lon="15.0024517"><ele>264.2</ele><time>2026-03-28T15:21:31.8Z</time></trkpt><trkpt lat="40.61844" lon="15.00231"><ele>262.40000000000003</ele><time>2026-03-28T15:21:33.798Z</time></trkpt><trkpt lat="40.6184783" lon="15.002195"><ele>260.6</ele><time>2026-03-28T15:21:35.799Z</time></trkpt><trkpt lat="40.6185183" lon="15.0020917"><ele>258.8</ele><time>2026-03-28T15:21:37.799Z</time></trkpt><trkpt lat="40.6185483" lon="15.0019467"><ele>257.0</ele><time>2026-03-28T15:21:39.8Z</time></trkpt><trkpt lat="40.61858" lon="15.001805"><ele>257.0</ele><time>2026-03-28T15:21:41.802Z</time></trkpt><trkpt lat="40.6185917" lon="15.0016533"><ele>257.0</ele><time>2026-03-28T15:21:43.802Z</time></trkpt><trkpt lat="40.61856" lon="15.001565"><ele>257.0</ele><time>2026-03-28T15:21:46.799Z</time></trkpt><trkpt lat="40.6184767" lon="15.0015717"><ele>257.0</ele><time>2026-03-28T15:21:48.799Z</time></trkpt><trkpt lat="40.6184033" lon="15.0015967"><ele>257.0</ele><time>2026-03-28T15:21:50.8Z</time></trkpt><trkpt lat="40.6183267" lon="15.0016433"><ele>257.0</ele><time>2026-03-28T15:21:52.799Z</time></trkpt><trkpt lat="40.61826" lon="15.0017567"><ele>257.0</ele><time>2026-03-28T15:21:54.8Z</time></trkpt><trkpt lat="40.6181933" lon="15.0018933"><ele>257.0</ele><time>2026-03-28T15:21:56.8Z</time></trkpt><trkpt lat="40.6181483" lon="15.0019767"><ele>257.0</ele><time>2026-03-28T15:21:57.799Z</time></trkpt><trkpt lat="40.618105" lon="15.0020617"><ele>257.0</ele><time>2026-03-28T15:21:58.799Z</time></trkpt><trkpt lat="40.618055" lon="15.00216"><ele>257.0</ele><time>2026-03-28T15:21:59.799Z</time></trkpt><trkpt lat="40.61799" lon="15.0023"><ele>257.0</ele><time>2026-03-28T15:22:00.799Z</time></trkpt><trkpt lat="40.6179283" lon="15.0024617"><ele>257.0</ele><time>2026-03-28T15:22:01.799Z</time></trkpt><trkpt lat="40.61788" lon="15.0025883"><ele>257.0</ele><time>2026-03-28T15:22:02.799Z</time></trkpt><trkpt lat="40.6178333" lon="15.0027"><ele>257.0</ele><time>2026-03-28T15:22:03.8Z</time></trkpt><trkpt lat="40.61778" lon="15.0028183"><ele>257.0</ele><time>2026-03-28T15:22:04.8Z</time></trkpt><trkpt lat="40.6177367" lon="15.002915"><ele>257.5</ele><time>2026-03-28T15:22:05.799Z</time></trkpt><trkpt lat="40.6176983" lon="15.0029883"><ele>258.0</ele><time>2026-03-28T15:22:06.799Z</time></trkpt><trkpt lat="40.6176483" lon="15.0030667"><ele>258.5</ele><time>2026-03-28T15:22:07.799Z</time></trkpt><trkpt lat="40.6175983" lon="15.0031383"><ele>259.0</ele><time>2026-03-28T15:22:08.8Z</time></trkpt><trkpt lat="40.61753" lon="15.0032283"><ele>259.5</ele><time>2026-03-28T15:22:09.799Z</time></trkpt><trkpt lat="40.6174483" lon="15.0033283"><ele>260.0</ele><time>2026-03-28T15:22:10.799Z</time></trkpt><trkpt lat="40.6173683" lon="15.0034617"><ele>260.0</ele><time>2026-03-28T15:22:11.799Z</time></trkpt><trkpt lat="40.61728" lon="15.0036017"><ele>260.0</ele><time>2026-03-28T15:22:12.799Z</time></trkpt><trkpt lat="40.6171933" lon="15.0037667"><ele>260.0</ele><time>2026-03-28T15:22:13.798Z</time></trkpt><trkpt lat="40.6171167" lon="15.003925"><ele>260.0</ele><time>2026-03-28T15:22:14.801Z</time></trkpt><trkpt lat="40.6170467" lon="15.00408"><ele>255.75</ele><time>2026-03-28T15:22:15.8Z</time></trkpt><trkpt lat="40.61698" lon="15.0042067"><ele>251.5</ele><time>2026-03-28T15:22:16.799Z</time></trkpt><trkpt lat="40.6169167" lon="15.0043383"><ele>247.25</ele><time>2026-03-28T15:22:17.799Z</time></trkpt><trkpt lat="40.6168617" lon="15.004485"><ele>243.0</ele><time>2026-03-28T15:22:18.801Z</time></trkpt><trkpt lat="40.6167983" lon="15.0046317"><ele>243.0</ele><time>2026-03-28T15:22:19.799Z</time></trkpt><trkpt lat="40.61673" lon="15.004765"><ele>243.0</ele><time>2026-03-28T15:22:20.801Z</time></trkpt><trkpt lat="40.61665" lon="15.0049083"><ele>243.0</ele><time>2026-03-28T15:22:21.799Z</time></trkpt><trkpt lat="40.616585" lon="15.0050417"><ele>243.0</ele><time>2026-03-28T15:22:22.8Z</time></trkpt><trkpt lat="40.616535" lon="15.00516"><ele>244.83333333333334</ele><time>2026-03-28T15:22:23.799Z</time></trkpt><trkpt lat="40.616495" lon="15.0052733"><ele>246.66666666666669</ele><time>2026-03-28T15:22:24.802Z</time></trkpt><trkpt lat="40.61646" lon="15.005365"><ele>248.5</ele><time>2026-03-28T15:22:25.801Z</time></trkpt><trkpt lat="40.6164283" lon="15.0054483"><ele>250.33333333333334</ele><time>2026-03-28T15:22:26.801Z</time></trkpt><trkpt lat="40.6163933" lon="15.0055317"><ele>252.16666666666669</ele><time>2026-03-28T15:22:27.799Z</time></trkpt><trkpt lat="40.61636" lon="15.00567"><ele>254.0</ele><time>2026-03-28T15:22:29.802Z</time></trkpt><trkpt lat="40.61629" lon="15.005745"><ele>254.0</ele><time>2026-03-28T15:22:31.799Z</time></trkpt><trkpt lat="40.61621" lon="15.0056483"><ele>253.99999999999997</ele><time>2026-03-28T15:22:33.799Z</time></trkpt><trkpt lat="40.61619" lon="15.0055533"><ele>253.99999999999997</ele><time>2026-03-28T15:22:34.8Z</time></trkpt><trkpt lat="40.6162033" lon="15.0054317"><ele>254.0</ele><time>2026-03-28T15:22:35.802Z</time></trkpt><trkpt lat="40.6162233" lon="15.0052883"><ele>254.0</ele><time>2026-03-28T15:22:36.799Z</time></trkpt><trkpt lat="40.616245" lon="15.0051333"><ele>251.25</ele><time>2026-03-28T15:22:37.799Z</time></trkpt><trkpt lat="40.61626" lon="15.00498"><ele>248.5</ele><time>2026-03-28T15:22:38.801Z</time></trkpt><trkpt lat="40.61628" lon="15.00482"><ele>245.75</ele><time>2026-03-28T15:22:39.8Z</time></trkpt><trkpt lat="40.6163" lon="15.0046633"><ele>243.0</ele><time>2026-03-28T15:22:40.802Z</time></trkpt><trkpt lat="40.6163117" lon="15.0045133"><ele>243.0</ele><time>2026-03-28T15:22:41.799Z</time></trkpt><trkpt lat="40.61633" lon="15.004385"><ele>243.0</ele><time>2026-03-28T15:22:42.799Z</time></trkpt><trkpt lat="40.616345" lon="15.0042467"><ele>243.0</ele><time>2026-03-28T15:22:43.802Z</time></trkpt><trkpt lat="40.616365" lon="15.00411"><ele>243.0</ele><time>2026-03-28T15:22:44.799Z</time></trkpt><trkpt lat="40.6163883" lon="15.00397"><ele>243.0</ele><time>2026-03-28T15:22:45.802Z</time></trkpt><trkpt lat="40.6164067" lon="15.00382"><ele>241.4</ele><time>2026-03-28T15:22:46.799Z</time></trkpt><trkpt lat="40.616425" lon="15.0036733"><ele>239.8</ele><time>2026-03-28T15:22:47.799Z</time></trkpt><trkpt lat="40.6164417" lon="15.00353"><ele>238.2</ele><time>2026-03-28T15:22:48.799Z</time></trkpt><trkpt lat="40.616455" lon="15.0033867"><ele>236.6</ele><time>2026-03-28T15:22:49.799Z</time></trkpt><trkpt lat="40.6164633" lon="15.00325"><ele>235.0</ele><time>2026-03-28T15:22:50.8Z</time></trkpt><trkpt lat="40.6164767" lon="15.0031267"><ele>233.66666666666666</ele><time>2026-03-28T15:22:51.799Z</time></trkpt><trkpt lat="40.6164967" lon="15.0030167"><ele>232.33333333333331</ele><time>2026-03-28T15:22:52.801Z</time></trkpt><trkpt lat="40.6165133" lon="15.0028967"><ele>231.0</ele><time>2026-03-28T15:22:53.802Z</time></trkpt><trkpt lat="40.61652" lon="15.0028"><ele>229.66666666666669</ele><time>2026-03-28T15:22:54.802Z</time></trkpt><trkpt lat="40.61653" lon="15.00271"><ele>228.33333333333334</ele><time>2026-03-28T15:22:55.803Z</time></trkpt><trkpt lat="40.61655" lon="15.0025817"><ele>227.0</ele><time>2026-03-28T15:22:57.802Z</time></trkpt><trkpt lat="40.6165017" lon="15.00249"><ele>225.2</ele><time>2026-03-28T15:23:00.799Z</time></trkpt><trkpt lat="40.6164283" lon="15.0024667"><ele>223.39999999999998</ele><time>2026-03-28T15:23:02.801Z</time></trkpt><trkpt lat="40.6163317" lon="15.0024483"><ele>221.60000000000002</ele><time>2026-03-28T15:23:04.8Z</time></trkpt><trkpt lat="40.61621" lon="15.0024183"><ele>219.8</ele><time>2026-03-28T15:23:06.798Z</time></trkpt><trkpt lat="40.6161467" lon="15.002405"><ele>218.0</ele><time>2026-03-28T15:23:07.799Z</time></trkpt><trkpt lat="40.6160217" lon="15.002355"><ele>217.60000000000002</ele><time>2026-03-28T15:23:09.799Z</time></trkpt><trkpt lat="40.6159467" lon="15.0023267"><ele>217.20000000000002</ele><time>2026-03-28T15:23:10.802Z</time></trkpt><trkpt lat="40.6158583" lon="15.0022883"><ele>216.8</ele><time>2026-03-28T15:23:11.801Z</time></trkpt><trkpt lat="40.6157767" lon="15.0022483"><ele>216.4</ele><time>2026-03-28T15:23:12.801Z</time></trkpt><trkpt lat="40.6156783" lon="15.002195"><ele>216.0</ele><time>2026-03-28T15:23:13.801Z</time></trkpt><trkpt lat="40.6155883" lon="15.00214"><ele>216.0</ele><time>2026-03-28T15:23:14.8Z</time></trkpt><trkpt lat="40.615515" lon="15.002095"><ele>216.0</ele><time>2026-03-28T15:23:15.801Z</time></trkpt><trkpt lat="40.6154533" lon="15.0020583"><ele>216.0</ele><time>2026-03-28T15:23:16.8Z</time></trkpt><trkpt lat="40.6153433" lon="15.0019883"><ele>216.0</ele><time>2026-03-28T15:23:18.799Z</time></trkpt><trkpt lat="40.6152683" lon="15.0019017"><ele>216.0</ele><time>2026-03-28T15:23:20.799Z</time></trkpt><trkpt lat="40.6152633" lon="15.0018133"><ele>216.0</ele><time>2026-03-28T15:23:21.8Z</time></trkpt><trkpt lat="40.6152833" lon="15.001695"><ele>215.75</ele><time>2026-03-28T15:23:22.8Z</time></trkpt><trkpt lat="40.6153033" lon="15.0015483"><ele>215.5</ele><time>2026-03-28T15:23:23.799Z</time></trkpt><trkpt lat="40.6153633" lon="15.0013717"><ele>215.25</ele><time>2026-03-28T15:23:24.801Z</time></trkpt><trkpt lat="40.6154" lon="15.0011867"><ele>215.0</ele><time>2026-03-28T15:23:25.801Z</time></trkpt><trkpt lat="40.6154433" lon="15.0009883"><ele>214.0</ele><time>2026-03-28T15:23:26.798Z</time></trkpt><trkpt lat="40.6154767" lon="15.0007967"><ele>213.0</ele><time>2026-03-28T15:23:27.801Z</time></trkpt><trkpt lat="40.61551" lon="15.0006433"><ele>212.0</ele><time>2026-03-28T15:23:28.801Z</time></trkpt><trkpt lat="40.61554" lon="15.000495"><ele>211.0</ele><time>2026-03-28T15:23:29.801Z</time></trkpt><trkpt lat="40.6155717" lon="15.0003467"><ele>211.0</ele><time>2026-03-28T15:23:30.802Z</time></trkpt><trkpt lat="40.6156" lon="15.0002033"><ele>211.0</ele><time>2026-03-28T15:23:31.799Z</time></trkpt><trkpt lat="40.6156217" lon="15.00006"><ele>211.0</ele><time>2026-03-28T15:23:32.8Z</time></trkpt><trkpt lat="40.6156383" lon="14.99994"><ele>211.0</ele><time>2026-03-28T15:23:33.799Z</time></trkpt><trkpt lat="40.615665" lon="14.9998383"><ele>211.0</ele><time>2026-03-28T15:23:34.799Z</time></trkpt><trkpt lat="40.6156867" lon="14.9997417"><ele>210.99999999999997</ele><time>2026-03-28T15:23:35.802Z</time></trkpt><trkpt lat="40.6157017" lon="14.9996467"><ele>211.0</ele><time>2026-03-28T15:23:36.8Z</time></trkpt><trkpt lat="40.6156967" lon="14.9994933"><ele>211.0</ele><time>2026-03-28T15:23:38.799Z</time></trkpt><trkpt lat="40.61564" lon="14.9994017"><ele>211.0</ele><time>2026-03-28T15:23:40.799Z</time></trkpt><trkpt lat="40.6155783" lon="14.9993833"><ele>210.99999999999997</ele><time>2026-03-28T15:23:41.802Z</time></trkpt><trkpt lat="40.6154867" lon="14.99938"><ele>211.0</ele><time>2026-03-28T15:23:42.803Z</time></trkpt><trkpt lat="40.615395" lon="14.9993867"><ele>210.99999999999997</ele><time>2026-03-28T15:23:43.801Z</time></trkpt><trkpt lat="40.6153233" lon="14.9993983"><ele>211.0</ele><time>2026-03-28T15:23:44.8Z</time></trkpt><trkpt lat="40.6152583" lon="14.9994"><ele>211.0</ele><time>2026-03-28T15:23:45.798Z</time></trkpt><trkpt lat="40.61516" lon="14.99936"><ele>211.0</ele><time>2026-03-28T15:23:47.799Z</time></trkpt><trkpt lat="40.6150767" lon="14.9993667"><ele>210.99999999999997</ele><time>2026-03-28T15:23:49.799Z</time></trkpt><trkpt lat="40.615005" lon="14.9994083"><ele>211.0</ele><time>2026-03-28T15:23:51.8Z</time></trkpt><trkpt lat="40.6149533" lon="14.9994883"><ele>212.0</ele><time>2026-03-28T15:23:54.801Z</time></trkpt><trkpt lat="40.6148933" lon="14.9995817"><ele>213.0</ele><time>2026-03-28T15:23:56.799Z</time></trkpt><trkpt lat="40.61484" lon="14.9996667"><ele>214.00000000000003</ele><time>2026-03-28T15:23:58.802Z</time></trkpt><trkpt lat="40.61478" lon="14.999755"><ele>215.0</ele><time>2026-03-28T15:24:00.801Z</time></trkpt><trkpt lat="40.61471" lon="14.9998533"><ele>216.0</ele><time>2026-03-28T15:24:02.799Z</time></trkpt><trkpt lat="40.6146317" lon="14.99997"><ele>216.0</ele><time>2026-03-28T15:24:04.799Z</time></trkpt><trkpt lat="40.614555" lon="15.0000833"><ele>216.00000000000003</ele><time>2026-03-28T15:24:06.801Z</time></trkpt><trkpt lat="40.6144883" lon="15.0001967"><ele>216.00000000000003</ele><time>2026-03-28T15:24:08.799Z</time></trkpt><trkpt lat="40.61445" lon="15.00027"><ele>216.0</ele><time>2026-03-28T15:24:09.799Z</time></trkpt><trkpt lat="40.6144083" lon="15.0003383"><ele>216.0</ele><time>2026-03-28T15:24:10.799Z</time></trkpt><trkpt lat="40.6143383" lon="15.0004567"><ele>213.0</ele><time>2026-03-28T15:24:12.799Z</time></trkpt><trkpt lat="40.6142617" lon="15.0005917"><ele>210.00000000000003</ele><time>2026-03-28T15:24:14.8Z</time></trkpt><trkpt lat="40.6142317" lon="15.0006833"><ele>207.0</ele><time>2026-03-28T15:24:15.802Z</time></trkpt><trkpt lat="40.61419" lon="15.00077"><ele>204.0</ele><time>2026-03-28T15:24:16.799Z</time></trkpt><trkpt lat="40.6141467" lon="15.0008567"><ele>201.0</ele><time>2026-03-28T15:24:17.8Z</time></trkpt><trkpt lat="40.614085" lon="15.0009633"><ele>201.0</ele><time>2026-03-28T15:24:18.799Z</time></trkpt><trkpt lat="40.6140417" lon="15.0010617"><ele>201.0</ele><time>2026-03-28T15:24:19.799Z</time></trkpt><trkpt lat="40.61401" lon="15.0011467"><ele>201.0</ele><time>2026-03-28T15:24:20.799Z</time></trkpt><trkpt lat="40.6139733" lon="15.0012267"><ele>201.0</ele><time>2026-03-28T15:24:21.799Z</time></trkpt><trkpt lat="40.6139333" lon="15.0013083"><ele>201.0</ele><time>2026-03-28T15:24:22.798Z</time></trkpt><trkpt lat="40.613885" lon="15.0013983"><ele>201.0</ele><time>2026-03-28T15:24:23.799Z</time></trkpt><trkpt lat="40.6138317" lon="15.0014883"><ele>201.0</ele><time>2026-03-28T15:24:24.799Z</time></trkpt><trkpt lat="40.61378" lon="15.0015767"><ele>201.0</ele><time>2026-03-28T15:24:25.799Z</time></trkpt><trkpt lat="40.61373" lon="15.0016733"><ele>201.0</ele><time>2026-03-28T15:24:26.801Z</time></trkpt><trkpt lat="40.6137067" lon="15.001765"><ele>201.0</ele><time>2026-03-28T15:24:27.799Z</time></trkpt><trkpt lat="40.6136817" lon="15.00186"><ele>201.0</ele><time>2026-03-28T15:24:28.801Z</time></trkpt><trkpt lat="40.61366" lon="15.00196"><ele>201.0</ele><time>2026-03-28T15:24:29.799Z</time></trkpt><trkpt lat="40.6136317" lon="15.0020683"><ele>196.4</ele><time>2026-03-28T15:24:30.8Z</time></trkpt><trkpt lat="40.6135917" lon="15.0021817"><ele>191.8</ele><time>2026-03-28T15:24:31.799Z</time></trkpt><trkpt lat="40.61355" lon="15.0023"><ele>187.20000000000002</ele><time>2026-03-28T15:24:32.799Z</time></trkpt><trkpt lat="40.6135117" lon="15.002415"><ele>182.60000000000002</ele><time>2026-03-28T15:24:33.799Z</time></trkpt><trkpt lat="40.613465" lon="15.0025483"><ele>178.0</ele><time>2026-03-28T15:24:34.801Z</time></trkpt><trkpt lat="40.6134183" lon="15.00267"><ele>178.0</ele><time>2026-03-28T15:24:35.799Z</time></trkpt><trkpt lat="40.613365" lon="15.0027867"><ele>178.0</ele><time>2026-03-28T15:24:36.799Z</time></trkpt><trkpt lat="40.6133217" lon="15.002885"><ele>178.0</ele><time>2026-03-28T15:24:37.801Z</time></trkpt><trkpt lat="40.613285" lon="15.0030167"><ele>178.0</ele><time>2026-03-28T15:24:39.798Z</time></trkpt><trkpt lat="40.6132433" lon="15.0031583"><ele>178.0</ele><time>2026-03-28T15:24:41.799Z</time></trkpt><trkpt lat="40.6132217" lon="15.0032617"><ele>178.5</ele><time>2026-03-28T15:24:42.8Z</time></trkpt><trkpt lat="40.6131967" lon="15.0033967"><ele>179.0</ele><time>2026-03-28T15:24:43.8Z</time></trkpt><trkpt lat="40.6131383" lon="15.00358"><ele>179.5</ele><time>2026-03-28T15:24:44.8Z</time></trkpt><trkpt lat="40.61308" lon="15.003715"><ele>180.0</ele><time>2026-03-28T15:24:45.799Z</time></trkpt><trkpt lat="40.6130317" lon="15.00386"><ele>180.0</ele><time>2026-03-28T15:24:46.801Z</time></trkpt><trkpt lat="40.6129917" lon="15.003975"><ele>180.0</ele><time>2026-03-28T15:24:47.799Z</time></trkpt><trkpt lat="40.6129617" lon="15.00408"><ele>180.0</ele><time>2026-03-28T15:24:48.799Z</time></trkpt><trkpt lat="40.6129333" lon="15.0041783"><ele>180.0</ele><time>2026-03-28T15:24:49.802Z</time></trkpt><trkpt lat="40.6129" lon="15.00426"><ele>180.0</ele><time>2026-03-28T15:24:50.799Z</time></trkpt><trkpt lat="40.61287" lon="15.0043483"><ele>180.0</ele><time>2026-03-28T15:24:51.799Z</time></trkpt><trkpt lat="40.61284" lon="15.004445"><ele>175.8</ele><time>2026-03-28T15:24:52.801Z</time></trkpt><trkpt lat="40.6128183" lon="15.0045333"><ele>171.6</ele><time>2026-03-28T15:24:53.801Z</time></trkpt><trkpt lat="40.6128017" lon="15.0046183"><ele>167.4</ele><time>2026-03-28T15:24:54.801Z</time></trkpt><trkpt lat="40.6127633" lon="15.004775"><ele>163.2</ele><time>2026-03-28T15:24:56.801Z</time></trkpt><trkpt lat="40.6127333" lon="15.0049117"><ele>159.0</ele><time>2026-03-28T15:24:58.801Z</time></trkpt><trkpt lat="40.6126983" lon="15.0050217"><ele>158.8</ele><time>2026-03-28T15:25:00.802Z</time></trkpt><trkpt lat="40.6126783" lon="15.0051017"><ele>158.60000000000002</ele><time>2026-03-28T15:25:02.8Z</time></trkpt><trkpt lat="40.6126583" lon="15.0052433"><ele>158.4</ele><time>2026-03-28T15:25:54.799Z</time></trkpt><trkpt lat="40.6126367" lon="15.0054367"><ele>158.20000000000002</ele><time>2026-03-28T15:25:56.799Z</time></trkpt><trkpt lat="40.6126167" lon="15.00557"><ele>158.0</ele><time>2026-03-28T15:25:57.799Z</time></trkpt><trkpt lat="40.612605" lon="15.00572"><ele>157.66666666666666</ele><time>2026-03-28T15:25:58.799Z</time></trkpt><trkpt lat="40.6125917" lon="15.0058533"><ele>157.33333333333331</ele><time>2026-03-28T15:25:59.799Z</time></trkpt><trkpt lat="40.612585" lon="15.0059733"><ele>157.0</ele><time>2026-03-28T15:26:00.801Z</time></trkpt><trkpt lat="40.6125717" lon="15.0060583"><ele>156.66666666666666</ele><time>2026-03-28T15:26:01.799Z</time></trkpt><trkpt lat="40.6125583" lon="15.0061583"><ele>156.33333333333334</ele><time>2026-03-28T15:26:02.799Z</time></trkpt><trkpt lat="40.61254" lon="15.0062583"><ele>156.0</ele><time>2026-03-28T15:26:03.801Z</time></trkpt><trkpt lat="40.6125017" lon="15.0063567"><ele>156.0</ele><time>2026-03-28T15:26:04.799Z</time></trkpt><trkpt lat="40.6124683" lon="15.00646"><ele>156.0</ele><time>2026-03-28T15:26:05.799Z</time></trkpt><trkpt lat="40.61244" lon="15.0065517"><ele>156.0</ele><time>2026-03-28T15:26:06.799Z</time></trkpt><trkpt lat="40.61241" lon="15.0066433"><ele>156.0</ele><time>2026-03-28T15:26:07.8Z</time></trkpt><trkpt lat="40.6123733" lon="15.0067417"><ele>156.0</ele><time>2026-03-28T15:26:08.798Z</time></trkpt><trkpt lat="40.6123517" lon="15.0068333"><ele>156.0</ele><time>2026-03-28T15:26:09.799Z</time></trkpt><trkpt lat="40.6123367" lon="15.0069533"><ele>156.25</ele><time>2026-03-28T15:26:10.8Z</time></trkpt><trkpt lat="40.6123167" lon="15.0070867"><ele>156.5</ele><time>2026-03-28T15:26:11.8Z</time></trkpt><trkpt lat="40.6122917" lon="15.007235"><ele>156.75</ele><time>2026-03-28T15:26:12.799Z</time></trkpt><trkpt lat="40.61226" lon="15.0074033"><ele>157.0</ele><time>2026-03-28T15:26:13.801Z</time></trkpt><trkpt lat="40.612205" lon="15.007575"><ele>157.25</ele><time>2026-03-28T15:26:14.799Z</time></trkpt><trkpt lat="40.6121567" lon="15.0077467"><ele>157.5</ele><time>2026-03-28T15:26:15.798Z</time></trkpt><trkpt lat="40.61211" lon="15.0079017"><ele>157.75</ele><time>2026-03-28T15:26:16.799Z</time></trkpt><trkpt lat="40.6120683" lon="15.0080533"><ele>158.0</ele><time>2026-03-28T15:26:17.799Z</time></trkpt><trkpt lat="40.61203" lon="15.0081983"><ele>159.25</ele><time>2026-03-28T15:26:18.799Z</time></trkpt><trkpt lat="40.6119917" lon="15.00834"><ele>160.5</ele><time>2026-03-28T15:26:19.798Z</time></trkpt><trkpt lat="40.6119583" lon="15.0085017"><ele>161.75</ele><time>2026-03-28T15:26:20.799Z</time></trkpt><trkpt lat="40.611915" lon="15.0086683"><ele>163.0</ele><time>2026-03-28T15:26:21.799Z</time></trkpt><trkpt lat="40.6118717" lon="15.0088383"><ele>157.75</ele><time>2026-03-28T15:26:22.799Z</time></trkpt><trkpt lat="40.6118283" lon="15.00901"><ele>152.5</ele><time>2026-03-28T15:26:23.8Z</time></trkpt><trkpt lat="40.6117833" lon="15.0091767"><ele>147.25</ele><time>2026-03-28T15:26:24.801Z</time></trkpt><trkpt lat="40.6117467" lon="15.009335"><ele>142.0</ele><time>2026-03-28T15:26:25.802Z</time></trkpt><trkpt lat="40.6117117" lon="15.0094933"><ele>141.79999999999998</ele><time>2026-03-28T15:26:26.801Z</time></trkpt><trkpt lat="40.611665" lon="15.009625"><ele>141.6</ele><time>2026-03-28T15:26:27.799Z</time></trkpt><trkpt lat="40.61163" lon="15.009745"><ele>141.39999999999998</ele><time>2026-03-28T15:26:28.802Z</time></trkpt><trkpt lat="40.6115983" lon="15.0098583"><ele>141.2</ele><time>2026-03-28T15:26:29.802Z</time></trkpt><trkpt lat="40.6115667" lon="15.009965"><ele>141.0</ele><time>2026-03-28T15:26:30.8Z</time></trkpt><trkpt lat="40.61154" lon="15.0100667"><ele>141.6</ele><time>2026-03-28T15:26:31.799Z</time></trkpt><trkpt lat="40.6115083" lon="15.01019"><ele>142.2</ele><time>2026-03-28T15:26:32.8Z</time></trkpt><trkpt lat="40.6114883" lon="15.0103217"><ele>142.8</ele><time>2026-03-28T15:26:33.799Z</time></trkpt><trkpt lat="40.61147" lon="15.010445"><ele>143.4</ele><time>2026-03-28T15:26:34.799Z</time></trkpt><trkpt lat="40.6114667" lon="15.0105967"><ele>144.0</ele><time>2026-03-28T15:26:35.799Z</time></trkpt><trkpt lat="40.6114583" lon="15.0107517"><ele>144.2</ele><time>2026-03-28T15:26:36.8Z</time></trkpt><trkpt lat="40.6114533" lon="15.0109067"><ele>144.4</ele><time>2026-03-28T15:26:37.799Z</time></trkpt><trkpt lat="40.61144" lon="15.01105"><ele>144.6</ele><time>2026-03-28T15:26:38.8Z</time></trkpt><trkpt lat="40.6114317" lon="15.01118"><ele>144.8</ele><time>2026-03-28T15:26:39.799Z</time></trkpt><trkpt lat="40.6114167" lon="15.0113183"><ele>145.0</ele><time>2026-03-28T15:26:40.799Z</time></trkpt><trkpt lat="40.611405" lon="15.0114583"><ele>145.0</ele><time>2026-03-28T15:26:41.799Z</time></trkpt><trkpt lat="40.6114067" lon="15.01158"><ele>145.0</ele><time>2026-03-28T15:26:42.801Z</time></trkpt><trkpt lat="40.6114" lon="15.011695"><ele>145.0</ele><time>2026-03-28T15:26:43.801Z</time></trkpt><trkpt lat="40.6113967" lon="15.0118067"><ele>145.0</ele><time>2026-03-28T15:26:44.801Z</time></trkpt><trkpt lat="40.6113833" lon="15.0119117"><ele>145.0</ele><time>2026-03-28T15:26:45.799Z</time></trkpt><trkpt lat="40.611375" lon="15.0120283"><ele>145.0</ele><time>2026-03-28T15:26:46.8Z</time></trkpt><trkpt lat="40.6113567" lon="15.0121783"><ele>144.66666666666669</ele><time>2026-03-28T15:26:47.799Z</time></trkpt><trkpt lat="40.611335" lon="15.0123617"><ele>144.33333333333334</ele><time>2026-03-28T15:26:48.799Z</time></trkpt><trkpt lat="40.6113033" lon="15.012555"><ele>144.0</ele><time>2026-03-28T15:26:49.8Z</time></trkpt><trkpt lat="40.6112667" lon="15.01276"><ele>143.0</ele><time>2026-03-28T15:26:50.799Z</time></trkpt><trkpt lat="40.6112217" lon="15.0129583"><ele>142.0</ele><time>2026-03-28T15:26:51.799Z</time></trkpt><trkpt lat="40.611175" lon="15.0131517"><ele>141.0</ele><time>2026-03-28T15:26:52.798Z</time></trkpt><trkpt lat="40.6111367" lon="15.0133367"><ele>141.0</ele><time>2026-03-28T15:26:53.799Z</time></trkpt><trkpt lat="40.6111017" lon="15.013525"><ele>141.0</ele><time>2026-03-28T15:26:54.801Z</time></trkpt><trkpt lat="40.61107" lon="15.013705"><ele>141.0</ele><time>2026-03-28T15:26:55.799Z</time></trkpt><trkpt lat="40.6110317" lon="15.0138717"><ele>141.0</ele><time>2026-03-28T15:26:56.799Z</time></trkpt><trkpt lat="40.61099" lon="15.0140367"><ele>141.0</ele><time>2026-03-28T15:26:57.799Z</time></trkpt><trkpt lat="40.61095" lon="15.01419"><ele>141.0</ele><time>2026-03-28T15:26:58.799Z</time></trkpt><trkpt lat="40.6108867" lon="15.01435"><ele>141.0</ele><time>2026-03-28T15:26:59.8Z</time></trkpt><trkpt lat="40.6108383" lon="15.0144917"><ele>141.0</ele><time>2026-03-28T15:27:00.799Z</time></trkpt><trkpt lat="40.6108067" lon="15.0145917"><ele>141.0</ele><time>2026-03-28T15:27:01.799Z</time></trkpt><trkpt lat="40.6107783" lon="15.0146867"><ele>141.0</ele><time>2026-03-28T15:27:02.8Z</time></trkpt><trkpt lat="40.6107183" lon="15.0148983"><ele>141.0</ele><time>2026-03-28T15:27:04.802Z</time></trkpt><trkpt lat="40.6106817" lon="15.0150383"><ele>141.0</ele><time>2026-03-28T15:27:05.8Z</time></trkpt><trkpt lat="40.61065" lon="15.0151617"><ele>141.0</ele><time>2026-03-28T15:27:06.799Z</time></trkpt><trkpt lat="40.61061" lon="15.01531"><ele>141.0</ele><time>2026-03-28T15:27:07.8Z</time></trkpt><trkpt lat="40.610565" lon="15.0154583"><ele>141.0</ele><time>2026-03-28T15:27:08.8Z</time></trkpt><trkpt lat="40.610525" lon="15.0155933"><ele>141.0</ele><time>2026-03-28T15:27:09.799Z</time></trkpt><trkpt lat="40.610495" lon="15.015745"><ele>142.2</ele><time>2026-03-28T15:27:10.799Z</time></trkpt><trkpt lat="40.6104633" lon="15.0158983"><ele>143.39999999999998</ele><time>2026-03-28T15:27:11.798Z</time></trkpt><trkpt lat="40.610435" lon="15.01603"><ele>144.6</ele><time>2026-03-28T15:27:12.799Z</time></trkpt><trkpt lat="40.61041" lon="15.016135"><ele>145.79999999999998</ele><time>2026-03-28T15:27:13.799Z</time></trkpt><trkpt lat="40.61037" lon="15.0162317"><ele>147.0</ele><time>2026-03-28T15:27:14.799Z</time></trkpt><trkpt lat="40.6103383" lon="15.016325"><ele>147.16666666666666</ele><time>2026-03-28T15:27:15.799Z</time></trkpt><trkpt lat="40.6103067" lon="15.016415"><ele>147.33333333333334</ele><time>2026-03-28T15:27:16.799Z</time></trkpt><trkpt lat="40.6102883" lon="15.016515"><ele>147.5</ele><time>2026-03-28T15:27:17.799Z</time></trkpt><trkpt lat="40.6102633" lon="15.0166333"><ele>147.66666666666669</ele><time>2026-03-28T15:27:18.799Z</time></trkpt><trkpt lat="40.6102367" lon="15.016745"><ele>147.83333333333334</ele><time>2026-03-28T15:27:19.799Z</time></trkpt><trkpt lat="40.61021" lon="15.01688"><ele>148.0</ele><time>2026-03-28T15:27:20.8Z</time></trkpt><trkpt lat="40.6101867" lon="15.0170233"><ele>148.0</ele><time>2026-03-28T15:27:21.801Z</time></trkpt><trkpt lat="40.6101617" lon="15.01718"><ele>148.0</ele><time>2026-03-28T15:27:22.801Z</time></trkpt><trkpt lat="40.6101583" lon="15.0173383"><ele>148.0</ele><time>2026-03-28T15:27:23.8Z</time></trkpt><trkpt lat="40.6101533" lon="15.0174817"><ele>148.0</ele><time>2026-03-28T15:27:24.799Z</time></trkpt><trkpt lat="40.6101517" lon="15.0176217"><ele>148.0</ele><time>2026-03-28T15:27:25.799Z</time></trkpt><trkpt lat="40.6101517" lon="15.0177817"><ele>148.0</ele><time>2026-03-28T15:27:26.799Z</time></trkpt><trkpt lat="40.610145" lon="15.0179617"><ele>148.0</ele><time>2026-03-28T15:27:27.798Z</time></trkpt><trkpt lat="40.6101317" lon="15.018165"><ele>148.0</ele><time>2026-03-28T15:27:28.8Z</time></trkpt><trkpt lat="40.610115" lon="15.018385"><ele>148.0</ele><time>2026-03-28T15:27:29.799Z</time></trkpt><trkpt lat="40.6100967" lon="15.0186067"><ele>148.0</ele><time>2026-03-28T15:27:30.799Z</time></trkpt><trkpt lat="40.61008" lon="15.0188267"><ele>148.0</ele><time>2026-03-28T15:27:31.799Z</time></trkpt><trkpt lat="40.610065" lon="15.0190567"><ele>149.0</ele><time>2026-03-28T15:27:32.8Z</time></trkpt><trkpt lat="40.610055" lon="15.0192733"><ele>150.0</ele><time>2026-03-28T15:27:33.799Z</time></trkpt><trkpt lat="40.6100567" lon="15.01947"><ele>151.0</ele><time>2026-03-28T15:27:34.802Z</time></trkpt><trkpt lat="40.6100383" lon="15.019685"><ele>151.0</ele><time>2026-03-28T15:27:35.799Z</time></trkpt><trkpt lat="40.6100233" lon="15.01992"><ele>151.0</ele><time>2026-03-28T15:27:36.799Z</time></trkpt><trkpt lat="40.610005" lon="15.020165"><ele>151.0</ele><time>2026-03-28T15:27:37.799Z</time></trkpt><trkpt lat="40.6099867" lon="15.0204067"><ele>151.66666666666669</ele><time>2026-03-28T15:27:38.799Z</time></trkpt><trkpt lat="40.6099733" lon="15.02062"><ele>152.33333333333334</ele><time>2026-03-28T15:27:39.799Z</time></trkpt><trkpt lat="40.60996" lon="15.02083"><ele>153.0</ele><time>2026-03-28T15:27:40.798Z</time></trkpt><trkpt lat="40.6099433" lon="15.021035"><ele>153.5</ele><time>2026-03-28T15:27:41.8Z</time></trkpt><trkpt lat="40.6099217" lon="15.0212283"><ele>154.0</ele><time>2026-03-28T15:27:42.801Z</time></trkpt><trkpt lat="40.60991" lon="15.0213983"><ele>154.5</ele><time>2026-03-28T15:27:43.801Z</time></trkpt><trkpt lat="40.609895" lon="15.0215567"><ele>155.0</ele><time>2026-03-28T15:27:44.799Z</time></trkpt><trkpt lat="40.6098717" lon="15.0217083"><ele>155.4</ele><time>2026-03-28T15:27:45.799Z</time></trkpt><trkpt lat="40.6098517" lon="15.0218517"><ele>155.8</ele><time>2026-03-28T15:27:46.799Z</time></trkpt><trkpt lat="40.6098317" lon="15.02201"><ele>156.2</ele><time>2026-03-28T15:27:47.799Z</time></trkpt><trkpt lat="40.6098167" lon="15.022145"><ele>156.6</ele><time>2026-03-28T15:27:48.799Z</time></trkpt><trkpt lat="40.609815" lon="15.0222717"><ele>157.0</ele><time>2026-03-28T15:27:49.799Z</time></trkpt><trkpt lat="40.6098267" lon="15.0224117"><ele>157.25</ele><time>2026-03-28T15:27:50.8Z</time></trkpt><trkpt lat="40.6098433" lon="15.0225783"><ele>157.5</ele><time>2026-03-28T15:27:51.798Z</time></trkpt><trkpt lat="40.60986" lon="15.02273"><ele>157.75</ele><time>2026-03-28T15:27:52.799Z</time></trkpt><trkpt lat="40.60987" lon="15.0228783"><ele>158.0</ele><time>2026-03-28T15:27:53.8Z</time></trkpt><trkpt lat="40.6098867" lon="15.0230217"><ele>158.0</ele><time>2026-03-28T15:27:54.799Z</time></trkpt><trkpt lat="40.6098983" lon="15.0231867"><ele>158.0</ele><time>2026-03-28T15:27:55.799Z</time></trkpt><trkpt lat="40.6099183" lon="15.023365"><ele>158.0</ele><time>2026-03-28T15:27:56.8Z</time></trkpt><trkpt lat="40.609935" lon="15.0235383"><ele>158.0</ele><time>2026-03-28T15:27:57.8Z</time></trkpt><trkpt lat="40.609935" lon="15.0236783"><ele>158.0</ele><time>2026-03-28T15:27:58.8Z</time></trkpt><trkpt lat="40.609965" lon="15.023815"><ele>158.0</ele><time>2026-03-28T15:27:59.8Z</time></trkpt><trkpt lat="40.6099717" lon="15.0239217"><ele>158.0</ele><time>2026-03-28T15:28:00.8Z</time></trkpt><trkpt lat="40.6099767" lon="15.0240167"><ele>158.0</ele><time>2026-03-28T15:28:01.8Z</time></trkpt><trkpt lat="40.6099883" lon="15.02412"><ele>158.0</ele><time>2026-03-28T15:28:02.799Z</time></trkpt><trkpt lat="40.6099917" lon="15.02424"><ele>158.0</ele><time>2026-03-28T15:28:04.8Z</time></trkpt><trkpt lat="40.6099683" lon="15.0243183"><ele>158.0</ele><time>2026-03-28T15:28:08.799Z</time></trkpt><trkpt lat="40.609945" lon="15.0244667"><ele>158.0</ele><time>2026-03-28T15:28:16.799Z</time></trkpt><trkpt lat="40.6099967" lon="15.0245283"><ele>158.0</ele><time>2026-03-28T15:28:18.799Z</time></trkpt><trkpt lat="40.6100383" lon="15.024615"><ele>158.0</ele><time>2026-03-28T15:28:21.8Z</time></trkpt><trkpt lat="40.6100367" lon="15.0247267"><ele>158.0</ele><time>2026-03-28T15:28:23.802Z</time></trkpt><trkpt lat="40.6100433" lon="15.0248267"><ele>158.0</ele><time>2026-03-28T15:28:25.799Z</time></trkpt><trkpt lat="40.6100567" lon="15.0249283"><ele>158.0</ele><time>2026-03-28T15:28:28.801Z</time></trkpt><trkpt lat="40.6100633" lon="15.0250383"><ele>158.0</ele><time>2026-03-28T15:28:31.8Z</time></trkpt><trkpt lat="40.61011" lon="15.0251067"><ele>158.0</ele><time>2026-03-28T15:28:34.799Z</time></trkpt><trkpt lat="40.610205" lon="15.025095"><ele>158.0</ele><time>2026-03-28T15:28:38.801Z</time></trkpt><trkpt lat="40.6102683" lon="15.0250583"><ele>158.0</ele><time>2026-03-28T15:28:39.799Z</time></trkpt><trkpt lat="40.6103833" lon="15.025035"><ele>158.0</ele><time>2026-03-28T15:28:41.799Z</time></trkpt><trkpt lat="40.6105067" lon="15.0250333"><ele>158.83333333333331</ele><time>2026-03-28T15:28:43.798Z</time></trkpt><trkpt lat="40.6105767" lon="15.02501"><ele>159.66666666666666</ele><time>2026-03-28T15:28:44.798Z</time></trkpt><trkpt lat="40.610655" lon="15.0250017"><ele>160.5</ele><time>2026-03-28T15:28:45.799Z</time></trkpt><trkpt lat="40.61074" lon="15.0249817"><ele>161.33333333333334</ele><time>2026-03-28T15:28:46.799Z</time></trkpt><trkpt lat="40.610805" lon="15.0249683"><ele>162.16666666666669</ele><time>2026-03-28T15:28:47.799Z</time></trkpt><trkpt lat="40.6108717" lon="15.0249667"><ele>163.0</ele><time>2026-03-28T15:28:48.799Z</time></trkpt><trkpt lat="40.6109783" lon="15.02501"><ele>163.0</ele><time>2026-03-28T15:28:50.799Z</time></trkpt><trkpt lat="40.611" lon="15.0251067"><ele>163.0</ele><time>2026-03-28T15:28:51.8Z</time></trkpt><trkpt lat="40.611035" lon="15.025245"><ele>163.0</ele><time>2026-03-28T15:28:52.798Z</time></trkpt><trkpt lat="40.6110617" lon="15.0254017"><ele>163.0</ele><time>2026-03-28T15:28:53.802Z</time></trkpt><trkpt lat="40.61111" lon="15.0255717"><ele>163.0</ele><time>2026-03-28T15:28:54.799Z</time></trkpt><trkpt lat="40.611155" lon="15.025725"><ele>165.83333333333334</ele><time>2026-03-28T15:28:55.799Z</time></trkpt><trkpt lat="40.611175" lon="15.0258483"><ele>168.66666666666669</ele><time>2026-03-28T15:28:56.798Z</time></trkpt><trkpt lat="40.6112" lon="15.0259533"><ele>171.5</ele><time>2026-03-28T15:28:57.802Z</time></trkpt><trkpt lat="40.6112233" lon="15.0260533"><ele>174.33333333333334</ele><time>2026-03-28T15:28:58.799Z</time></trkpt><trkpt lat="40.6112433" lon="15.0261383"><ele>177.16666666666666</ele><time>2026-03-28T15:28:59.8Z</time></trkpt><trkpt lat="40.6112917" lon="15.0262867"><ele>180.0</ele><time>2026-03-28T15:29:01.8Z</time></trkpt><trkpt lat="40.611405" lon="15.0262917"><ele>180.0</ele><time>2026-03-28T15:29:03.799Z</time></trkpt><trkpt lat="40.611475" lon="15.026225"><ele>180.0</ele><time>2026-03-28T15:29:05.799Z</time></trkpt><trkpt lat="40.6114783" lon="15.0260067"><ele>180.0</ele><time>2026-03-28T15:29:07.798Z</time></trkpt><trkpt lat="40.6114733" lon="15.0258767"><ele>180.0</ele><time>2026-03-28T15:29:08.798Z</time></trkpt><trkpt lat="40.6114567" lon="15.0256983"><ele>181.75</ele><time>2026-03-28T15:29:09.801Z</time></trkpt><trkpt lat="40.61143" lon="15.025565"><ele>183.5</ele><time>2026-03-28T15:29:10.801Z</time></trkpt><trkpt lat="40.6114167" lon="15.0254"><ele>185.25</ele><time>2026-03-28T15:29:11.799Z</time></trkpt><trkpt lat="40.611415" lon="15.025185"><ele>187.0</ele><time>2026-03-28T15:29:12.798Z</time></trkpt><trkpt lat="40.61141" lon="15.0250383"><ele>187.39999999999998</ele><time>2026-03-28T15:29:13.799Z</time></trkpt><trkpt lat="40.6114133" lon="15.0249067"><ele>187.79999999999998</ele><time>2026-03-28T15:29:14.799Z</time></trkpt><trkpt lat="40.6113833" lon="15.0248083"><ele>188.2</ele><time>2026-03-28T15:29:15.799Z</time></trkpt><trkpt lat="40.611385" lon="15.0246783"><ele>188.6</ele><time>2026-03-28T15:29:16.799Z</time></trkpt><trkpt lat="40.6114033" lon="15.0245367"><ele>189.0</ele><time>2026-03-28T15:29:17.799Z</time></trkpt><trkpt lat="40.61142" lon="15.024405"><ele>189.0</ele><time>2026-03-28T15:29:18.799Z</time></trkpt><trkpt lat="40.6114383" lon="15.0242617"><ele>189.0</ele><time>2026-03-28T15:29:19.798Z</time></trkpt><trkpt lat="40.611455" lon="15.0241167"><ele>189.0</ele><time>2026-03-28T15:29:20.799Z</time></trkpt><trkpt lat="40.6114717" lon="15.023965"><ele>189.0</ele><time>2026-03-28T15:29:21.8Z</time></trkpt><trkpt lat="40.6114767" lon="15.0238233"><ele>189.0</ele><time>2026-03-28T15:29:22.798Z</time></trkpt><trkpt lat="40.6114767" lon="15.0236833"><ele>189.0</ele><time>2026-03-28T15:29:23.799Z</time></trkpt><trkpt lat="40.6114783" lon="15.0235367"><ele>189.0</ele><time>2026-03-28T15:29:24.799Z</time></trkpt><trkpt lat="40.6114933" lon="15.0233833"><ele>189.0</ele><time>2026-03-28T15:29:25.798Z</time></trkpt><trkpt lat="40.6115067" lon="15.0232"><ele>189.0</ele><time>2026-03-28T15:29:26.8Z</time></trkpt><trkpt lat="40.611515" lon="15.0230217"><ele>189.0</ele><time>2026-03-28T15:29:27.799Z</time></trkpt><trkpt lat="40.611525" lon="15.0228617"><ele>189.0</ele><time>2026-03-28T15:29:28.799Z</time></trkpt><trkpt lat="40.6115383" lon="15.0227017"><ele>189.0</ele><time>2026-03-28T15:29:29.8Z</time></trkpt><trkpt lat="40.611555" lon="15.0225467"><ele>189.0</ele><time>2026-03-28T15:29:30.799Z</time></trkpt><trkpt lat="40.6115667" lon="15.0223917"><ele>189.0</ele><time>2026-03-28T15:29:31.798Z</time></trkpt><trkpt lat="40.6115867" lon="15.022235"><ele>189.0</ele><time>2026-03-28T15:29:32.799Z</time></trkpt><trkpt lat="40.6115917" lon="15.0220883"><ele>189.0</ele><time>2026-03-28T15:29:33.799Z</time></trkpt><trkpt lat="40.61159" lon="15.0219633"><ele>189.0</ele><time>2026-03-28T15:29:34.799Z</time></trkpt><trkpt lat="40.6115883" lon="15.0218483"><ele>189.0</ele><time>2026-03-28T15:29:35.799Z</time></trkpt><trkpt lat="40.6116" lon="15.0217333"><ele>189.16666666666666</ele><time>2026-03-28T15:29:36.799Z</time></trkpt><trkpt lat="40.6116083" lon="15.021615"><ele>189.33333333333334</ele><time>2026-03-28T15:29:37.8Z</time></trkpt><trkpt lat="40.61162" lon="15.0215067"><ele>189.5</ele><time>2026-03-28T15:29:38.799Z</time></trkpt><trkpt lat="40.61163" lon="15.0214"><ele>189.66666666666669</ele><time>2026-03-28T15:29:39.8Z</time></trkpt><trkpt lat="40.6116467" lon="15.0212883"><ele>189.83333333333334</ele><time>2026-03-28T15:29:40.8Z</time></trkpt><trkpt lat="40.6116633" lon="15.0211833"><ele>190.0</ele><time>2026-03-28T15:29:41.798Z</time></trkpt><trkpt lat="40.6116783" lon="15.0210733"><ele>190.0</ele><time>2026-03-28T15:29:42.8Z</time></trkpt><trkpt lat="40.61169" lon="15.0209617"><ele>190.0</ele><time>2026-03-28T15:29:43.799Z</time></trkpt><trkpt lat="40.611715" lon="15.02083"><ele>190.0</ele><time>2026-03-28T15:29:44.801Z</time></trkpt><trkpt lat="40.611735" lon="15.020705"><ele>190.0</ele><time>2026-03-28T15:29:45.799Z</time></trkpt><trkpt lat="40.61175" lon="15.0205833"><ele>190.0</ele><time>2026-03-28T15:29:46.8Z</time></trkpt><trkpt lat="40.611775" lon="15.0204717"><ele>189.5</ele><time>2026-03-28T15:29:47.799Z</time></trkpt><trkpt lat="40.611795" lon="15.0203667"><ele>189.0</ele><time>2026-03-28T15:29:48.799Z</time></trkpt><trkpt lat="40.6118167" lon="15.0202667"><ele>188.5</ele><time>2026-03-28T15:29:49.8Z</time></trkpt><trkpt lat="40.611835" lon="15.0201667"><ele>188.0</ele><time>2026-03-28T15:29:50.8Z</time></trkpt><trkpt lat="40.6118733" lon="15.0200467"><ele>187.5</ele><time>2026-03-28T15:29:51.8Z</time></trkpt><trkpt lat="40.6119133" lon="15.01992"><ele>187.0</ele><time>2026-03-28T15:29:52.8Z</time></trkpt><trkpt lat="40.611955" lon="15.0197967"><ele>189.0</ele><time>2026-03-28T15:29:53.8Z</time></trkpt><trkpt lat="40.6119983" lon="15.01968"><ele>191.0</ele><time>2026-03-28T15:29:54.802Z</time></trkpt><trkpt lat="40.6120383" lon="15.01958"><ele>193.0</ele><time>2026-03-28T15:29:55.799Z</time></trkpt><trkpt lat="40.6120917" lon="15.01949"><ele>195.0</ele><time>2026-03-28T15:29:56.8Z</time></trkpt><trkpt lat="40.612145" lon="15.0193783"><ele>196.99999999999997</ele><time>2026-03-28T15:29:57.801Z</time></trkpt><trkpt lat="40.6121967" lon="15.0193117"><ele>199.0</ele><time>2026-03-28T15:29:58.806Z</time></trkpt><trkpt lat="40.6123067" lon="15.0192617"><ele>198.99999999999997</ele><time>2026-03-28T15:30:00.8Z</time></trkpt><trkpt lat="40.61237" lon="15.0192383"><ele>199.0</ele><time>2026-03-28T15:30:01.802Z</time></trkpt><trkpt lat="40.6124467" lon="15.0192317"><ele>199.0</ele><time>2026-03-28T15:30:02.801Z</time></trkpt><trkpt lat="40.6125367" lon="15.0192717"><ele>199.0</ele><time>2026-03-28T15:30:03.799Z</time></trkpt><trkpt lat="40.6126083" lon="15.019325"><ele>198.99999999999997</ele><time>2026-03-28T15:30:04.8Z</time></trkpt><trkpt lat="40.612685" lon="15.0193883"><ele>199.0</ele><time>2026-03-28T15:30:05.8Z</time></trkpt><trkpt lat="40.6127567" lon="15.0194567"><ele>199.0</ele><time>2026-03-28T15:30:06.801Z</time></trkpt><trkpt lat="40.6128183" lon="15.0195633"><ele>199.0</ele><time>2026-03-28T15:30:07.8Z</time></trkpt><trkpt lat="40.6128783" lon="15.0196883"><ele>199.0</ele><time>2026-03-28T15:30:08.799Z</time></trkpt><trkpt lat="40.61294" lon="15.01979"><ele>199.0</ele><time>2026-03-28T15:30:09.799Z</time></trkpt><trkpt lat="40.6129933" lon="15.0198833"><ele>199.0</ele><time>2026-03-28T15:30:10.8Z</time></trkpt><trkpt lat="40.6130417" lon="15.0199567"><ele>201.49999999999997</ele><time>2026-03-28T15:30:11.8Z</time></trkpt><trkpt lat="40.613095" lon="15.020005"><ele>204.0</ele><time>2026-03-28T15:30:12.8Z</time></trkpt><trkpt lat="40.613155" lon="15.0200367"><ele>206.5</ele><time>2026-03-28T15:30:13.799Z</time></trkpt><trkpt lat="40.6132167" lon="15.020055"><ele>209.0</ele><time>2026-03-28T15:30:14.8Z</time></trkpt><trkpt lat="40.61333" lon="15.01996"><ele>211.49999999999997</ele><time>2026-03-28T15:30:16.802Z</time></trkpt><trkpt lat="40.6133933" lon="15.0198917"><ele>214.0</ele><time>2026-03-28T15:30:17.8Z</time></trkpt><trkpt lat="40.6134467" lon="15.0197767"><ele>213.75</ele><time>2026-03-28T15:30:18.8Z</time></trkpt><trkpt lat="40.6134583" lon="15.0195917"><ele>213.5</ele><time>2026-03-28T15:30:19.8Z</time></trkpt><trkpt lat="40.613475" lon="15.0194483"><ele>213.25</ele><time>2026-03-28T15:30:20.8Z</time></trkpt><trkpt lat="40.613475" lon="15.0192633"><ele>213.0</ele><time>2026-03-28T15:30:21.8Z</time></trkpt><trkpt lat="40.6134617" lon="15.019045"><ele>213.0</ele><time>2026-03-28T15:30:22.8Z</time></trkpt><trkpt lat="40.6134633" lon="15.0188567"><ele>213.0</ele><time>2026-03-28T15:30:23.801Z</time></trkpt><trkpt lat="40.6134483" lon="15.0186483"><ele>213.0</ele><time>2026-03-28T15:30:24.799Z</time></trkpt><trkpt lat="40.61345" lon="15.018455"><ele>213.0</ele><time>2026-03-28T15:30:25.799Z</time></trkpt><trkpt lat="40.6134583" lon="15.018265"><ele>212.60000000000002</ele><time>2026-03-28T15:30:26.8Z</time></trkpt><trkpt lat="40.61346" lon="15.01809"><ele>212.20000000000002</ele><time>2026-03-28T15:30:27.8Z</time></trkpt><trkpt lat="40.6134617" lon="15.01794"><ele>211.8</ele><time>2026-03-28T15:30:28.799Z</time></trkpt><trkpt lat="40.61346" lon="15.0178083"><ele>211.4</ele><time>2026-03-28T15:30:29.801Z</time></trkpt><trkpt lat="40.6134633" lon="15.01768"><ele>211.0</ele><time>2026-03-28T15:30:30.799Z</time></trkpt><trkpt lat="40.6134617" lon="15.01757"><ele>211.83333333333331</ele><time>2026-03-28T15:30:31.8Z</time></trkpt><trkpt lat="40.61346" lon="15.017465"><ele>212.66666666666666</ele><time>2026-03-28T15:30:32.8Z</time></trkpt><trkpt lat="40.6134633" lon="15.0173533"><ele>213.5</ele><time>2026-03-28T15:30:33.8Z</time></trkpt><trkpt lat="40.61347" lon="15.017215"><ele>214.33333333333331</ele><time>2026-03-28T15:30:34.802Z</time></trkpt><trkpt lat="40.6134667" lon="15.0171067"><ele>215.16666666666666</ele><time>2026-03-28T15:30:35.8Z</time></trkpt><trkpt lat="40.6134933" lon="15.017"><ele>216.0</ele><time>2026-03-28T15:30:36.8Z</time></trkpt><trkpt lat="40.6135067" lon="15.0168233"><ele>216.0</ele><time>2026-03-28T15:30:38.799Z</time></trkpt><trkpt lat="40.613505" lon="15.016735"><ele>216.0</ele><time>2026-03-28T15:30:39.8Z</time></trkpt><trkpt lat="40.6135067" lon="15.0166517"><ele>216.0</ele><time>2026-03-28T15:30:40.8Z</time></trkpt><trkpt lat="40.613505" lon="15.0165"><ele>216.0</ele><time>2026-03-28T15:30:42.802Z</time></trkpt><trkpt lat="40.6135783" lon="15.01642"><ele>216.0</ele><time>2026-03-28T15:30:44.799Z</time></trkpt><trkpt lat="40.6136433" lon="15.0164317"><ele>216.0</ele><time>2026-03-28T15:30:46.801Z</time></trkpt><trkpt lat="40.613705" lon="15.016495"><ele>222.20000000000002</ele><time>2026-03-28T15:30:47.801Z</time></trkpt><trkpt lat="40.613745" lon="15.016635"><ele>228.40000000000003</ele><time>2026-03-28T15:30:48.799Z</time></trkpt><trkpt lat="40.6137733" lon="15.0167617"><ele>234.6</ele><time>2026-03-28T15:30:49.8Z</time></trkpt><trkpt lat="40.6138083" lon="15.01689"><ele>240.8</ele><time>2026-03-28T15:30:50.8Z</time></trkpt><trkpt lat="40.61385" lon="15.0170167"><ele>247.0</ele><time>2026-03-28T15:30:51.801Z</time></trkpt><trkpt lat="40.6138983" lon="15.01716"><ele>247.0</ele><time>2026-03-28T15:30:52.799Z</time></trkpt><trkpt lat="40.61395" lon="15.0173167"><ele>247.0</ele><time>2026-03-28T15:30:53.802Z</time></trkpt><trkpt lat="40.6140017" lon="15.017495"><ele>247.0</ele><time>2026-03-28T15:30:54.8Z</time></trkpt><trkpt lat="40.6140583" lon="15.0176567"><ele>247.0</ele><time>2026-03-28T15:30:55.802Z</time></trkpt><trkpt lat="40.6141183" lon="15.0177967"><ele>246.0</ele><time>2026-03-28T15:30:56.803Z</time></trkpt><trkpt lat="40.6141717" lon="15.0179417"><ele>245.0</ele><time>2026-03-28T15:30:57.799Z</time></trkpt><trkpt lat="40.6142267" lon="15.018065"><ele>244.0</ele><time>2026-03-28T15:30:58.8Z</time></trkpt><trkpt lat="40.6142767" lon="15.0181767"><ele>243.0</ele><time>2026-03-28T15:30:59.8Z</time></trkpt><trkpt lat="40.614315" lon="15.018295"><ele>242.0</ele><time>2026-03-28T15:31:00.8Z</time></trkpt><trkpt lat="40.6143517" lon="15.01843"><ele>240.75</ele><time>2026-03-28T15:31:01.799Z</time></trkpt><trkpt lat="40.61439" lon="15.0185817"><ele>239.5</ele><time>2026-03-28T15:31:02.8Z</time></trkpt><trkpt lat="40.6144383" lon="15.018745"><ele>238.25</ele><time>2026-03-28T15:31:03.801Z</time></trkpt><trkpt lat="40.6144767" lon="15.01889"><ele>237.0</ele><time>2026-03-28T15:31:04.799Z</time></trkpt><trkpt lat="40.6145133" lon="15.0190383"><ele>243.25</ele><time>2026-03-28T15:31:05.8Z</time></trkpt><trkpt lat="40.6145667" lon="15.0191867"><ele>249.5</ele><time>2026-03-28T15:31:06.799Z</time></trkpt><trkpt lat="40.61463" lon="15.0193483"><ele>255.75</ele><time>2026-03-28T15:31:07.799Z</time></trkpt><trkpt lat="40.6146983" lon="15.0195217"><ele>262.0</ele><time>2026-03-28T15:31:08.799Z</time></trkpt><trkpt lat="40.6147533" lon="15.0196933"><ele>262.0</ele><time>2026-03-28T15:31:09.8Z</time></trkpt><trkpt lat="40.614825" lon="15.0198517"><ele>262.0</ele><time>2026-03-28T15:31:10.8Z</time></trkpt><trkpt lat="40.6148783" lon="15.020005"><ele>262.0</ele><time>2026-03-28T15:31:11.8Z</time></trkpt><trkpt lat="40.614935" lon="15.02017"><ele>262.0</ele><time>2026-03-28T15:31:12.8Z</time></trkpt><trkpt lat="40.6149817" lon="15.02032"><ele>260.75</ele><time>2026-03-28T15:31:13.801Z</time></trkpt><trkpt lat="40.6150267" lon="15.02046"><ele>259.5</ele><time>2026-03-28T15:31:14.801Z</time></trkpt><trkpt lat="40.615075" lon="15.020605"><ele>258.25</ele><time>2026-03-28T15:31:15.799Z</time></trkpt><trkpt lat="40.615125" lon="15.0207367"><ele>257.0</ele><time>2026-03-28T15:31:16.801Z</time></trkpt><trkpt lat="40.6151767" lon="15.0208817"><ele>255.8</ele><time>2026-03-28T15:31:17.801Z</time></trkpt><trkpt lat="40.6152267" lon="15.0210167"><ele>254.6</ele><time>2026-03-28T15:31:18.802Z</time></trkpt><trkpt lat="40.6152867" lon="15.0211417"><ele>253.40000000000003</ele><time>2026-03-28T15:31:19.799Z</time></trkpt><trkpt lat="40.6153433" lon="15.0212633"><ele>252.20000000000002</ele><time>2026-03-28T15:31:20.799Z</time></trkpt><trkpt lat="40.6154" lon="15.021375"><ele>251.0</ele><time>2026-03-28T15:31:21.8Z</time></trkpt><trkpt lat="40.6154517" lon="15.0214683"><ele>255.20000000000002</ele><time>2026-03-28T15:31:22.799Z</time></trkpt><trkpt lat="40.6154883" lon="15.0215467"><ele>259.40000000000003</ele><time>2026-03-28T15:31:23.803Z</time></trkpt><trkpt lat="40.61555" lon="15.0216733"><ele>263.6</ele><time>2026-03-28T15:31:25.799Z</time></trkpt><trkpt lat="40.6156333" lon="15.0216567"><ele>267.8</ele><time>2026-03-28T15:31:27.799Z</time></trkpt><trkpt lat="40.6156867" lon="15.0215333"><ele>272.0</ele><time>2026-03-28T15:31:29.8Z</time></trkpt><trkpt lat="40.61566" lon="15.02136"><ele>273.6</ele><time>2026-03-28T15:31:31.8Z</time></trkpt><trkpt lat="40.6156267" lon="15.021255"><ele>275.2</ele><time>2026-03-28T15:31:32.799Z</time></trkpt><trkpt lat="40.6156033" lon="15.0211483"><ele>276.8</ele><time>2026-03-28T15:31:33.8Z</time></trkpt><trkpt lat="40.6155767" lon="15.0210317"><ele>278.4</ele><time>2026-03-28T15:31:34.801Z</time></trkpt><trkpt lat="40.615555" lon="15.0209017"><ele>280.0</ele><time>2026-03-28T15:31:35.8Z</time></trkpt><trkpt lat="40.6155433" lon="15.0207633"><ele>282.0</ele><time>2026-03-28T15:31:36.802Z</time></trkpt><trkpt lat="40.6155367" lon="15.0206183"><ele>284.0</ele><time>2026-03-28T15:31:37.8Z</time></trkpt><trkpt lat="40.6155267" lon="15.020465"><ele>286.0</ele><time>2026-03-28T15:31:38.8Z</time></trkpt><trkpt lat="40.61552" lon="15.02031"><ele>288.0</ele><time>2026-03-28T15:31:39.8Z</time></trkpt><trkpt lat="40.6155133" lon="15.0201567"><ele>288.0</ele><time>2026-03-28T15:31:40.8Z</time></trkpt><trkpt lat="40.6155083" lon="15.020005"><ele>288.0</ele><time>2026-03-28T15:31:41.8Z</time></trkpt><trkpt lat="40.6155017" lon="15.0198467"><ele>288.0</ele><time>2026-03-28T15:31:42.801Z</time></trkpt><trkpt lat="40.615495" lon="15.0196883"><ele>288.0</ele><time>2026-03-28T15:31:43.802Z</time></trkpt><trkpt lat="40.6154917" lon="15.01953"><ele>289.0</ele><time>2026-03-28T15:31:44.8Z</time></trkpt><trkpt lat="40.6154883" lon="15.01938"><ele>290.0</ele><time>2026-03-28T15:31:45.801Z</time></trkpt><trkpt lat="40.6154917" lon="15.019235"><ele>291.0</ele><time>2026-03-28T15:31:46.799Z</time></trkpt><trkpt lat="40.6155017" lon="15.0190933"><ele>292.0</ele><time>2026-03-28T15:31:47.8Z</time></trkpt><trkpt lat="40.61552" lon="15.01894"><ele>292.6</ele><time>2026-03-28T15:31:48.799Z</time></trkpt><trkpt lat="40.6155483" lon="15.0187833"><ele>293.2</ele><time>2026-03-28T15:31:49.799Z</time></trkpt><trkpt lat="40.6155717" lon="15.0186417"><ele>293.8</ele><time>2026-03-28T15:31:50.8Z</time></trkpt><trkpt lat="40.615595" lon="15.0185067"><ele>294.4</ele><time>2026-03-28T15:31:51.8Z</time></trkpt><trkpt lat="40.615615" lon="15.0183783"><ele>295.0</ele><time>2026-03-28T15:31:52.8Z</time></trkpt><trkpt lat="40.61564" lon="15.0182517"><ele>296.0</ele><time>2026-03-28T15:31:53.8Z</time></trkpt><trkpt lat="40.6156767" lon="15.0181283"><ele>297.0</ele><time>2026-03-28T15:31:54.8Z</time></trkpt><trkpt lat="40.6157417" lon="15.0180183"><ele>298.0</ele><time>2026-03-28T15:31:55.799Z</time></trkpt><trkpt lat="40.6158033" lon="15.0179133"><ele>299.0</ele><time>2026-03-28T15:31:56.802Z</time></trkpt><trkpt lat="40.6158533" lon="15.0178167"><ele>300.0</ele><time>2026-03-28T15:31:57.8Z</time></trkpt><trkpt lat="40.61589" lon="15.0177367"><ele>300.0</ele><time>2026-03-28T15:31:58.799Z</time></trkpt><trkpt lat="40.615915" lon="15.0176467"><ele>300.0</ele><time>2026-03-28T15:31:59.8Z</time></trkpt><trkpt lat="40.6159283" lon="15.01756"><ele>300.0</ele><time>2026-03-28T15:32:00.799Z</time></trkpt><trkpt lat="40.6159317" lon="15.0174567"><ele>300.0</ele><time>2026-03-28T15:32:01.8Z</time></trkpt><trkpt lat="40.615925" lon="15.0173417"><ele>300.0</ele><time>2026-03-28T15:32:02.799Z</time></trkpt><trkpt lat="40.6159067" lon="15.017225"><ele>300.0</ele><time>2026-03-28T15:32:03.8Z</time></trkpt><trkpt lat="40.6158883" lon="15.0171033"><ele>300.8</ele><time>2026-03-28T15:32:04.801Z</time></trkpt><trkpt lat="40.6158733" lon="15.0169767"><ele>301.6</ele><time>2026-03-28T15:32:05.8Z</time></trkpt><trkpt lat="40.61585" lon="15.0168467"><ele>302.4</ele><time>2026-03-28T15:32:06.802Z</time></trkpt><trkpt lat="40.6158317" lon="15.0167183"><ele>303.2</ele><time>2026-03-28T15:32:07.799Z</time></trkpt><trkpt lat="40.6158267" lon="15.016575"><ele>304.0</ele><time>2026-03-28T15:32:08.8Z</time></trkpt><trkpt lat="40.61581" lon="15.0164467"><ele>304.16666666666663</ele><time>2026-03-28T15:32:09.8Z</time></trkpt><trkpt lat="40.6158017" lon="15.0163483"><ele>304.3333333333333</ele><time>2026-03-28T15:32:10.8Z</time></trkpt><trkpt lat="40.6157967" lon="15.0162483"><ele>304.5</ele><time>2026-03-28T15:32:11.8Z</time></trkpt><trkpt lat="40.6157967" lon="15.0161483"><ele>304.6666666666667</ele><time>2026-03-28T15:32:12.801Z</time></trkpt><trkpt lat="40.6158017" lon="15.0160517"><ele>304.83333333333337</ele><time>2026-03-28T15:32:13.801Z</time></trkpt><trkpt lat="40.6158367" lon="15.01594"><ele>305.0</ele><time>2026-03-28T15:32:15.799Z</time></trkpt><trkpt lat="40.6158867" lon="15.0158767"><ele>305.0</ele><time>2026-03-28T15:32:17.8Z</time></trkpt><trkpt lat="40.61586" lon="15.01578"><ele>305.0</ele><time>2026-03-28T15:32:21.801Z</time></trkpt><trkpt lat="40.615815" lon="15.01589"><ele>305.0</ele><time>2026-03-28T15:32:24.799Z</time></trkpt><trkpt lat="40.6158133" lon="15.0160017"><ele>305.0</ele><time>2026-03-28T15:32:26.799Z</time></trkpt><trkpt lat="40.615805" lon="15.0161083"><ele>305.0</ele><time>2026-03-28T15:32:27.8Z</time></trkpt><trkpt lat="40.615795" lon="15.0162317"><ele>305.0</ele><time>2026-03-28T15:32:28.799Z</time></trkpt><trkpt lat="40.615795" lon="15.0163733"><ele>305.0</ele><time>2026-03-28T15:32:29.8Z</time></trkpt><trkpt lat="40.6158" lon="15.016495"><ele>305.0</ele><time>2026-03-28T15:32:30.799Z</time></trkpt><trkpt lat="40.6158017" lon="15.01662"><ele>305.0</ele><time>2026-03-28T15:32:31.799Z</time></trkpt><trkpt lat="40.615815" lon="15.0167567"><ele>305.0</ele><time>2026-03-28T15:32:32.8Z</time></trkpt><trkpt lat="40.6158133" lon="15.0168833"><ele>305.0</ele><time>2026-03-28T15:32:33.801Z</time></trkpt><trkpt lat="40.6158233" lon="15.0170067"><ele>304.83333333333337</ele><time>2026-03-28T15:32:34.8Z</time></trkpt><trkpt lat="40.6158283" lon="15.017125"><ele>304.6666666666667</ele><time>2026-03-28T15:32:35.799Z</time></trkpt><trkpt lat="40.6158317" lon="15.0172333"><ele>304.5</ele><time>2026-03-28T15:32:36.799Z</time></trkpt><trkpt lat="40.61584" lon="15.0173367"><ele>304.3333333333333</ele><time>2026-03-28T15:32:37.799Z</time></trkpt><trkpt lat="40.6158583" lon="15.0174183"><ele>304.16666666666663</ele><time>2026-03-28T15:32:38.801Z</time></trkpt><trkpt lat="40.6158633" lon="15.0175333"><ele>304.0</ele><time>2026-03-28T15:32:40.799Z</time></trkpt><trkpt lat="40.615885" lon="15.0176383"><ele>303.3333333333333</ele><time>2026-03-28T15:32:41.8Z</time></trkpt><trkpt lat="40.6158817" lon="15.017725"><ele>302.66666666666663</ele><time>2026-03-28T15:32:42.799Z</time></trkpt><trkpt lat="40.61586" lon="15.01781"><ele>302.0</ele><time>2026-03-28T15:32:43.799Z</time></trkpt><trkpt lat="40.6157817" lon="15.0179317"><ele>301.3333333333333</ele><time>2026-03-28T15:32:45.801Z</time></trkpt><trkpt lat="40.615745" lon="15.018005"><ele>300.6666666666667</ele><time>2026-03-28T15:32:46.802Z</time></trkpt><trkpt lat="40.6156967" lon="15.0180683"><ele>300.0</ele><time>2026-03-28T15:32:47.802Z</time></trkpt><trkpt lat="40.6156567" lon="15.0181583"><ele>300.0</ele><time>2026-03-28T15:32:48.8Z</time></trkpt><trkpt lat="40.6156133" lon="15.0182483"><ele>300.0</ele><time>2026-03-28T15:32:49.802Z</time></trkpt><trkpt lat="40.6155717" lon="15.0183317"><ele>300.0</ele><time>2026-03-28T15:32:50.8Z</time></trkpt><trkpt lat="40.6155417" lon="15.0184217"><ele>300.0</ele><time>2026-03-28T15:32:51.801Z</time></trkpt><trkpt lat="40.6155267" lon="15.0185233"><ele>300.0</ele><time>2026-03-28T15:32:52.8Z</time></trkpt><trkpt lat="40.6155183" lon="15.0186383"><ele>300.0</ele><time>2026-03-28T15:32:53.799Z</time></trkpt><trkpt lat="40.6155067" lon="15.0187483"><ele>299.0</ele><time>2026-03-28T15:32:54.8Z</time></trkpt><trkpt lat="40.6154933" lon="15.0188567"><ele>298.0</ele><time>2026-03-28T15:32:55.8Z</time></trkpt><trkpt lat="40.6154917" lon="15.0189517"><ele>297.0</ele><time>2026-03-28T15:32:56.801Z</time></trkpt><trkpt lat="40.6154767" lon="15.0190367"><ele>296.0</ele><time>2026-03-28T15:32:57.801Z</time></trkpt><trkpt lat="40.6154517" lon="15.0191967"><ele>295.0</ele><time>2026-03-28T15:32:59.799Z</time></trkpt><trkpt lat="40.615435" lon="15.01935"><ele>294.4</ele><time>2026-03-28T15:33:01.802Z</time></trkpt><trkpt lat="40.6154317" lon="15.0194333"><ele>293.8</ele><time>2026-03-28T15:33:02.8Z</time></trkpt><trkpt lat="40.6154467" lon="15.01959"><ele>293.2</ele><time>2026-03-28T15:33:04.8Z</time></trkpt><trkpt lat="40.615465" lon="15.0197783"><ele>292.6</ele><time>2026-03-28T15:33:06.802Z</time></trkpt><trkpt lat="40.6154733" lon="15.019865"><ele>292.0</ele><time>2026-03-28T15:33:07.801Z</time></trkpt><trkpt lat="40.61548" lon="15.01997"><ele>291.3333333333333</ele><time>2026-03-28T15:33:08.8Z</time></trkpt><trkpt lat="40.6154867" lon="15.0200783"><ele>290.66666666666663</ele><time>2026-03-28T15:33:09.802Z</time></trkpt><trkpt lat="40.615495" lon="15.0201733"><ele>290.0</ele><time>2026-03-28T15:33:10.802Z</time></trkpt><trkpt lat="40.6155117" lon="15.020275"><ele>289.3333333333333</ele><time>2026-03-28T15:33:11.799Z</time></trkpt><trkpt lat="40.6155217" lon="15.0203683"><ele>288.6666666666667</ele><time>2026-03-28T15:33:12.8Z</time></trkpt><trkpt lat="40.61553" lon="15.0204817"><ele>288.0</ele><time>2026-03-28T15:33:13.801Z</time></trkpt><trkpt lat="40.6155383" lon="15.0206083"><ele>288.0</ele><time>2026-03-28T15:33:14.801Z</time></trkpt><trkpt lat="40.615545" lon="15.0207233"><ele>288.0</ele><time>2026-03-28T15:33:15.801Z</time></trkpt><trkpt lat="40.6155517" lon="15.020835"><ele>288.0</ele><time>2026-03-28T15:33:16.803Z</time></trkpt><trkpt lat="40.6155667" lon="15.0209333"><ele>288.0</ele><time>2026-03-28T15:33:17.8Z</time></trkpt><trkpt lat="40.6155867" lon="15.02104"><ele>288.0</ele><time>2026-03-28T15:33:18.801Z</time></trkpt><trkpt lat="40.6156067" lon="15.02114"><ele>288.0</ele><time>2026-03-28T15:33:19.8Z</time></trkpt><trkpt lat="40.6156267" lon="15.02123"><ele>286.4</ele><time>2026-03-28T15:33:20.8Z</time></trkpt><trkpt lat="40.615675" lon="15.0213817"><ele>284.8</ele><time>2026-03-28T15:33:22.799Z</time></trkpt><trkpt lat="40.6157017" lon="15.0214617"><ele>283.2</ele><time>2026-03-28T15:33:23.8Z</time></trkpt><trkpt lat="40.61572" lon="15.0215833"><ele>281.6</ele><time>2026-03-28T15:33:25.802Z</time></trkpt><trkpt lat="40.6156817" lon="15.0216667"><ele>280.0</ele><time>2026-03-28T15:33:27.799Z</time></trkpt><trkpt lat="40.6155817" lon="15.0216967"><ele>280.0</ele><time>2026-03-28T15:33:29.8Z</time></trkpt><trkpt lat="40.615505" lon="15.0216483"><ele>280.0</ele><time>2026-03-28T15:33:31.799Z</time></trkpt><trkpt lat="40.61544" lon="15.0214967"><ele>280.0</ele><time>2026-03-28T15:33:32.8Z</time></trkpt><trkpt lat="40.6153767" lon="15.021355"><ele>280.0</ele><time>2026-03-28T15:33:33.8Z</time></trkpt><trkpt lat="40.61532" lon="15.0212183"><ele>274.25</ele><time>2026-03-28T15:33:34.8Z</time></trkpt><trkpt lat="40.61526" lon="15.0210683"><ele>268.5</ele><time>2026-03-28T15:33:35.803Z</time></trkpt><trkpt lat="40.6152083" lon="15.0209117"><ele>262.75</ele><time>2026-03-28T15:33:36.8Z</time></trkpt><trkpt lat="40.61515" lon="15.02078"><ele>257.0</ele><time>2026-03-28T15:33:37.8Z</time></trkpt><trkpt lat="40.6150967" lon="15.0206567"><ele>257.0</ele><time>2026-03-28T15:33:38.8Z</time></trkpt><trkpt lat="40.6150433" lon="15.02052"><ele>257.0</ele><time>2026-03-28T15:33:39.803Z</time></trkpt><trkpt lat="40.6150017" lon="15.0203683"><ele>257.0</ele><time>2026-03-28T15:33:40.8Z</time></trkpt><trkpt lat="40.6149567" lon="15.02022"><ele>257.0</ele><time>2026-03-28T15:33:41.803Z</time></trkpt><trkpt lat="40.6149133" lon="15.0200783"><ele>258.0</ele><time>2026-03-28T15:33:42.8Z</time></trkpt><trkpt lat="40.6149033" lon="15.0199617"><ele>259.0</ele><time>2026-03-28T15:33:43.801Z</time></trkpt><trkpt lat="40.6148517" lon="15.0198267"><ele>260.0</ele><time>2026-03-28T15:33:44.8Z</time></trkpt><trkpt lat="40.6148033" lon="15.0196817"><ele>261.0</ele><time>2026-03-28T15:33:45.799Z</time></trkpt><trkpt lat="40.6147533" lon="15.01954"><ele>262.0</ele><time>2026-03-28T15:33:46.8Z</time></trkpt><trkpt lat="40.6147033" lon="15.0194183"><ele>262.0</ele><time>2026-03-28T15:33:47.8Z</time></trkpt><trkpt lat="40.6146583" lon="15.0193033"><ele>262.0</ele><time>2026-03-28T15:33:48.8Z</time></trkpt><trkpt lat="40.6146217" lon="15.0191967"><ele>262.0</ele><time>2026-03-28T15:33:49.8Z</time></trkpt><trkpt lat="40.6145733" lon="15.0190967"><ele>262.0</ele><time>2026-03-28T15:33:50.799Z</time></trkpt><trkpt lat="40.61452" lon="15.01898"><ele>262.0</ele><time>2026-03-28T15:33:51.799Z</time></trkpt><trkpt lat="40.6144767" lon="15.0188583"><ele>258.0</ele><time>2026-03-28T15:33:52.8Z</time></trkpt><trkpt lat="40.6144383" lon="15.0187417"><ele>254.0</ele><time>2026-03-28T15:33:53.803Z</time></trkpt><trkpt lat="40.6144167" lon="15.0186317"><ele>250.0</ele><time>2026-03-28T15:33:54.801Z</time></trkpt><trkpt lat="40.614395" lon="15.0185133"><ele>246.0</ele><time>2026-03-28T15:33:55.802Z</time></trkpt><trkpt lat="40.6143617" lon="15.0183833"><ele>242.0</ele><time>2026-03-28T15:33:56.802Z</time></trkpt><trkpt lat="40.6143183" lon="15.0182567"><ele>242.0</ele><time>2026-03-28T15:33:57.801Z</time></trkpt><trkpt lat="40.61427" lon="15.018135"><ele>242.0</ele><time>2026-03-28T15:33:58.803Z</time></trkpt><trkpt lat="40.6142217" lon="15.01801"><ele>242.0</ele><time>2026-03-28T15:33:59.799Z</time></trkpt><trkpt lat="40.6141683" lon="15.01789"><ele>242.0</ele><time>2026-03-28T15:34:00.802Z</time></trkpt><trkpt lat="40.6141167" lon="15.0177633"><ele>242.0</ele><time>2026-03-28T15:34:01.8Z</time></trkpt><trkpt lat="40.614065" lon="15.0176317"><ele>242.0</ele><time>2026-03-28T15:34:02.799Z</time></trkpt><trkpt lat="40.6140233" lon="15.01749"><ele>242.0</ele><time>2026-03-28T15:34:03.8Z</time></trkpt><trkpt lat="40.613995" lon="15.0173333"><ele>242.0</ele><time>2026-03-28T15:34:04.802Z</time></trkpt><trkpt lat="40.6139667" lon="15.01721"><ele>242.0</ele><time>2026-03-28T15:34:05.8Z</time></trkpt><trkpt lat="40.6139383" lon="15.0171117"><ele>242.0</ele><time>2026-03-28T15:34:06.8Z</time></trkpt><trkpt lat="40.61391" lon="15.0170233"><ele>242.83333333333334</ele><time>2026-03-28T15:34:07.8Z</time></trkpt><trkpt lat="40.6138833" lon="15.0169283"><ele>243.66666666666669</ele><time>2026-03-28T15:34:08.799Z</time></trkpt><trkpt lat="40.6138717" lon="15.0168417"><ele>244.5</ele><time>2026-03-28T15:34:09.799Z</time></trkpt><trkpt lat="40.6138283" lon="15.01671"><ele>245.33333333333331</ele><time>2026-03-28T15:34:11.802Z</time></trkpt><trkpt lat="40.6138017" lon="15.0166083"><ele>246.16666666666666</ele><time>2026-03-28T15:34:13.801Z</time></trkpt><trkpt lat="40.6137683" lon="15.0165017"><ele>247.0</ele><time>2026-03-28T15:34:15.799Z</time></trkpt><trkpt lat="40.613725" lon="15.0164017"><ele>247.39999999999998</ele><time>2026-03-28T15:34:17.802Z</time></trkpt><trkpt lat="40.6136717" lon="15.01632"><ele>247.79999999999998</ele><time>2026-03-28T15:34:19.799Z</time></trkpt><trkpt lat="40.6136033" lon="15.0163017"><ele>248.2</ele><time>2026-03-28T15:34:21.8Z</time></trkpt><trkpt lat="40.6135367" lon="15.0163633"><ele>248.6</ele><time>2026-03-28T15:34:23.801Z</time></trkpt><trkpt lat="40.6134767" lon="15.016475"><ele>249.0</ele><time>2026-03-28T15:34:25.8Z</time></trkpt><trkpt lat="40.613465" lon="15.016625"><ele>243.5</ele><time>2026-03-28T15:34:27.799Z</time></trkpt><trkpt lat="40.613455" lon="15.016715"><ele>238.0</ele><time>2026-03-28T15:34:28.8Z</time></trkpt><trkpt lat="40.6134517" lon="15.01682"><ele>232.5</ele><time>2026-03-28T15:34:29.8Z</time></trkpt><trkpt lat="40.61345" lon="15.0169417"><ele>227.0</ele><time>2026-03-28T15:34:30.8Z</time></trkpt><trkpt lat="40.6134433" lon="15.0170717"><ele>221.5</ele><time>2026-03-28T15:34:31.8Z</time></trkpt><trkpt lat="40.6134217" lon="15.0171933"><ele>216.0</ele><time>2026-03-28T15:34:32.8Z</time></trkpt><trkpt lat="40.6134183" lon="15.01732"><ele>216.0</ele><time>2026-03-28T15:34:33.802Z</time></trkpt><trkpt lat="40.6134283" lon="15.0174717"><ele>216.0</ele><time>2026-03-28T15:34:34.799Z</time></trkpt><trkpt lat="40.6134217" lon="15.0176517"><ele>216.0</ele><time>2026-03-28T15:34:35.799Z</time></trkpt><trkpt lat="40.6134167" lon="15.0178217"><ele>216.0</ele><time>2026-03-28T15:34:36.8Z</time></trkpt><trkpt lat="40.6134167" lon="15.018"><ele>215.25</ele><time>2026-03-28T15:34:37.8Z</time></trkpt><trkpt lat="40.613405" lon="15.0181583"><ele>214.5</ele><time>2026-03-28T15:34:38.801Z</time></trkpt><trkpt lat="40.613395" lon="15.0183167"><ele>213.75</ele><time>2026-03-28T15:34:39.8Z</time></trkpt><trkpt lat="40.61339" lon="15.0184633"><ele>213.0</ele><time>2026-03-28T15:34:40.799Z</time></trkpt><trkpt lat="40.6133867" lon="15.01862"><ele>213.0</ele><time>2026-03-28T15:34:41.799Z</time></trkpt><trkpt lat="40.6133817" lon="15.0187783"><ele>213.0</ele><time>2026-03-28T15:34:42.799Z</time></trkpt><trkpt lat="40.6133817" lon="15.018915"><ele>213.0</ele><time>2026-03-28T15:34:43.799Z</time></trkpt><trkpt lat="40.61338" lon="15.0190467"><ele>213.0</ele><time>2026-03-28T15:34:44.8Z</time></trkpt><trkpt lat="40.6133833" lon="15.019185"><ele>213.0</ele><time>2026-03-28T15:34:45.8Z</time></trkpt><trkpt lat="40.6133883" lon="15.0193283"><ele>213.5</ele><time>2026-03-28T15:34:46.8Z</time></trkpt><trkpt lat="40.6133933" lon="15.019445"><ele>214.0</ele><time>2026-03-28T15:34:47.8Z</time></trkpt><trkpt lat="40.613395" lon="15.0195383"><ele>214.5</ele><time>2026-03-28T15:34:48.799Z</time></trkpt><trkpt lat="40.6133917" lon="15.019635"><ele>215.0</ele><time>2026-03-28T15:34:49.799Z</time></trkpt><trkpt lat="40.6133783" lon="15.0197167"><ele>215.5</ele><time>2026-03-28T15:34:50.801Z</time></trkpt><trkpt lat="40.6133367" lon="15.019855"><ele>216.0</ele><time>2026-03-28T15:34:52.8Z</time></trkpt><trkpt lat="40.61326" lon="15.0199617"><ele>215.5</ele><time>2026-03-28T15:34:54.802Z</time></trkpt><trkpt lat="40.61309" lon="15.0202067"><ele>215.0</ele><time>2026-03-28T15:35:01.8Z</time></trkpt><trkpt lat="40.61301" lon="15.02024"><ele>214.5</ele><time>2026-03-28T15:35:02.799Z</time></trkpt><trkpt lat="40.6129433" lon="15.02026"><ele>214.0</ele><time>2026-03-28T15:35:03.801Z</time></trkpt><trkpt lat="40.6128533" lon="15.0203217"><ele>213.99999999999997</ele><time>2026-03-28T15:35:05.8Z</time></trkpt><trkpt lat="40.6128383" lon="15.020435"><ele>214.0</ele><time>2026-03-28T15:35:08.8Z</time></trkpt><trkpt lat="40.6128567" lon="15.0205267"><ele>214.0</ele><time>2026-03-28T15:35:10.8Z</time></trkpt><trkpt lat="40.6128817" lon="15.020665"><ele>214.0</ele><time>2026-03-28T15:35:12.8Z</time></trkpt><trkpt lat="40.6129117" lon="15.020795"><ele>213.99999999999997</ele><time>2026-03-28T15:35:14.801Z</time></trkpt><trkpt lat="40.6129583" lon="15.0208533"><ele>214.0</ele><time>2026-03-28T15:35:15.8Z</time></trkpt><trkpt lat="40.6129967" lon="15.0209867"><ele>215.0</ele><time>2026-03-28T15:35:17.8Z</time></trkpt><trkpt lat="40.61301" lon="15.0211083"><ele>215.99999999999997</ele><time>2026-03-28T15:35:19.8Z</time></trkpt><trkpt lat="40.61304" lon="15.0212367"><ele>216.99999999999997</ele><time>2026-03-28T15:35:21.8Z</time></trkpt><trkpt lat="40.6130617" lon="15.0213517"><ele>218.0</ele><time>2026-03-28T15:35:23.8Z</time></trkpt><trkpt lat="40.6130883" lon="15.021465"><ele>219.0</ele><time>2026-03-28T15:35:25.8Z</time></trkpt><trkpt lat="40.613115" lon="15.0215617"><ele>219.0</ele><time>2026-03-28T15:35:27.801Z</time></trkpt><trkpt lat="40.6131383" lon="15.0216483"><ele>219.0</ele><time>2026-03-28T15:35:29.8Z</time></trkpt><trkpt lat="40.613155" lon="15.0217517"><ele>219.0</ele><time>2026-03-28T15:35:31.801Z</time></trkpt><trkpt lat="40.6131333" lon="15.02186"><ele>219.0</ele><time>2026-03-28T15:35:33.802Z</time></trkpt><trkpt lat="40.61309" lon="15.0219317"><ele>219.0</ele><time>2026-03-28T15:35:35.8Z</time></trkpt><trkpt lat="40.6130233" lon="15.0220167"><ele>219.0</ele><time>2026-03-28T15:35:37.801Z</time></trkpt><trkpt lat="40.6129467" lon="15.022085"><ele>219.0</ele><time>2026-03-28T15:35:39.8Z</time></trkpt><trkpt lat="40.612875" lon="15.0221283"><ele>219.0</ele><time>2026-03-28T15:35:41.8Z</time></trkpt><trkpt lat="40.6128033" lon="15.0222033"><ele>219.0</ele><time>2026-03-28T15:35:44.801Z</time></trkpt><trkpt lat="40.6127967" lon="15.0223017"><ele>219.0</ele><time>2026-03-28T15:35:47.8Z</time></trkpt><trkpt lat="40.61289" lon="15.02232"><ele>219.0</ele><time>2026-03-28T15:35:53.8Z</time></trkpt><trkpt lat="40.612965" lon="15.0223767"><ele>219.0</ele><time>2026-03-28T15:35:56.8Z</time></trkpt><trkpt lat="40.6130233" lon="15.02241"><ele>218.5</ele><time>2026-03-28T15:35:58.801Z</time></trkpt><trkpt lat="40.61305" lon="15.02254"><ele>218.0</ele><time>2026-03-28T15:36:01.801Z</time></trkpt><trkpt lat="40.6130683" lon="15.022645"><ele>217.5</ele><time>2026-03-28T15:36:03.8Z</time></trkpt><trkpt lat="40.613105" lon="15.0227667"><ele>217.0</ele><time>2026-03-28T15:36:05.802Z</time></trkpt><trkpt lat="40.6130967" lon="15.0228633"><ele>216.5</ele><time>2026-03-28T15:36:07.803Z</time></trkpt><trkpt lat="40.6130533" lon="15.0229533"><ele>216.0</ele><time>2026-03-28T15:36:09.802Z</time></trkpt><trkpt lat="40.6129733" lon="15.0230617"><ele>216.0</ele><time>2026-03-28T15:36:11.805Z</time></trkpt><trkpt lat="40.6129333" lon="15.0232217"><ele>216.0</ele><time>2026-03-28T15:36:13.799Z</time></trkpt><trkpt lat="40.6129233" lon="15.023315"><ele>216.0</ele><time>2026-03-28T15:36:14.8Z</time></trkpt><trkpt lat="40.6129133" lon="15.0234117"><ele>216.0</ele><time>2026-03-28T15:36:15.799Z</time></trkpt><trkpt lat="40.6129067" lon="15.0234967"><ele>216.0</ele><time>2026-03-28T15:36:16.8Z</time></trkpt><trkpt lat="40.6129017" lon="15.0235883"><ele>216.0</ele><time>2026-03-28T15:36:17.8Z</time></trkpt><trkpt lat="40.6128717" lon="15.0237283"><ele>216.0</ele><time>2026-03-28T15:36:19.799Z</time></trkpt><trkpt lat="40.6128267" lon="15.0238267"><ele>216.00000000000003</ele><time>2026-03-28T15:36:21.801Z</time></trkpt><trkpt lat="40.612885" lon="15.0236867"><ele>216.00000000000003</ele><time>2026-03-28T15:36:37.802Z</time></trkpt><trkpt lat="40.6128817" lon="15.0235567"><ele>216.0</ele><time>2026-03-28T15:36:39.799Z</time></trkpt><trkpt lat="40.61289" lon="15.02343"><ele>216.0</ele><time>2026-03-28T15:36:41.799Z</time></trkpt><trkpt lat="40.6129133" lon="15.023275"><ele>216.0</ele><time>2026-03-28T15:36:43.801Z</time></trkpt><trkpt lat="40.6129633" lon="15.0231267"><ele>216.00000000000003</ele><time>2026-03-28T15:36:45.799Z</time></trkpt><trkpt lat="40.61302" lon="15.0230367"><ele>216.00000000000003</ele><time>2026-03-28T15:36:47.799Z</time></trkpt><trkpt lat="40.613075" lon="15.0229683"><ele>216.0</ele><time>2026-03-28T15:36:49.8Z</time></trkpt><trkpt lat="40.6131033" lon="15.0228717"><ele>216.0</ele><time>2026-03-28T15:36:51.8Z</time></trkpt><trkpt lat="40.6131033" lon="15.02275"><ele>216.0</ele><time>2026-03-28T15:36:53.8Z</time></trkpt><trkpt lat="40.6130433" lon="15.0226583"><ele>216.0</ele><time>2026-03-28T15:36:55.799Z</time></trkpt><trkpt lat="40.61299" lon="15.0225967"><ele>216.0</ele><time>2026-03-28T15:36:57.799Z</time></trkpt><trkpt lat="40.6129633" lon="15.022505"><ele>216.0</ele><time>2026-03-28T15:37:00.803Z</time></trkpt><trkpt lat="40.6129083" lon="15.022405"><ele>216.0</ele><time>2026-03-28T15:37:03.8Z</time></trkpt><trkpt lat="40.6128433" lon="15.022345"><ele>216.0</ele><time>2026-03-28T15:37:06.8Z</time></trkpt><trkpt lat="40.6127817" lon="15.0222833"><ele>216.5</ele><time>2026-03-28T15:37:09.799Z</time></trkpt><trkpt lat="40.6128267" lon="15.0221667"><ele>217.0</ele><time>2026-03-28T15:37:12.799Z</time></trkpt><trkpt lat="40.61291" lon="15.0220783"><ele>217.5</ele><time>2026-03-28T15:37:14.804Z</time></trkpt><trkpt lat="40.6129733" lon="15.02201"><ele>218.0</ele><time>2026-03-28T15:37:15.801Z</time></trkpt><trkpt lat="40.6130267" lon="15.0219417"><ele>218.5</ele><time>2026-03-28T15:37:16.8Z</time></trkpt><trkpt lat="40.613075" lon="15.0218717"><ele>219.0</ele><time>2026-03-28T15:37:17.801Z</time></trkpt><trkpt lat="40.613135" lon="15.0217733"><ele>219.0</ele><time>2026-03-28T15:37:19.799Z</time></trkpt><trkpt lat="40.6131267" lon="15.0215783"><ele>218.99999999999997</ele><time>2026-03-28T15:37:21.799Z</time></trkpt><trkpt lat="40.613095" lon="15.021445"><ele>218.99999999999997</ele><time>2026-03-28T15:37:22.801Z</time></trkpt><trkpt lat="40.6130817" lon="15.0213117"><ele>219.0</ele><time>2026-03-28T15:37:23.8Z</time></trkpt><trkpt lat="40.6130733" lon="15.021205"><ele>219.0</ele><time>2026-03-28T15:37:24.8Z</time></trkpt><trkpt lat="40.6130417" lon="15.0210817"><ele>219.0</ele><time>2026-03-28T15:37:25.799Z</time></trkpt><trkpt lat="40.6129967" lon="15.0209533"><ele>218.99999999999997</ele><time>2026-03-28T15:37:26.8Z</time></trkpt><trkpt lat="40.6129617" lon="15.0208367"><ele>218.99999999999997</ele><time>2026-03-28T15:37:27.799Z</time></trkpt><trkpt lat="40.612935" lon="15.0207183"><ele>219.0</ele><time>2026-03-28T15:37:28.799Z</time></trkpt><trkpt lat="40.6129" lon="15.0206217"><ele>219.0</ele><time>2026-03-28T15:37:29.8Z</time></trkpt><trkpt lat="40.6128717" lon="15.0205317"><ele>218.0</ele><time>2026-03-28T15:37:30.8Z</time></trkpt><trkpt lat="40.612835" lon="15.0204217"><ele>216.99999999999997</ele><time>2026-03-28T15:37:31.8Z</time></trkpt><trkpt lat="40.612785" lon="15.0202867"><ele>215.99999999999997</ele><time>2026-03-28T15:37:33.799Z</time></trkpt><trkpt lat="40.6127867" lon="15.0201817"><ele>215.0</ele><time>2026-03-28T15:37:35.8Z</time></trkpt><trkpt lat="40.6128383" lon="15.0200833"><ele>214.0</ele><time>2026-03-28T15:37:37.799Z</time></trkpt><trkpt lat="40.6129167" lon="15.020045"><ele>213.99999999999997</ele><time>2026-03-28T15:37:39.8Z</time></trkpt><trkpt lat="40.6129883" lon="15.0200483"><ele>214.0</ele><time>2026-03-28T15:37:40.799Z</time></trkpt><trkpt lat="40.6130583" lon="15.0200267"><ele>214.0</ele><time>2026-03-28T15:37:41.803Z</time></trkpt><trkpt lat="40.6131017" lon="15.01996"><ele>214.0</ele><time>2026-03-28T15:37:43.801Z</time></trkpt><trkpt lat="40.6130483" lon="15.0198783"><ele>213.99999999999997</ele><time>2026-03-28T15:37:45.8Z</time></trkpt><trkpt lat="40.61294" lon="15.0197967"><ele>214.0</ele><time>2026-03-28T15:37:47.799Z</time></trkpt><trkpt lat="40.6128833" lon="15.0197217"><ele>214.33333333333331</ele><time>2026-03-28T15:37:48.801Z</time></trkpt><trkpt lat="40.6128317" lon="15.0196367"><ele>214.66666666666666</ele><time>2026-03-28T15:37:49.8Z</time></trkpt><trkpt lat="40.612775" lon="15.0195517"><ele>215.0</ele><time>2026-03-28T15:37:50.8Z</time></trkpt><trkpt lat="40.612725" lon="15.01947"><ele>215.33333333333331</ele><time>2026-03-28T15:37:51.8Z</time></trkpt><trkpt lat="40.6126733" lon="15.019395"><ele>215.66666666666666</ele><time>2026-03-28T15:37:52.801Z</time></trkpt><trkpt lat="40.6126167" lon="15.0193283"><ele>216.0</ele><time>2026-03-28T15:37:53.8Z</time></trkpt><trkpt lat="40.6125617" lon="15.0192817"><ele>213.16666666666666</ele><time>2026-03-28T15:37:54.803Z</time></trkpt><trkpt lat="40.6125017" lon="15.0192383"><ele>210.33333333333331</ele><time>2026-03-28T15:37:55.799Z</time></trkpt><trkpt lat="40.612395" lon="15.0191533"><ele>207.5</ele><time>2026-03-28T15:37:57.8Z</time></trkpt><trkpt lat="40.6123317" lon="15.0191283"><ele>204.66666666666666</ele><time>2026-03-28T15:37:58.801Z</time></trkpt><trkpt lat="40.612265" lon="15.01914"><ele>201.83333333333331</ele><time>2026-03-28T15:37:59.8Z</time></trkpt><trkpt lat="40.6121967" lon="15.0191717"><ele>199.0</ele><time>2026-03-28T15:38:00.805Z</time></trkpt><trkpt lat="40.61213" lon="15.0192183"><ele>198.99999999999997</ele><time>2026-03-28T15:38:01.802Z</time></trkpt><trkpt lat="40.61207" lon="15.019285"><ele>199.0</ele><time>2026-03-28T15:38:02.8Z</time></trkpt><trkpt lat="40.612015" lon="15.01936"><ele>199.0</ele><time>2026-03-28T15:38:03.799Z</time></trkpt><trkpt lat="40.6119633" lon="15.0194417"><ele>199.0</ele><time>2026-03-28T15:38:04.8Z</time></trkpt><trkpt lat="40.6119367" lon="15.0195417"><ele>198.99999999999997</ele><time>2026-03-28T15:38:05.803Z</time></trkpt><trkpt lat="40.611895" lon="15.0196217"><ele>199.0</ele><time>2026-03-28T15:38:06.801Z</time></trkpt><trkpt lat="40.611865" lon="15.0197017"><ele>196.99999999999997</ele><time>2026-03-28T15:38:07.802Z</time></trkpt><trkpt lat="40.6118367" lon="15.0197867"><ele>195.0</ele><time>2026-03-28T15:38:08.801Z</time></trkpt><trkpt lat="40.611815" lon="15.0198867"><ele>193.0</ele><time>2026-03-28T15:38:09.799Z</time></trkpt><trkpt lat="40.6118033" lon="15.01999"><ele>191.0</ele><time>2026-03-28T15:38:10.8Z</time></trkpt><trkpt lat="40.6117817" lon="15.0201017"><ele>189.0</ele><time>2026-03-28T15:38:11.801Z</time></trkpt><trkpt lat="40.61176" lon="15.020225"><ele>187.0</ele><time>2026-03-28T15:38:12.801Z</time></trkpt><trkpt lat="40.6117333" lon="15.0203367"><ele>187.0</ele><time>2026-03-28T15:38:13.801Z</time></trkpt><trkpt lat="40.6117017" lon="15.02045"><ele>187.0</ele><time>2026-03-28T15:38:14.801Z</time></trkpt><trkpt lat="40.6116717" lon="15.0205683"><ele>187.0</ele><time>2026-03-28T15:38:15.8Z</time></trkpt><trkpt lat="40.61166" lon="15.0206783"><ele>187.0</ele><time>2026-03-28T15:38:16.8Z</time></trkpt><trkpt lat="40.6116583" lon="15.0207917"><ele>187.0</ele><time>2026-03-28T15:38:17.8Z</time></trkpt><trkpt lat="40.6116533" lon="15.020915"><ele>187.6</ele><time>2026-03-28T15:38:18.801Z</time></trkpt><trkpt lat="40.6116233" lon="15.0210533"><ele>188.2</ele><time>2026-03-28T15:38:19.8Z</time></trkpt><trkpt lat="40.611615" lon="15.0211967"><ele>188.8</ele><time>2026-03-28T15:38:20.801Z</time></trkpt><trkpt lat="40.61161" lon="15.0213233"><ele>189.4</ele><time>2026-03-28T15:38:21.8Z</time></trkpt><trkpt lat="40.6116167" lon="15.0214433"><ele>190.0</ele><time>2026-03-28T15:38:22.801Z</time></trkpt><trkpt lat="40.61162" lon="15.0215883"><ele>189.8</ele><time>2026-03-28T15:38:23.8Z</time></trkpt><trkpt lat="40.61162" lon="15.021715"><ele>189.6</ele><time>2026-03-28T15:38:24.8Z</time></trkpt><trkpt lat="40.6116083" lon="15.0218317"><ele>189.39999999999998</ele><time>2026-03-28T15:38:25.801Z</time></trkpt><trkpt lat="40.6116033" lon="15.0219667"><ele>189.2</ele><time>2026-03-28T15:38:26.8Z</time></trkpt><trkpt lat="40.61161" lon="15.0221017"><ele>189.0</ele><time>2026-03-28T15:38:27.8Z</time></trkpt><trkpt lat="40.6116133" lon="15.0222267"><ele>189.0</ele><time>2026-03-28T15:38:28.8Z</time></trkpt><trkpt lat="40.6116083" lon="15.0223617"><ele>189.0</ele><time>2026-03-28T15:38:29.8Z</time></trkpt><trkpt lat="40.6115833" lon="15.0225333"><ele>189.0</ele><time>2026-03-28T15:38:30.8Z</time></trkpt><trkpt lat="40.6115483" lon="15.0227233"><ele>189.0</ele><time>2026-03-28T15:38:31.801Z</time></trkpt><trkpt lat="40.611515" lon="15.0229017"><ele>189.0</ele><time>2026-03-28T15:38:32.8Z</time></trkpt><trkpt lat="40.6114917" lon="15.023045"><ele>189.0</ele><time>2026-03-28T15:38:33.801Z</time></trkpt><trkpt lat="40.6114767" lon="15.02317"><ele>189.0</ele><time>2026-03-28T15:38:34.801Z</time></trkpt><trkpt lat="40.6114567" lon="15.02328"><ele>189.0</ele><time>2026-03-28T15:38:35.801Z</time></trkpt><trkpt lat="40.6114417" lon="15.023375"><ele>189.0</ele><time>2026-03-28T15:38:36.801Z</time></trkpt><trkpt lat="40.611455" lon="15.0235033"><ele>189.0</ele><time>2026-03-28T15:38:38.8Z</time></trkpt><trkpt lat="40.6114483" lon="15.0236683"><ele>189.0</ele><time>2026-03-28T15:38:40.8Z</time></trkpt><trkpt lat="40.6114367" lon="15.0237783"><ele>189.0</ele><time>2026-03-28T15:38:41.8Z</time></trkpt><trkpt lat="40.611425" lon="15.0238933"><ele>189.0</ele><time>2026-03-28T15:38:42.8Z</time></trkpt><trkpt lat="40.6114117" lon="15.024005"><ele>189.0</ele><time>2026-03-28T15:38:43.801Z</time></trkpt><trkpt lat="40.6114117" lon="15.024125"><ele>189.0</ele><time>2026-03-28T15:38:44.8Z</time></trkpt><trkpt lat="40.6114133" lon="15.0242483"><ele>189.0</ele><time>2026-03-28T15:38:45.8Z</time></trkpt><trkpt lat="40.6114033" lon="15.0243683"><ele>189.0</ele><time>2026-03-28T15:38:46.801Z</time></trkpt><trkpt lat="40.6113867" lon="15.0244883"><ele>189.0</ele><time>2026-03-28T15:38:47.8Z</time></trkpt><trkpt lat="40.6113717" lon="15.0246217"><ele>189.0</ele><time>2026-03-28T15:38:48.8Z</time></trkpt><trkpt lat="40.611365" lon="15.0247283"><ele>189.0</ele><time>2026-03-28T15:38:49.801Z</time></trkpt><trkpt lat="40.6113833" lon="15.0248533"><ele>189.0</ele><time>2026-03-28T15:38:50.8Z</time></trkpt><trkpt lat="40.6113917" lon="15.0249867"><ele>189.0</ele><time>2026-03-28T15:38:51.8Z</time></trkpt><trkpt lat="40.61141" lon="15.0251233"><ele>189.0</ele><time>2026-03-28T15:38:52.8Z</time></trkpt><trkpt lat="40.61142" lon="15.0252667"><ele>189.0</ele><time>2026-03-28T15:38:53.8Z</time></trkpt><trkpt lat="40.611435" lon="15.0254033"><ele>188.66666666666666</ele><time>2026-03-28T15:38:54.801Z</time></trkpt><trkpt lat="40.6114583" lon="15.0255317"><ele>188.33333333333334</ele><time>2026-03-28T15:38:55.8Z</time></trkpt><trkpt lat="40.61147" lon="15.02564"><ele>188.0</ele><time>2026-03-28T15:38:56.8Z</time></trkpt><trkpt lat="40.6114767" lon="15.0257317"><ele>187.66666666666669</ele><time>2026-03-28T15:38:57.802Z</time></trkpt><trkpt lat="40.6114867" lon="15.025815"><ele>187.33333333333334</ele><time>2026-03-28T15:38:58.802Z</time></trkpt><trkpt lat="40.611485" lon="15.0259383"><ele>187.0</ele><time>2026-03-28T15:39:00.8Z</time></trkpt><trkpt lat="40.6114817" lon="15.0260333"><ele>185.6</ele><time>2026-03-28T15:39:02.803Z</time></trkpt><trkpt lat="40.6114317" lon="15.0261367"><ele>184.2</ele><time>2026-03-28T15:39:04.8Z</time></trkpt><trkpt lat="40.6113633" lon="15.02621"><ele>182.8</ele><time>2026-03-28T15:39:06.8Z</time></trkpt><trkpt lat="40.6112517" lon="15.0262083"><ele>181.4</ele><time>2026-03-28T15:39:09.8Z</time></trkpt><trkpt lat="40.6111967" lon="15.02608"><ele>180.0</ele><time>2026-03-28T15:39:11.8Z</time></trkpt><trkpt lat="40.6111867" lon="15.0259967"><ele>180.0</ele><time>2026-03-28T15:39:12.8Z</time></trkpt><trkpt lat="40.611175" lon="15.0258667"><ele>180.0</ele><time>2026-03-28T15:39:13.8Z</time></trkpt><trkpt lat="40.611155" lon="15.025725"><ele>180.0</ele><time>2026-03-28T15:39:14.8Z</time></trkpt><trkpt lat="40.6111283" lon="15.0255783"><ele>180.0</ele><time>2026-03-28T15:39:15.802Z</time></trkpt><trkpt lat="40.611085" lon="15.0254167"><ele>178.0</ele><time>2026-03-28T15:39:16.8Z</time></trkpt><trkpt lat="40.6110383" lon="15.0252717"><ele>176.0</ele><time>2026-03-28T15:39:17.8Z</time></trkpt><trkpt lat="40.6109933" lon="15.0252033"><ele>174.0</ele><time>2026-03-28T15:39:18.8Z</time></trkpt><trkpt lat="40.610965" lon="15.025125"><ele>172.0</ele><time>2026-03-28T15:39:19.8Z</time></trkpt><trkpt lat="40.6109333" lon="15.0250533"><ele>170.0</ele><time>2026-03-28T15:39:20.8Z</time></trkpt><trkpt lat="40.6109033" lon="15.02497"><ele>168.0</ele><time>2026-03-28T15:39:21.801Z</time></trkpt><trkpt lat="40.6108733" lon="15.024895"><ele>168.0</ele><time>2026-03-28T15:39:22.8Z</time></trkpt><trkpt lat="40.6108017" lon="15.0248883"><ele>168.0</ele><time>2026-03-28T15:39:23.8Z</time></trkpt><trkpt lat="40.6107233" lon="15.024875"><ele>168.0</ele><time>2026-03-28T15:39:24.8Z</time></trkpt><trkpt lat="40.6106233" lon="15.0248933"><ele>168.0</ele><time>2026-03-28T15:39:25.8Z</time></trkpt><trkpt lat="40.6105033" lon="15.02495"><ele>168.0</ele><time>2026-03-28T15:39:26.8Z</time></trkpt><trkpt lat="40.6104" lon="15.0249833"><ele>166.33333333333334</ele><time>2026-03-28T15:39:27.8Z</time></trkpt><trkpt lat="40.6102933" lon="15.0250133"><ele>164.66666666666666</ele><time>2026-03-28T15:39:28.8Z</time></trkpt><trkpt lat="40.6101933" lon="15.0250283"><ele>163.0</ele><time>2026-03-28T15:39:29.801Z</time></trkpt><trkpt lat="40.61012" lon="15.025025"><ele>161.33333333333331</ele><time>2026-03-28T15:39:30.8Z</time></trkpt><trkpt lat="40.610055" lon="15.0250117"><ele>159.66666666666666</ele><time>2026-03-28T15:39:32.8Z</time></trkpt><trkpt lat="40.6099917" lon="15.025"><ele>158.0</ele><time>2026-03-28T15:39:34.802Z</time></trkpt><trkpt lat="40.6099483" lon="15.0248733"><ele>158.0</ele><time>2026-03-28T15:39:37.801Z</time></trkpt><trkpt lat="40.60996" lon="15.024745"><ele>158.0</ele><time>2026-03-28T15:39:39.8Z</time></trkpt><trkpt lat="40.6099733" lon="15.02464"><ele>158.0</ele><time>2026-03-28T15:39:40.8Z</time></trkpt><trkpt lat="40.6099567" lon="15.024515"><ele>158.0</ele><time>2026-03-28T15:39:42.8Z</time></trkpt><trkpt lat="40.609915" lon="15.0244283"><ele>158.0</ele><time>2026-03-28T15:39:44.8Z</time></trkpt><trkpt lat="40.60987" lon="15.0243433"><ele>158.0</ele><time>2026-03-28T15:39:47.8Z</time></trkpt><trkpt lat="40.6099233" lon="15.024285"><ele>158.0</ele><time>2026-03-28T15:39:49.8Z</time></trkpt><trkpt lat="40.60998" lon="15.024245"><ele>158.0</ele><time>2026-03-28T15:39:51.801Z</time></trkpt><trkpt lat="40.6099817" lon="15.024135"><ele>158.0</ele><time>2026-03-28T15:39:58.8Z</time></trkpt><trkpt lat="40.609955" lon="15.0239767"><ele>158.0</ele><time>2026-03-28T15:40:00.801Z</time></trkpt><trkpt lat="40.60993" lon="15.0237317"><ele>158.0</ele><time>2026-03-28T15:40:02.801Z</time></trkpt><trkpt lat="40.609915" lon="15.02355"><ele>158.0</ele><time>2026-03-28T15:40:03.8Z</time></trkpt><trkpt lat="40.6098983" lon="15.02335"><ele>158.0</ele><time>2026-03-28T15:40:04.8Z</time></trkpt><trkpt lat="40.6098867" lon="15.02316"><ele>158.0</ele><time>2026-03-28T15:40:05.8Z</time></trkpt><trkpt lat="40.6098783" lon="15.0229667"><ele>158.0</ele><time>2026-03-28T15:40:06.802Z</time></trkpt><trkpt lat="40.6098683" lon="15.0227733"><ele>158.0</ele><time>2026-03-28T15:40:07.8Z</time></trkpt><trkpt lat="40.6098567" lon="15.0226017"><ele>158.0</ele><time>2026-03-28T15:40:08.8Z</time></trkpt><trkpt lat="40.6098483" lon="15.022445"><ele>158.0</ele><time>2026-03-28T15:40:09.801Z</time></trkpt><trkpt lat="40.6098433" lon="15.022295"><ele>157.83333333333331</ele><time>2026-03-28T15:40:10.802Z</time></trkpt><trkpt lat="40.609835" lon="15.0221717"><ele>157.66666666666666</ele><time>2026-03-28T15:40:11.8Z</time></trkpt><trkpt lat="40.60983" lon="15.0220617"><ele>157.5</ele><time>2026-03-28T15:40:12.802Z</time></trkpt><trkpt lat="40.60983" lon="15.02196"><ele>157.33333333333334</ele><time>2026-03-28T15:40:13.8Z</time></trkpt><trkpt lat="40.6098367" lon="15.0218467"><ele>157.16666666666669</ele><time>2026-03-28T15:40:14.801Z</time></trkpt><trkpt lat="40.6098467" lon="15.02171"><ele>157.0</ele><time>2026-03-28T15:40:15.802Z</time></trkpt><trkpt lat="40.6098633" lon="15.0215567"><ele>156.6</ele><time>2026-03-28T15:40:16.799Z</time></trkpt><trkpt lat="40.6098817" lon="15.0214067"><ele>156.2</ele><time>2026-03-28T15:40:17.802Z</time></trkpt><trkpt lat="40.6098967" lon="15.021255"><ele>155.8</ele><time>2026-03-28T15:40:18.8Z</time></trkpt><trkpt lat="40.6099017" lon="15.0211133"><ele>155.4</ele><time>2026-03-28T15:40:19.8Z</time></trkpt><trkpt lat="40.60991" lon="15.020975"><ele>155.0</ele><time>2026-03-28T15:40:20.799Z</time></trkpt><trkpt lat="40.60992" lon="15.0208483"><ele>154.6</ele><time>2026-03-28T15:40:21.799Z</time></trkpt><trkpt lat="40.6099333" lon="15.020725"><ele>154.2</ele><time>2026-03-28T15:40:22.801Z</time></trkpt><trkpt lat="40.609945" lon="15.0206083"><ele>153.8</ele><time>2026-03-28T15:40:23.799Z</time></trkpt><trkpt lat="40.6099533" lon="15.0204967"><ele>153.4</ele><time>2026-03-28T15:40:24.799Z</time></trkpt><trkpt lat="40.60996" lon="15.0203783"><ele>153.0</ele><time>2026-03-28T15:40:25.799Z</time></trkpt><trkpt lat="40.60997" lon="15.0202517"><ele>153.0</ele><time>2026-03-28T15:40:26.802Z</time></trkpt><trkpt lat="40.60998" lon="15.020085"><ele>153.0</ele><time>2026-03-28T15:40:27.799Z</time></trkpt><trkpt lat="40.6100067" lon="15.019905"><ele>153.0</ele><time>2026-03-28T15:40:28.799Z</time></trkpt><trkpt lat="40.6100267" lon="15.0197083"><ele>153.0</ele><time>2026-03-28T15:40:29.799Z</time></trkpt><trkpt lat="40.610045" lon="15.0195133"><ele>152.33333333333334</ele><time>2026-03-28T15:40:30.8Z</time></trkpt><trkpt lat="40.6100633" lon="15.01932"><ele>151.66666666666669</ele><time>2026-03-28T15:40:31.801Z</time></trkpt><trkpt lat="40.6100733" lon="15.019115"><ele>151.0</ele><time>2026-03-28T15:40:32.8Z</time></trkpt><trkpt lat="40.6100867" lon="15.0189117"><ele>150.25</ele><time>2026-03-28T15:40:33.8Z</time></trkpt><trkpt lat="40.6101033" lon="15.0187083"><ele>149.5</ele><time>2026-03-28T15:40:34.8Z</time></trkpt><trkpt lat="40.6101167" lon="15.0185133"><ele>148.75</ele><time>2026-03-28T15:40:35.8Z</time></trkpt><trkpt lat="40.6101267" lon="15.018325"><ele>148.0</ele><time>2026-03-28T15:40:36.802Z</time></trkpt><trkpt lat="40.6101467" lon="15.0181383"><ele>148.0</ele><time>2026-03-28T15:40:37.799Z</time></trkpt><trkpt lat="40.6101583" lon="15.01797"><ele>148.0</ele><time>2026-03-28T15:40:38.801Z</time></trkpt><trkpt lat="40.6101667" lon="15.0178333"><ele>148.0</ele><time>2026-03-28T15:40:39.801Z</time></trkpt><trkpt lat="40.6101717" lon="15.0176967"><ele>148.0</ele><time>2026-03-28T15:40:40.801Z</time></trkpt><trkpt lat="40.61018" lon="15.0175667"><ele>148.0</ele><time>2026-03-28T15:40:41.802Z</time></trkpt><trkpt lat="40.610185" lon="15.0174433"><ele>148.0</ele><time>2026-03-28T15:40:42.802Z</time></trkpt><trkpt lat="40.6101883" lon="15.017335"><ele>148.0</ele><time>2026-03-28T15:40:43.801Z</time></trkpt><trkpt lat="40.61019" lon="15.017235"><ele>148.0</ele><time>2026-03-28T15:40:44.8Z</time></trkpt><trkpt lat="40.610195" lon="15.0171317"><ele>148.0</ele><time>2026-03-28T15:40:45.802Z</time></trkpt><trkpt lat="40.6102067" lon="15.01704"><ele>148.0</ele><time>2026-03-28T15:40:46.799Z</time></trkpt><trkpt lat="40.610225" lon="15.016955"><ele>148.0</ele><time>2026-03-28T15:40:47.799Z</time></trkpt><trkpt lat="40.6102417" lon="15.0168683"><ele>148.0</ele><time>2026-03-28T15:40:48.8Z</time></trkpt><trkpt lat="40.61024" lon="15.0167817"><ele>148.0</ele><time>2026-03-28T15:40:49.802Z</time></trkpt><trkpt lat="40.6102433" lon="15.0166983"><ele>148.0</ele><time>2026-03-28T15:40:50.799Z</time></trkpt><trkpt lat="40.6102533" lon="15.0165583"><ele>148.0</ele><time>2026-03-28T15:40:52.8Z</time></trkpt><trkpt lat="40.61028" lon="15.016465"><ele>148.0</ele><time>2026-03-28T15:40:54.799Z</time></trkpt><trkpt lat="40.6102283" lon="15.0163867"><ele>148.0</ele><time>2026-03-28T15:40:57.802Z</time></trkpt><trkpt lat="40.61016" lon="15.0162967"><ele>148.0</ele><time>2026-03-28T15:40:59.799Z</time></trkpt><trkpt lat="40.6101033" lon="15.0162417"><ele>147.0</ele><time>2026-03-28T15:41:01.801Z</time></trkpt><trkpt lat="40.61006" lon="15.0161383"><ele>146.0</ele><time>2026-03-28T15:41:04.799Z</time></trkpt><trkpt lat="40.610035" lon="15.0160483"><ele>145.0</ele><time>2026-03-28T15:41:06.8Z</time></trkpt><trkpt lat="40.61002" lon="15.015925"><ele>144.0</ele><time>2026-03-28T15:41:08.802Z</time></trkpt><trkpt lat="40.6100283" lon="15.0158333"><ele>143.0</ele><time>2026-03-28T15:41:10.8Z</time></trkpt><trkpt lat="40.610015" lon="15.0157283"><ele>142.0</ele><time>2026-03-28T15:41:13.801Z</time></trkpt><trkpt lat="40.6100033" lon="15.0158617"><ele>142.0</ele><time>2026-03-28T15:41:17.801Z</time></trkpt><trkpt lat="40.610045" lon="15.0159883"><ele>142.0</ele><time>2026-03-28T15:41:18.8Z</time></trkpt><trkpt lat="40.610075" lon="15.016095"><ele>142.0</ele><time>2026-03-28T15:41:19.801Z</time></trkpt><trkpt lat="40.6100983" lon="15.01619"><ele>142.0</ele><time>2026-03-28T15:41:20.8Z</time></trkpt><trkpt lat="40.6101217" lon="15.016275"><ele>142.0</ele><time>2026-03-28T15:41:21.8Z</time></trkpt><trkpt lat="40.6101817" lon="15.0163917"><ele>142.0</ele><time>2026-03-28T15:41:23.803Z</time></trkpt><trkpt lat="40.6102433" lon="15.0165083"><ele>142.0</ele><time>2026-03-28T15:41:25.801Z</time></trkpt><trkpt lat="40.6103133" lon="15.0164383"><ele>142.0</ele><time>2026-03-28T15:41:28.8Z</time></trkpt><trkpt lat="40.6103617" lon="15.01628"><ele>142.0</ele><time>2026-03-28T15:41:30.799Z</time></trkpt><trkpt lat="40.61038" lon="15.01617"><ele>142.0</ele><time>2026-03-28T15:41:31.799Z</time></trkpt><trkpt lat="40.6104083" lon="15.016075"><ele>142.0</ele><time>2026-03-28T15:41:32.8Z</time></trkpt><trkpt lat="40.6104317" lon="15.0159733"><ele>141.79999999999998</ele><time>2026-03-28T15:41:33.799Z</time></trkpt><trkpt lat="40.610455" lon="15.01586"><ele>141.6</ele><time>2026-03-28T15:41:34.799Z</time></trkpt><trkpt lat="40.6104883" lon="15.015735"><ele>141.39999999999998</ele><time>2026-03-28T15:41:35.8Z</time></trkpt><trkpt lat="40.610525" lon="15.0156117"><ele>141.2</ele><time>2026-03-28T15:41:36.799Z</time></trkpt><trkpt lat="40.6105617" lon="15.0154967"><ele>141.0</ele><time>2026-03-28T15:41:37.799Z</time></trkpt><trkpt lat="40.6106" lon="15.0153733"><ele>141.0</ele><time>2026-03-28T15:41:38.8Z</time></trkpt><trkpt lat="40.6106333" lon="15.0152567"><ele>141.0</ele><time>2026-03-28T15:41:39.801Z</time></trkpt><trkpt lat="40.6106633" lon="15.01515"><ele>141.0</ele><time>2026-03-28T15:41:40.799Z</time></trkpt><trkpt lat="40.6106967" lon="15.0150483"><ele>141.0</ele><time>2026-03-28T15:41:41.803Z</time></trkpt><trkpt lat="40.6107317" lon="15.0149483"><ele>141.0</ele><time>2026-03-28T15:41:42.801Z</time></trkpt><trkpt lat="40.610765" lon="15.014855"><ele>141.0</ele><time>2026-03-28T15:41:43.799Z</time></trkpt><trkpt lat="40.6107917" lon="15.0147517"><ele>141.0</ele><time>2026-03-28T15:41:44.802Z</time></trkpt><trkpt lat="40.610815" lon="15.0146583"><ele>141.0</ele><time>2026-03-28T15:41:45.801Z</time></trkpt><trkpt lat="40.6108383" lon="15.014575"><ele>141.0</ele><time>2026-03-28T15:41:46.799Z</time></trkpt><trkpt lat="40.6108667" lon="15.0144933"><ele>141.0</ele><time>2026-03-28T15:41:47.799Z</time></trkpt><trkpt lat="40.6109017" lon="15.014345"><ele>141.0</ele><time>2026-03-28T15:41:49.799Z</time></trkpt><trkpt lat="40.61094" lon="15.0141767"><ele>141.0</ele><time>2026-03-28T15:41:51.801Z</time></trkpt><trkpt lat="40.610965" lon="15.0140867"><ele>141.0</ele><time>2026-03-28T15:41:52.799Z</time></trkpt><trkpt lat="40.61099" lon="15.014"><ele>141.0</ele><time>2026-03-28T15:41:53.801Z</time></trkpt><trkpt lat="40.611015" lon="15.0139033"><ele>141.0</ele><time>2026-03-28T15:41:54.8Z</time></trkpt><trkpt lat="40.6110433" lon="15.0137583"><ele>141.0</ele><time>2026-03-28T15:41:56.799Z</time></trkpt><trkpt lat="40.6110783" lon="15.013605"><ele>141.0</ele><time>2026-03-28T15:41:58.8Z</time></trkpt><trkpt lat="40.61112" lon="15.0134683"><ele>141.0</ele><time>2026-03-28T15:42:00.8Z</time></trkpt><trkpt lat="40.6111517" lon="15.0133367"><ele>141.0</ele><time>2026-03-28T15:42:02.8Z</time></trkpt><trkpt lat="40.6111667" lon="15.0132417"><ele>141.0</ele><time>2026-03-28T15:42:03.801Z</time></trkpt><trkpt lat="40.61118" lon="15.0131483"><ele>141.0</ele><time>2026-03-28T15:42:04.804Z</time></trkpt><trkpt lat="40.6112133" lon="15.0129817"><ele>141.6</ele><time>2026-03-28T15:42:06.8Z</time></trkpt><trkpt lat="40.6112233" lon="15.0128867"><ele>142.2</ele><time>2026-03-28T15:42:07.8Z</time></trkpt><trkpt lat="40.6112517" lon="15.0127833"><ele>142.8</ele><time>2026-03-28T15:42:08.799Z</time></trkpt><trkpt lat="40.611285" lon="15.012685"><ele>143.4</ele><time>2026-03-28T15:42:09.8Z</time></trkpt><trkpt lat="40.61126" lon="15.0125817"><ele>144.0</ele><time>2026-03-28T15:42:10.799Z</time></trkpt><trkpt lat="40.611285" lon="15.0124117"><ele>144.0</ele><time>2026-03-28T15:42:12.8Z</time></trkpt><trkpt lat="40.6113033" lon="15.0123233"><ele>144.0</ele><time>2026-03-28T15:42:13.801Z</time></trkpt><trkpt lat="40.61131" lon="15.0122367"><ele>144.0</ele><time>2026-03-28T15:42:14.8Z</time></trkpt><trkpt lat="40.6113183" lon="15.012145"><ele>144.0</ele><time>2026-03-28T15:42:15.8Z</time></trkpt><trkpt lat="40.6113333" lon="15.0120467"><ele>144.0</ele><time>2026-03-28T15:42:16.801Z</time></trkpt><trkpt lat="40.6113467" lon="15.01195"><ele>144.0</ele><time>2026-03-28T15:42:17.802Z</time></trkpt><trkpt lat="40.611365" lon="15.0118233"><ele>144.0</ele><time>2026-03-28T15:42:18.799Z</time></trkpt><trkpt lat="40.6113833" lon="15.0116983"><ele>144.0</ele><time>2026-03-28T15:42:19.8Z</time></trkpt><trkpt lat="40.6113967" lon="15.01156"><ele>144.0</ele><time>2026-03-28T15:42:20.799Z</time></trkpt><trkpt lat="40.6114083" lon="15.011425"><ele>144.0</ele><time>2026-03-28T15:42:21.801Z</time></trkpt><trkpt lat="40.6114217" lon="15.01127"><ele>144.0</ele><time>2026-03-28T15:42:22.801Z</time></trkpt><trkpt lat="40.61144" lon="15.011105"><ele>144.0</ele><time>2026-03-28T15:42:23.799Z</time></trkpt><trkpt lat="40.6114583" lon="15.0109533"><ele>144.0</ele><time>2026-03-28T15:42:24.799Z</time></trkpt><trkpt lat="40.6114733" lon="15.0108167"><ele>144.0</ele><time>2026-03-28T15:42:25.8Z</time></trkpt><trkpt lat="40.6114767" lon="15.0106983"><ele>144.0</ele><time>2026-03-28T15:42:26.8Z</time></trkpt><trkpt lat="40.6114783" lon="15.0106"><ele>144.0</ele><time>2026-03-28T15:42:27.799Z</time></trkpt><trkpt lat="40.6114833" lon="15.0105017"><ele>144.0</ele><time>2026-03-28T15:42:28.799Z</time></trkpt><trkpt lat="40.6115083" lon="15.0103467"><ele>144.0</ele><time>2026-03-28T15:42:30.799Z</time></trkpt><trkpt lat="40.6115183" lon="15.010245"><ele>144.0</ele><time>2026-03-28T15:42:31.801Z</time></trkpt><trkpt lat="40.6115367" lon="15.01014"><ele>144.0</ele><time>2026-03-28T15:42:32.801Z</time></trkpt><trkpt lat="40.6115583" lon="15.01004"><ele>144.0</ele><time>2026-03-28T15:42:33.801Z</time></trkpt><trkpt lat="40.6116017" lon="15.0099183"><ele>143.25</ele><time>2026-03-28T15:42:34.8Z</time></trkpt><trkpt lat="40.611645" lon="15.00978"><ele>142.5</ele><time>2026-03-28T15:42:35.8Z</time></trkpt><trkpt lat="40.6116833" lon="15.0096433"><ele>141.75</ele><time>2026-03-28T15:42:36.799Z</time></trkpt><trkpt lat="40.61172" lon="15.0095067"><ele>141.0</ele><time>2026-03-28T15:42:37.8Z</time></trkpt><trkpt lat="40.6117567" lon="15.00936"><ele>141.0</ele><time>2026-03-28T15:42:38.8Z</time></trkpt><trkpt lat="40.6117933" lon="15.0092317"><ele>141.0</ele><time>2026-03-28T15:42:39.799Z</time></trkpt><trkpt lat="40.61183" lon="15.0091"><ele>141.0</ele><time>2026-03-28T15:42:40.8Z</time></trkpt><trkpt lat="40.6118533" lon="15.0089817"><ele>141.0</ele><time>2026-03-28T15:42:41.8Z</time></trkpt><trkpt lat="40.61187" lon="15.0088717"><ele>141.0</ele><time>2026-03-28T15:42:42.799Z</time></trkpt><trkpt lat="40.611895" lon="15.0087667"><ele>141.16666666666666</ele><time>2026-03-28T15:42:43.8Z</time></trkpt><trkpt lat="40.6119167" lon="15.0086683"><ele>141.33333333333334</ele><time>2026-03-28T15:42:44.801Z</time></trkpt><trkpt lat="40.6119333" lon="15.0085617"><ele>141.5</ele><time>2026-03-28T15:42:45.8Z</time></trkpt><trkpt lat="40.611945" lon="15.00846"><ele>141.66666666666669</ele><time>2026-03-28T15:42:46.8Z</time></trkpt><trkpt lat="40.61196" lon="15.0083667"><ele>141.83333333333334</ele><time>2026-03-28T15:42:47.8Z</time></trkpt><trkpt lat="40.6119783" lon="15.0082783"><ele>142.0</ele><time>2026-03-28T15:42:48.799Z</time></trkpt><trkpt lat="40.6119983" lon="15.0081817"><ele>144.66666666666669</ele><time>2026-03-28T15:42:49.801Z</time></trkpt><trkpt lat="40.6120267" lon="15.0080967"><ele>147.33333333333334</ele><time>2026-03-28T15:42:50.801Z</time></trkpt><trkpt lat="40.6120533" lon="15.008015"><ele>150.0</ele><time>2026-03-28T15:42:51.799Z</time></trkpt><trkpt lat="40.6120733" lon="15.007935"><ele>152.66666666666666</ele><time>2026-03-28T15:42:52.799Z</time></trkpt><trkpt lat="40.6121083" lon="15.00778"><ele>155.33333333333331</ele><time>2026-03-28T15:42:54.801Z</time></trkpt><trkpt lat="40.612135" lon="15.0077033"><ele>158.0</ele><time>2026-03-28T15:42:55.799Z</time></trkpt><trkpt lat="40.6121667" lon="15.0076267"><ele>158.0</ele><time>2026-03-28T15:42:56.799Z</time></trkpt><trkpt lat="40.6121983" lon="15.007545"><ele>158.0</ele><time>2026-03-28T15:42:57.801Z</time></trkpt><trkpt lat="40.612235" lon="15.0074517"><ele>158.0</ele><time>2026-03-28T15:42:58.8Z</time></trkpt><trkpt lat="40.6122733" lon="15.0073467"><ele>158.0</ele><time>2026-03-28T15:42:59.799Z</time></trkpt><trkpt lat="40.6123067" lon="15.0072433"><ele>158.0</ele><time>2026-03-28T15:43:00.801Z</time></trkpt><trkpt lat="40.6123317" lon="15.00713"><ele>158.0</ele><time>2026-03-28T15:43:01.802Z</time></trkpt><trkpt lat="40.6123517" lon="15.0070233"><ele>157.8</ele><time>2026-03-28T15:43:02.8Z</time></trkpt><trkpt lat="40.6123683" lon="15.00692"><ele>157.60000000000002</ele><time>2026-03-28T15:43:03.8Z</time></trkpt><trkpt lat="40.612375" lon="15.0068117"><ele>157.39999999999998</ele><time>2026-03-28T15:43:04.8Z</time></trkpt><trkpt lat="40.6123767" lon="15.0066833"><ele>157.2</ele><time>2026-03-28T15:43:06.803Z</time></trkpt><trkpt lat="40.6124317" lon="15.0065633"><ele>157.0</ele><time>2026-03-28T15:43:09.802Z</time></trkpt><trkpt lat="40.6124783" lon="15.0064483"><ele>156.83333333333334</ele><time>2026-03-28T15:43:11.8Z</time></trkpt><trkpt lat="40.6125067" lon="15.0063633"><ele>156.66666666666669</ele><time>2026-03-28T15:43:12.8Z</time></trkpt><trkpt lat="40.612535" lon="15.0062383"><ele>156.5</ele><time>2026-03-28T15:43:14.799Z</time></trkpt><trkpt lat="40.6125467" lon="15.0061517"><ele>156.33333333333334</ele><time>2026-03-28T15:43:15.801Z</time></trkpt><trkpt lat="40.612575" lon="15.0060483"><ele>156.16666666666666</ele><time>2026-03-28T15:43:16.799Z</time></trkpt><trkpt lat="40.6125917" lon="15.0059533"><ele>156.0</ele><time>2026-03-28T15:43:17.799Z</time></trkpt><trkpt lat="40.612605" lon="15.005845"><ele>156.4</ele><time>2026-03-28T15:43:18.799Z</time></trkpt><trkpt lat="40.612625" lon="15.00572"><ele>156.8</ele><time>2026-03-28T15:43:19.8Z</time></trkpt><trkpt lat="40.61264" lon="15.00559"><ele>157.20000000000002</ele><time>2026-03-28T15:43:20.8Z</time></trkpt><trkpt lat="40.6126533" lon="15.0054767"><ele>157.6</ele><time>2026-03-28T15:43:21.8Z</time></trkpt><trkpt lat="40.6126633" lon="15.0053767"><ele>158.0</ele><time>2026-03-28T15:43:22.801Z</time></trkpt><trkpt lat="40.6126667" lon="15.005215"><ele>158.0</ele><time>2026-03-28T15:43:24.801Z</time></trkpt><trkpt lat="40.6126667" lon="15.0051283"><ele>158.0</ele><time>2026-03-28T15:43:25.799Z</time></trkpt><trkpt lat="40.6126633" lon="15.005005"><ele>158.0</ele><time>2026-03-28T15:43:27.801Z</time></trkpt><trkpt lat="40.61267" lon="15.00492"><ele>158.0</ele><time>2026-03-28T15:43:29.8Z</time></trkpt><trkpt lat="40.6126417" lon="15.0047767"><ele>158.0</ele><time>2026-03-28T15:43:31.799Z</time></trkpt><trkpt lat="40.612635" lon="15.0046917"><ele>158.0</ele><time>2026-03-28T15:43:32.799Z</time></trkpt><trkpt lat="40.6126617" lon="15.0045183"><ele>158.16666666666666</ele><time>2026-03-28T15:43:34.801Z</time></trkpt><trkpt lat="40.6126833" lon="15.004405"><ele>158.33333333333331</ele><time>2026-03-28T15:43:35.801Z</time></trkpt><trkpt lat="40.6127133" lon="15.0042917"><ele>158.5</ele><time>2026-03-28T15:43:36.801Z</time></trkpt><trkpt lat="40.61274" lon="15.0042"><ele>158.66666666666666</ele><time>2026-03-28T15:43:37.799Z</time></trkpt><trkpt lat="40.6127717" lon="15.0041233"><ele>158.83333333333334</ele><time>2026-03-28T15:43:38.8Z</time></trkpt><trkpt lat="40.612795" lon="15.00397"><ele>159.0</ele><time>2026-03-28T15:43:40.799Z</time></trkpt><trkpt lat="40.6128083" lon="15.0038633"><ele>158.5</ele><time>2026-03-28T15:43:41.802Z</time></trkpt><trkpt lat="40.6127933" lon="15.00377"><ele>158.0</ele><time>2026-03-28T15:43:42.801Z</time></trkpt><trkpt lat="40.6127733" lon="15.0036467"><ele>157.5</ele><time>2026-03-28T15:43:43.8Z</time></trkpt><trkpt lat="40.61277" lon="15.0035517"><ele>157.0</ele><time>2026-03-28T15:43:44.8Z</time></trkpt><trkpt lat="40.6127767" lon="15.003435"><ele>156.5</ele><time>2026-03-28T15:43:45.801Z</time></trkpt><trkpt lat="40.6127867" lon="15.00331"><ele>156.0</ele><time>2026-03-28T15:43:46.8Z</time></trkpt><trkpt lat="40.612795" lon="15.0031917"><ele>156.0</ele><time>2026-03-28T15:43:47.801Z</time></trkpt><trkpt lat="40.6128083" lon="15.0030867"><ele>156.0</ele><time>2026-03-28T15:43:48.8Z</time></trkpt><trkpt lat="40.6128217" lon="15.0030033"><ele>156.0</ele><time>2026-03-28T15:43:49.801Z</time></trkpt><trkpt lat="40.6128567" lon="15.0028617"><ele>156.0</ele><time>2026-03-28T15:43:51.8Z</time></trkpt><trkpt lat="40.6128867" lon="15.0027317"><ele>156.0</ele><time>2026-03-28T15:43:53.8Z</time></trkpt><trkpt lat="40.6129067" lon="15.0025883"><ele>159.8</ele><time>2026-03-28T15:43:55.8Z</time></trkpt><trkpt lat="40.6129267" lon="15.0024983"><ele>163.6</ele><time>2026-03-28T15:43:56.803Z</time></trkpt><trkpt lat="40.61295" lon="15.0024017"><ele>167.4</ele><time>2026-03-28T15:43:57.8Z</time></trkpt><trkpt lat="40.6129733" lon="15.00226"><ele>171.2</ele><time>2026-03-28T15:43:58.801Z</time></trkpt><trkpt lat="40.6129933" lon="15.00213"><ele>175.0</ele><time>2026-03-28T15:43:59.801Z</time></trkpt><trkpt lat="40.61302" lon="15.0020117"><ele>175.0</ele><time>2026-03-28T15:44:00.8Z</time></trkpt><trkpt lat="40.6130367" lon="15.001905"><ele>175.0</ele><time>2026-03-28T15:44:01.801Z</time></trkpt><trkpt lat="40.613045" lon="15.0018067"><ele>175.0</ele><time>2026-03-28T15:44:02.801Z</time></trkpt><trkpt lat="40.6130617" lon="15.0017083"><ele>175.0</ele><time>2026-03-28T15:44:03.802Z</time></trkpt><trkpt lat="40.6130767" lon="15.0016133"><ele>175.0</ele><time>2026-03-28T15:44:04.801Z</time></trkpt><trkpt lat="40.6130867" lon="15.00152"><ele>175.0</ele><time>2026-03-28T15:44:05.8Z</time></trkpt><trkpt lat="40.6130983" lon="15.0014233"><ele>174.4</ele><time>2026-03-28T15:44:06.802Z</time></trkpt><trkpt lat="40.613115" lon="15.00131"><ele>173.8</ele><time>2026-03-28T15:44:07.801Z</time></trkpt><trkpt lat="40.613145" lon="15.001185"><ele>173.2</ele><time>2026-03-28T15:44:08.802Z</time></trkpt><trkpt lat="40.61318" lon="15.0010367"><ele>172.6</ele><time>2026-03-28T15:44:09.8Z</time></trkpt><trkpt lat="40.61321" lon="15.0008717"><ele>172.0</ele><time>2026-03-28T15:44:10.804Z</time></trkpt><trkpt lat="40.613245" lon="15.00074"><ele>171.5</ele><time>2026-03-28T15:44:11.8Z</time></trkpt><trkpt lat="40.6132817" lon="15.0006383"><ele>171.0</ele><time>2026-03-28T15:44:12.8Z</time></trkpt><trkpt lat="40.61331" lon="15.0005483"><ele>170.5</ele><time>2026-03-28T15:44:13.801Z</time></trkpt><trkpt lat="40.6133267" lon="15.0004667"><ele>170.0</ele><time>2026-03-28T15:44:14.8Z</time></trkpt><trkpt lat="40.6133533" lon="15.00031"><ele>169.5</ele><time>2026-03-28T15:44:16.8Z</time></trkpt><trkpt lat="40.6133567" lon="15.00021"><ele>169.0</ele><time>2026-03-28T15:44:17.799Z</time></trkpt><trkpt lat="40.6133633" lon="15.0001067"><ele>169.0</ele><time>2026-03-28T15:44:18.8Z</time></trkpt><trkpt lat="40.61335" lon="15.00001"><ele>169.0</ele><time>2026-03-28T15:44:19.799Z</time></trkpt><trkpt lat="40.61334" lon="14.99991"><ele>169.0</ele><time>2026-03-28T15:44:20.8Z</time></trkpt><trkpt lat="40.613335" lon="14.9998"><ele>169.0</ele><time>2026-03-28T15:44:21.799Z</time></trkpt><trkpt lat="40.6133617" lon="14.9996683"><ele>169.0</ele><time>2026-03-28T15:44:22.799Z</time></trkpt><trkpt lat="40.613395" lon="14.999545"><ele>169.0</ele><time>2026-03-28T15:44:23.799Z</time></trkpt><trkpt lat="40.6134333" lon="14.9994267"><ele>169.0</ele><time>2026-03-28T15:44:24.803Z</time></trkpt><trkpt lat="40.6134633" lon="14.9993133"><ele>169.0</ele><time>2026-03-28T15:44:25.8Z</time></trkpt><trkpt lat="40.6134783" lon="14.9992"><ele>169.0</ele><time>2026-03-28T15:44:26.799Z</time></trkpt><trkpt lat="40.613495" lon="14.9990867"><ele>169.0</ele><time>2026-03-28T15:44:27.799Z</time></trkpt><trkpt lat="40.6135167" lon="14.9989733"><ele>169.0</ele><time>2026-03-28T15:44:28.801Z</time></trkpt><trkpt lat="40.6135517" lon="14.9988583"><ele>169.0</ele><time>2026-03-28T15:44:29.799Z</time></trkpt><trkpt lat="40.6135967" lon="14.9987267"><ele>168.39999999999998</ele><time>2026-03-28T15:44:30.8Z</time></trkpt><trkpt lat="40.6136383" lon="14.9985967"><ele>167.8</ele><time>2026-03-28T15:44:31.802Z</time></trkpt><trkpt lat="40.613675" lon="14.9984783"><ele>167.2</ele><time>2026-03-28T15:44:32.799Z</time></trkpt><trkpt lat="40.6137133" lon="14.9983567"><ele>166.60000000000002</ele><time>2026-03-28T15:44:33.8Z</time></trkpt><trkpt lat="40.61375" lon="14.9982567"><ele>166.0</ele><time>2026-03-28T15:44:34.799Z</time></trkpt><trkpt lat="40.6137867" lon="14.998155"><ele>169.0</ele><time>2026-03-28T15:44:35.799Z</time></trkpt><trkpt lat="40.6138317" lon="14.998055"><ele>172.0</ele><time>2026-03-28T15:44:36.799Z</time></trkpt><trkpt lat="40.613865" lon="14.9979283"><ele>175.0</ele><time>2026-03-28T15:44:37.8Z</time></trkpt><trkpt lat="40.6139" lon="14.9978033"><ele>178.0</ele><time>2026-03-28T15:44:38.8Z</time></trkpt><trkpt lat="40.6139233" lon="14.99768"><ele>181.0</ele><time>2026-03-28T15:44:39.8Z</time></trkpt><trkpt lat="40.613945" lon="14.9975433"><ele>179.4</ele><time>2026-03-28T15:44:40.799Z</time></trkpt><trkpt lat="40.613965" lon="14.997425"><ele>177.8</ele><time>2026-03-28T15:44:41.802Z</time></trkpt><trkpt lat="40.613985" lon="14.9972967"><ele>176.20000000000002</ele><time>2026-03-28T15:44:42.802Z</time></trkpt><trkpt lat="40.614015" lon="14.997165"><ele>174.60000000000002</ele><time>2026-03-28T15:44:43.801Z</time></trkpt><trkpt lat="40.6140433" lon="14.9970367"><ele>173.0</ele><time>2026-03-28T15:44:44.801Z</time></trkpt><trkpt lat="40.6140833" lon="14.9969167"><ele>173.0</ele><time>2026-03-28T15:44:45.801Z</time></trkpt><trkpt lat="40.61413" lon="14.9968067"><ele>173.0</ele><time>2026-03-28T15:44:46.799Z</time></trkpt><trkpt lat="40.61418" lon="14.9966867"><ele>173.0</ele><time>2026-03-28T15:44:47.801Z</time></trkpt><trkpt lat="40.6142267" lon="14.9965917"><ele>173.0</ele><time>2026-03-28T15:44:48.799Z</time></trkpt><trkpt lat="40.6142717" lon="14.99649"><ele>173.0</ele><time>2026-03-28T15:44:49.801Z</time></trkpt><trkpt lat="40.614315" lon="14.9963883"><ele>172.0</ele><time>2026-03-28T15:44:50.799Z</time></trkpt><trkpt lat="40.61436" lon="14.9963017"><ele>171.0</ele><time>2026-03-28T15:44:51.8Z</time></trkpt><trkpt lat="40.6144083" lon="14.9962133"><ele>170.0</ele><time>2026-03-28T15:44:52.801Z</time></trkpt><trkpt lat="40.6144567" lon="14.99613"><ele>169.0</ele><time>2026-03-28T15:44:53.803Z</time></trkpt><trkpt lat="40.6144867" lon="14.9960533"><ele>168.0</ele><time>2026-03-28T15:44:54.799Z</time></trkpt><trkpt lat="40.6145167" lon="14.9959633"><ele>167.0</ele><time>2026-03-28T15:44:55.799Z</time></trkpt><trkpt lat="40.6145367" lon="14.99588"><ele>166.0</ele><time>2026-03-28T15:44:56.799Z</time></trkpt><trkpt lat="40.6145483" lon="14.995785"><ele>169.4</ele><time>2026-03-28T15:44:57.799Z</time></trkpt><trkpt lat="40.61455" lon="14.9956783"><ele>172.8</ele><time>2026-03-28T15:44:58.799Z</time></trkpt><trkpt lat="40.61456" lon="14.995575"><ele>176.20000000000002</ele><time>2026-03-28T15:44:59.799Z</time></trkpt><trkpt lat="40.614575" lon="14.9954667"><ele>179.60000000000002</ele><time>2026-03-28T15:45:00.799Z</time></trkpt><trkpt lat="40.61459" lon="14.99533"><ele>183.0</ele><time>2026-03-28T15:45:01.799Z</time></trkpt><trkpt lat="40.614615" lon="14.9951883"><ele>183.0</ele><time>2026-03-28T15:45:02.799Z</time></trkpt><trkpt lat="40.6146433" lon="14.9950483"><ele>183.0</ele><time>2026-03-28T15:45:03.799Z</time></trkpt><trkpt lat="40.61467" lon="14.9949183"><ele>183.0</ele><time>2026-03-28T15:45:04.803Z</time></trkpt><trkpt lat="40.614685" lon="14.9948033"><ele>183.0</ele><time>2026-03-28T15:45:05.8Z</time></trkpt><trkpt lat="40.614695" lon="14.994705"><ele>183.0</ele><time>2026-03-28T15:45:06.799Z</time></trkpt><trkpt lat="40.614735" lon="14.9945917"><ele>182.0</ele><time>2026-03-28T15:45:07.8Z</time></trkpt><trkpt lat="40.6148083" lon="14.9944617"><ele>181.0</ele><time>2026-03-28T15:45:08.799Z</time></trkpt><trkpt lat="40.614855" lon="14.99434"><ele>180.0</ele><time>2026-03-28T15:45:09.799Z</time></trkpt><trkpt lat="40.6149017" lon="14.9942283"><ele>179.0</ele><time>2026-03-28T15:45:10.801Z</time></trkpt><trkpt lat="40.6149517" lon="14.99413"><ele>178.0</ele><time>2026-03-28T15:45:11.801Z</time></trkpt><trkpt lat="40.6150017" lon="14.9940333"><ele>176.83333333333334</ele><time>2026-03-28T15:45:12.8Z</time></trkpt><trkpt lat="40.6150483" lon="14.993945"><ele>175.66666666666669</ele><time>2026-03-28T15:45:13.802Z</time></trkpt><trkpt lat="40.6150967" lon="14.993855"><ele>174.5</ele><time>2026-03-28T15:45:14.802Z</time></trkpt><trkpt lat="40.6151383" lon="14.9937633"><ele>173.33333333333334</ele><time>2026-03-28T15:45:15.801Z</time></trkpt><trkpt lat="40.615175" lon="14.9936783"><ele>172.16666666666666</ele><time>2026-03-28T15:45:16.799Z</time></trkpt><trkpt lat="40.6152183" lon="14.9935983"><ele>171.0</ele><time>2026-03-28T15:45:17.8Z</time></trkpt><trkpt lat="40.615275" lon="14.993515"><ele>170.66666666666666</ele><time>2026-03-28T15:45:18.799Z</time></trkpt><trkpt lat="40.6153367" lon="14.9934267"><ele>170.33333333333334</ele><time>2026-03-28T15:45:19.8Z</time></trkpt><trkpt lat="40.6154017" lon="14.9933467"><ele>170.0</ele><time>2026-03-28T15:45:20.8Z</time></trkpt><trkpt lat="40.6154683" lon="14.9932717"><ele>169.66666666666669</ele><time>2026-03-28T15:45:21.799Z</time></trkpt><trkpt lat="40.615535" lon="14.993195"><ele>169.33333333333334</ele><time>2026-03-28T15:45:22.8Z</time></trkpt><trkpt lat="40.6155867" lon="14.9931283"><ele>169.0</ele><time>2026-03-28T15:45:23.8Z</time></trkpt><trkpt lat="40.6156567" lon="14.9930633"><ele>169.0</ele><time>2026-03-28T15:45:24.8Z</time></trkpt><trkpt lat="40.61575" lon="14.9929967"><ele>169.0</ele><time>2026-03-28T15:45:25.8Z</time></trkpt><trkpt lat="40.6158583" lon="14.9929233"><ele>169.0</ele><time>2026-03-28T15:45:26.801Z</time></trkpt><trkpt lat="40.61597" lon="14.9928483"><ele>169.0</ele><time>2026-03-28T15:45:27.8Z</time></trkpt><trkpt lat="40.6160833" lon="14.9927783"><ele>169.2</ele><time>2026-03-28T15:45:28.801Z</time></trkpt><trkpt lat="40.6161867" lon="14.99272"><ele>169.39999999999998</ele><time>2026-03-28T15:45:29.803Z</time></trkpt><trkpt lat="40.6162933" lon="14.992665"><ele>169.6</ele><time>2026-03-28T15:45:30.801Z</time></trkpt><trkpt lat="40.61641" lon="14.9926167"><ele>169.8</ele><time>2026-03-28T15:45:31.8Z</time></trkpt><trkpt lat="40.616505" lon="14.9925783"><ele>170.0</ele><time>2026-03-28T15:45:32.8Z</time></trkpt><trkpt lat="40.6165883" lon="14.9925433"><ele>170.0</ele><time>2026-03-28T15:45:33.8Z</time></trkpt><trkpt lat="40.616675" lon="14.9925133"><ele>170.0</ele><time>2026-03-28T15:45:34.801Z</time></trkpt><trkpt lat="40.6167633" lon="14.9924867"><ele>170.0</ele><time>2026-03-28T15:45:35.802Z</time></trkpt><trkpt lat="40.6168367" lon="14.9924617"><ele>170.0</ele><time>2026-03-28T15:45:36.801Z</time></trkpt><trkpt lat="40.6169183" lon="14.9924217"><ele>170.0</ele><time>2026-03-28T15:45:37.8Z</time></trkpt><trkpt lat="40.6169833" lon="14.9923917"><ele>170.0</ele><time>2026-03-28T15:45:38.801Z</time></trkpt><trkpt lat="40.6170783" lon="14.992325"><ele>167.6</ele><time>2026-03-28T15:45:40.802Z</time></trkpt><trkpt lat="40.617165" lon="14.9922533"><ele>165.2</ele><time>2026-03-28T15:45:42.802Z</time></trkpt><trkpt lat="40.61723" lon="14.99219"><ele>162.8</ele><time>2026-03-28T15:45:44.801Z</time></trkpt><trkpt lat="40.6173033" lon="14.9920983"><ele>160.4</ele><time>2026-03-28T15:45:47.799Z</time></trkpt><trkpt lat="40.6173483" lon="14.9920183"><ele>158.0</ele><time>2026-03-28T15:45:49.799Z</time></trkpt><trkpt lat="40.6174117" lon="14.99192"><ele>158.0</ele><time>2026-03-28T15:45:52.802Z</time></trkpt><trkpt lat="40.61749" lon="14.99182"><ele>158.0</ele><time>2026-03-28T15:45:54.799Z</time></trkpt><trkpt lat="40.61759" lon="14.9917433"><ele>158.0</ele><time>2026-03-28T15:45:56.799Z</time></trkpt><trkpt lat="40.6176867" lon="14.99168"><ele>158.0</ele><time>2026-03-28T15:45:58.799Z</time></trkpt><trkpt lat="40.6177833" lon="14.9916067"><ele>158.0</ele><time>2026-03-28T15:46:00.799Z</time></trkpt><trkpt lat="40.6177883" lon="14.99148"><ele>156.4</ele><time>2026-03-28T15:46:02.799Z</time></trkpt><trkpt lat="40.617805" lon="14.991325"><ele>154.8</ele><time>2026-03-28T15:46:04.8Z</time></trkpt><trkpt lat="40.617815" lon="14.99123"><ele>153.2</ele><time>2026-03-28T15:46:05.799Z</time></trkpt><trkpt lat="40.61783" lon="14.991135"><ele>151.6</ele><time>2026-03-28T15:46:06.799Z</time></trkpt><trkpt lat="40.617855" lon="14.9909683"><ele>150.0</ele><time>2026-03-28T15:46:08.801Z</time></trkpt><trkpt lat="40.617895" lon="14.990815"><ele>144.5</ele><time>2026-03-28T15:46:10.799Z</time></trkpt><trkpt lat="40.6179233" lon="14.990735"><ele>139.0</ele><time>2026-03-28T15:46:11.8Z</time></trkpt><trkpt lat="40.6179517" lon="14.9906483"><ele>133.5</ele><time>2026-03-28T15:46:12.799Z</time></trkpt><trkpt lat="40.617975" lon="14.99057"><ele>128.0</ele><time>2026-03-28T15:46:13.802Z</time></trkpt><trkpt lat="40.617975" lon="14.990445"><ele>122.5</ele><time>2026-03-28T15:46:15.8Z</time></trkpt><trkpt lat="40.6179133" lon="14.9903783"><ele>117.0</ele><time>2026-03-28T15:46:16.8Z</time></trkpt><trkpt lat="40.6178417" lon="14.9903067"><ele>120.6</ele><time>2026-03-28T15:46:17.801Z</time></trkpt><trkpt lat="40.6177867" lon="14.9902567"><ele>124.19999999999999</ele><time>2026-03-28T15:46:18.799Z</time></trkpt><trkpt lat="40.6177" lon="14.990175"><ele>127.8</ele><time>2026-03-28T15:46:20.8Z</time></trkpt><trkpt lat="40.6176067" lon="14.9901567"><ele>131.4</ele><time>2026-03-28T15:46:22.801Z</time></trkpt><trkpt lat="40.6175017" lon="14.99021"><ele>135.0</ele><time>2026-03-28T15:46:24.801Z</time></trkpt><trkpt lat="40.6174333" lon="14.990235"><ele>135.0</ele><time>2026-03-28T15:46:25.8Z</time></trkpt><trkpt lat="40.61731" lon="14.9902667"><ele>135.0</ele><time>2026-03-28T15:46:27.802Z</time></trkpt><trkpt lat="40.6172483" lon="14.9902983"><ele>135.0</ele><time>2026-03-28T15:46:28.799Z</time></trkpt><trkpt lat="40.61718" lon="14.990335"><ele>135.0</ele><time>2026-03-28T15:46:29.8Z</time></trkpt><trkpt lat="40.6171083" lon="14.9903717"><ele>135.0</ele><time>2026-03-28T15:46:30.799Z</time></trkpt><trkpt lat="40.6170283" lon="14.99041"><ele>135.0</ele><time>2026-03-28T15:46:31.8Z</time></trkpt><trkpt lat="40.616955" lon="14.9904233"><ele>132.57142857142856</ele><time>2026-03-28T15:46:32.8Z</time></trkpt><trkpt lat="40.6168883" lon="14.990415"><ele>130.14285714285714</ele><time>2026-03-28T15:46:33.8Z</time></trkpt><trkpt lat="40.6168117" lon="14.9903833"><ele>127.71428571428571</ele><time>2026-03-28T15:46:34.799Z</time></trkpt><trkpt lat="40.6167383" lon="14.9903567"><ele>125.28571428571428</ele><time>2026-03-28T15:46:35.802Z</time></trkpt><trkpt lat="40.6166683" lon="14.9903433"><ele>122.85714285714286</ele><time>2026-03-28T15:46:36.8Z</time></trkpt><trkpt lat="40.6165883" lon="14.9903783"><ele>120.42857142857142</ele><time>2026-03-28T15:46:37.8Z</time></trkpt><trkpt lat="40.616525" lon="14.990395"><ele>118.0</ele><time>2026-03-28T15:46:38.799Z</time></trkpt><trkpt lat="40.6164067" lon="14.990465"><ele>118.0</ele><time>2026-03-28T15:46:40.801Z</time></trkpt><trkpt lat="40.6163167" lon="14.9905783"><ele>118.00000000000001</ele><time>2026-03-28T15:46:42.8Z</time></trkpt><trkpt lat="40.6162367" lon="14.99068"><ele>118.00000000000001</ele><time>2026-03-28T15:46:44.803Z</time></trkpt><trkpt lat="40.6161733" lon="14.9906833"><ele>118.0</ele><time>2026-03-28T15:46:45.803Z</time></trkpt><trkpt lat="40.6160583" lon="14.990585"><ele>118.0</ele><time>2026-03-28T15:46:47.801Z</time></trkpt><trkpt lat="40.6160017" lon="14.9905117"><ele>115.83333333333334</ele><time>2026-03-28T15:46:48.799Z</time></trkpt><trkpt lat="40.61593" lon="14.99044"><ele>113.66666666666667</ele><time>2026-03-28T15:46:49.8Z</time></trkpt><trkpt lat="40.615855" lon="14.9903783"><ele>111.5</ele><time>2026-03-28T15:46:50.799Z</time></trkpt><trkpt lat="40.6157767" lon="14.990335"><ele>109.33333333333334</ele><time>2026-03-28T15:46:51.8Z</time></trkpt><trkpt lat="40.6156917" lon="14.9902967"><ele>107.16666666666667</ele><time>2026-03-28T15:46:52.8Z</time></trkpt><trkpt lat="40.6156133" lon="14.9902533"><ele>105.0</ele><time>2026-03-28T15:46:53.8Z</time></trkpt><trkpt lat="40.6155433" lon="14.99023"><ele>105.0</ele><time>2026-03-28T15:46:54.8Z</time></trkpt><trkpt lat="40.6154917" lon="14.9901817"><ele>105.0</ele><time>2026-03-28T15:46:55.799Z</time></trkpt><trkpt lat="40.615425" lon="14.9901183"><ele>105.0</ele><time>2026-03-28T15:46:56.8Z</time></trkpt><trkpt lat="40.6153683" lon="14.9900383"><ele>105.0</ele><time>2026-03-28T15:46:57.8Z</time></trkpt><trkpt lat="40.6153067" lon="14.9899533"><ele>105.0</ele><time>2026-03-28T15:46:58.799Z</time></trkpt><trkpt lat="40.61525" lon="14.989855"><ele>105.0</ele><time>2026-03-28T15:46:59.799Z</time></trkpt><trkpt lat="40.615195" lon="14.989765"><ele>102.0</ele><time>2026-03-28T15:47:00.8Z</time></trkpt><trkpt lat="40.61514" lon="14.98967"><ele>99.0</ele><time>2026-03-28T15:47:01.8Z</time></trkpt><trkpt lat="40.6150883" lon="14.9895833"><ele>96.0</ele><time>2026-03-28T15:47:02.8Z</time></trkpt><trkpt lat="40.615035" lon="14.9894983"><ele>93.0</ele><time>2026-03-28T15:47:03.799Z</time></trkpt><trkpt lat="40.6149817" lon="14.9894217"><ele>90.0</ele><time>2026-03-28T15:47:04.799Z</time></trkpt><trkpt lat="40.6149233" lon="14.98933"><ele>87.0</ele><time>2026-03-28T15:47:05.801Z</time></trkpt><trkpt lat="40.6148767" lon="14.9892383"><ele>86.39999999999999</ele><time>2026-03-28T15:47:06.799Z</time></trkpt><trkpt lat="40.6148167" lon="14.9891333"><ele>85.8</ele><time>2026-03-28T15:47:07.8Z</time></trkpt><trkpt lat="40.61475" lon="14.98902"><ele>85.2</ele><time>2026-03-28T15:47:08.8Z</time></trkpt><trkpt lat="40.6146783" lon="14.98891"><ele>84.6</ele><time>2026-03-28T15:47:09.8Z</time></trkpt><trkpt lat="40.6146033" lon="14.988795"><ele>84.0</ele><time>2026-03-28T15:47:10.8Z</time></trkpt><trkpt lat="40.6145317" lon="14.988685"><ele>84.4</ele><time>2026-03-28T15:47:11.801Z</time></trkpt><trkpt lat="40.6144617" lon="14.98857"><ele>84.80000000000001</ele><time>2026-03-28T15:47:12.799Z</time></trkpt><trkpt lat="40.614395" lon="14.9884667"><ele>85.19999999999999</ele><time>2026-03-28T15:47:13.802Z</time></trkpt><trkpt lat="40.6143367" lon="14.9883717"><ele>85.6</ele><time>2026-03-28T15:47:14.799Z</time></trkpt><trkpt lat="40.6142833" lon="14.9882867"><ele>86.0</ele><time>2026-03-28T15:47:15.803Z</time></trkpt><trkpt lat="40.614205" lon="14.9881783"><ele>84.6</ele><time>2026-03-28T15:47:17.801Z</time></trkpt><trkpt lat="40.6141717" lon="14.988085"><ele>83.19999999999999</ele><time>2026-03-28T15:47:19.8Z</time></trkpt><trkpt lat="40.6141883" lon="14.9879933"><ele>81.80000000000001</ele><time>2026-03-28T15:47:22.8Z</time></trkpt><trkpt lat="40.614295" lon="14.9879567"><ele>80.4</ele><time>2026-03-28T15:47:24.801Z</time></trkpt><trkpt lat="40.614395" lon="14.9879617"><ele>79.0</ele><time>2026-03-28T15:47:25.798Z</time></trkpt><trkpt lat="40.6144883" lon="14.9879433"><ele>78.66666666666666</ele><time>2026-03-28T15:47:26.799Z</time></trkpt><trkpt lat="40.614575" lon="14.987945"><ele>78.33333333333333</ele><time>2026-03-28T15:47:27.801Z</time></trkpt><trkpt lat="40.6146517" lon="14.9879533"><ele>78.0</ele><time>2026-03-28T15:47:28.799Z</time></trkpt><trkpt lat="40.61474" lon="14.9879717"><ele>77.66666666666667</ele><time>2026-03-28T15:47:29.801Z</time></trkpt><trkpt lat="40.6148267" lon="14.98798"><ele>77.33333333333334</ele><time>2026-03-28T15:47:30.799Z</time></trkpt><trkpt lat="40.61493" lon="14.9879783"><ele>77.0</ele><time>2026-03-28T15:47:31.799Z</time></trkpt><trkpt lat="40.6150133" lon="14.98798"><ele>77.0</ele><time>2026-03-28T15:47:32.799Z</time></trkpt><trkpt lat="40.6151083" lon="14.9878817"><ele>77.0</ele><time>2026-03-28T15:47:34.8Z</time></trkpt><trkpt lat="40.61504" lon="14.9876867"><ele>77.0</ele><time>2026-03-28T15:47:36.799Z</time></trkpt><trkpt lat="40.6149767" lon="14.987535"><ele>77.0</ele><time>2026-03-28T15:47:37.8Z</time></trkpt><trkpt lat="40.6149067" lon="14.9873717"><ele>77.0</ele><time>2026-03-28T15:47:38.799Z</time></trkpt><trkpt lat="40.6148367" lon="14.9872283"><ele>77.0</ele><time>2026-03-28T15:47:39.801Z</time></trkpt><trkpt lat="40.6147517" lon="14.9870783"><ele>77.0</ele><time>2026-03-28T15:47:40.799Z</time></trkpt><trkpt lat="40.614675" lon="14.98693"><ele>77.0</ele><time>2026-03-28T15:47:41.801Z</time></trkpt><trkpt lat="40.6146" lon="14.9867967"><ele>77.0</ele><time>2026-03-28T15:47:42.799Z</time></trkpt><trkpt lat="40.6145267" lon="14.9866667"><ele>77.0</ele><time>2026-03-28T15:47:43.801Z</time></trkpt><trkpt lat="40.61448" lon="14.9865417"><ele>77.0</ele><time>2026-03-28T15:47:44.801Z</time></trkpt><trkpt lat="40.6144333" lon="14.9864117"><ele>77.0</ele><time>2026-03-28T15:47:45.799Z</time></trkpt><trkpt lat="40.6143783" lon="14.9862633"><ele>77.0</ele><time>2026-03-28T15:47:46.8Z</time></trkpt><trkpt lat="40.6143267" lon="14.9861467"><ele>77.0</ele><time>2026-03-28T15:47:47.799Z</time></trkpt><trkpt lat="40.614275" lon="14.986035"><ele>77.0</ele><time>2026-03-28T15:47:48.799Z</time></trkpt><trkpt lat="40.6142267" lon="14.98593"><ele>77.0</ele><time>2026-03-28T15:47:49.799Z</time></trkpt><trkpt lat="40.6141783" lon="14.9858217"><ele>77.0</ele><time>2026-03-28T15:47:50.8Z</time></trkpt><trkpt lat="40.6141367" lon="14.9857217"><ele>77.2</ele><time>2026-03-28T15:47:51.8Z</time></trkpt><trkpt lat="40.6140967" lon="14.9856183"><ele>77.4</ele><time>2026-03-28T15:47:52.799Z</time></trkpt><trkpt lat="40.6140417" lon="14.9855133"><ele>77.6</ele><time>2026-03-28T15:47:53.799Z</time></trkpt><trkpt lat="40.6139683" lon="14.9853833"><ele>77.8</ele><time>2026-03-28T15:47:54.799Z</time></trkpt><trkpt lat="40.613895" lon="14.9852467"><ele>78.0</ele><time>2026-03-28T15:47:55.8Z</time></trkpt><trkpt lat="40.6138267" lon="14.9851083"><ele>77.8</ele><time>2026-03-28T15:47:56.8Z</time></trkpt><trkpt lat="40.6137683" lon="14.9849733"><ele>77.6</ele><time>2026-03-28T15:47:57.799Z</time></trkpt><trkpt lat="40.6137117" lon="14.9848567"><ele>77.4</ele><time>2026-03-28T15:47:58.799Z</time></trkpt><trkpt lat="40.6136567" lon="14.9847467"><ele>77.2</ele><time>2026-03-28T15:47:59.801Z</time></trkpt><trkpt lat="40.6136083" lon="14.9846417"><ele>77.0</ele><time>2026-03-28T15:48:00.801Z</time></trkpt><trkpt lat="40.6135667" lon="14.984545"><ele>76.8</ele><time>2026-03-28T15:48:01.801Z</time></trkpt><trkpt lat="40.613535" lon="14.98445"><ele>76.6</ele><time>2026-03-28T15:48:02.801Z</time></trkpt><trkpt lat="40.6134867" lon="14.9843333"><ele>76.39999999999999</ele><time>2026-03-28T15:48:03.802Z</time></trkpt><trkpt lat="40.6134367" lon="14.984225"><ele>76.2</ele><time>2026-03-28T15:48:04.799Z</time></trkpt><trkpt lat="40.6133867" lon="14.98412"><ele>76.0</ele><time>2026-03-28T15:48:05.8Z</time></trkpt><trkpt lat="40.613335" lon="14.9840067"><ele>75.66666666666666</ele><time>2026-03-28T15:48:06.799Z</time></trkpt><trkpt lat="40.6132883" lon="14.9839067"><ele>75.33333333333333</ele><time>2026-03-28T15:48:07.799Z</time></trkpt><trkpt lat="40.6132367" lon="14.9838017"><ele>75.0</ele><time>2026-03-28T15:48:08.8Z</time></trkpt><trkpt lat="40.613205" lon="14.9837067"><ele>74.66666666666667</ele><time>2026-03-28T15:48:09.799Z</time></trkpt><trkpt lat="40.61318" lon="14.983625"><ele>74.33333333333334</ele><time>2026-03-28T15:48:10.799Z</time></trkpt><trkpt lat="40.6131467" lon="14.98355"><ele>74.0</ele><time>2026-03-28T15:48:11.8Z</time></trkpt><trkpt lat="40.6130833" lon="14.9834333"><ele>74.0</ele><time>2026-03-28T15:48:13.8Z</time></trkpt><trkpt lat="40.6130233" lon="14.9833633"><ele>74.0</ele><time>2026-03-28T15:48:15.799Z</time></trkpt><trkpt lat="40.6130183" lon="14.9832433"><ele>74.0</ele><time>2026-03-28T15:48:18.799Z</time></trkpt><trkpt lat="40.6129917" lon="14.9831317"><ele>74.0</ele><time>2026-03-28T15:48:20.8Z</time></trkpt><trkpt lat="40.6129583" lon="14.9830517"><ele>74.0</ele><time>2026-03-28T15:48:21.8Z</time></trkpt><trkpt lat="40.6129117" lon="14.9829767"><ele>74.0</ele><time>2026-03-28T15:48:22.799Z</time></trkpt><trkpt lat="40.6128717" lon="14.9829033"><ele>74.0</ele><time>2026-03-28T15:48:23.8Z</time></trkpt><trkpt lat="40.6128183" lon="14.9828567"><ele>74.0</ele><time>2026-03-28T15:48:24.799Z</time></trkpt><trkpt lat="40.6127433" lon="14.9827717"><ele>74.0</ele><time>2026-03-28T15:48:26.8Z</time></trkpt><trkpt lat="40.6126633" lon="14.9826817"><ele>74.0</ele><time>2026-03-28T15:48:28.799Z</time></trkpt><trkpt lat="40.6125583" lon="14.9825783"><ele>74.0</ele><time>2026-03-28T15:48:30.799Z</time></trkpt><trkpt lat="40.6125033" lon="14.9825117"><ele>74.0</ele><time>2026-03-28T15:48:31.8Z</time></trkpt><trkpt lat="40.61245" lon="14.9824533"><ele>74.0</ele><time>2026-03-28T15:48:32.802Z</time></trkpt><trkpt lat="40.612355" lon="14.9823517"><ele>74.0</ele><time>2026-03-28T15:48:34.8Z</time></trkpt><trkpt lat="40.6122717" lon="14.98224"><ele>74.0</ele><time>2026-03-28T15:48:36.801Z</time></trkpt><trkpt lat="40.6122267" lon="14.982175"><ele>74.0</ele><time>2026-03-28T15:48:37.801Z</time></trkpt><trkpt lat="40.6121683" lon="14.9820867"><ele>74.0</ele><time>2026-03-28T15:48:38.801Z</time></trkpt><trkpt lat="40.6120767" lon="14.9819983"><ele>74.0</ele><time>2026-03-28T15:48:39.801Z</time></trkpt><trkpt lat="40.61199" lon="14.98191"><ele>74.0</ele><time>2026-03-28T15:48:40.802Z</time></trkpt><trkpt lat="40.6119183" lon="14.9818267"><ele>74.0</ele><time>2026-03-28T15:48:41.801Z</time></trkpt><trkpt lat="40.6118367" lon="14.9817467"><ele>74.0</ele><time>2026-03-28T15:48:42.8Z</time></trkpt><trkpt lat="40.6117533" lon="14.98167"><ele>74.2</ele><time>2026-03-28T15:48:43.802Z</time></trkpt><trkpt lat="40.611665" lon="14.9815967"><ele>74.4</ele><time>2026-03-28T15:48:44.801Z</time></trkpt><trkpt lat="40.61159" lon="14.9815517"><ele>74.6</ele><time>2026-03-28T15:48:45.8Z</time></trkpt><trkpt lat="40.611515" lon="14.981505"><ele>74.8</ele><time>2026-03-28T15:48:46.8Z</time></trkpt><trkpt lat="40.6114433" lon="14.98148"><ele>75.0</ele><time>2026-03-28T15:48:47.801Z</time></trkpt><trkpt lat="40.6113417" lon="14.98143"><ele>75.0</ele><time>2026-03-28T15:48:49.802Z</time></trkpt><trkpt lat="40.6112683" lon="14.9813917"><ele>75.0</ele><time>2026-03-28T15:48:51.8Z</time></trkpt><trkpt lat="40.61125" lon="14.9812933"><ele>75.0</ele><time>2026-03-28T15:48:53.802Z</time></trkpt><trkpt lat="40.61116" lon="14.98126"><ele>75.0</ele><time>2026-03-28T15:48:55.801Z</time></trkpt><trkpt lat="40.6110533" lon="14.9812733"><ele>75.0</ele><time>2026-03-28T15:48:57.8Z</time></trkpt><trkpt lat="40.61097" lon="14.9812883"><ele>75.0</ele><time>2026-03-28T15:48:59.801Z</time></trkpt><trkpt lat="40.6108917" lon="14.9813667"><ele>75.16666666666667</ele><time>2026-03-28T15:49:02.8Z</time></trkpt><trkpt lat="40.6108733" lon="14.9814517"><ele>75.33333333333333</ele><time>2026-03-28T15:49:03.801Z</time></trkpt><trkpt lat="40.6108783" lon="14.981575"><ele>75.5</ele><time>2026-03-28T15:49:05.803Z</time></trkpt><trkpt lat="40.6108383" lon="14.981695"><ele>75.66666666666666</ele><time>2026-03-28T15:49:07.801Z</time></trkpt><trkpt lat="40.6107567" lon="14.9817633"><ele>75.83333333333333</ele><time>2026-03-28T15:49:09.801Z</time></trkpt><trkpt lat="40.6106833" lon="14.98179"><ele>76.0</ele><time>2026-03-28T15:49:11.801Z</time></trkpt><trkpt lat="40.6105967" lon="14.9818217"><ele>76.0</ele><time>2026-03-28T15:49:13.8Z</time></trkpt><trkpt lat="40.6105517" lon="14.98189"><ele>76.0</ele><time>2026-03-28T15:49:20.801Z</time></trkpt><trkpt lat="40.6104733" lon="14.981905"><ele>76.0</ele><time>2026-03-28T15:49:22.8Z</time></trkpt><trkpt lat="40.6104" lon="14.9818583"><ele>76.0</ele><time>2026-03-28T15:49:25.801Z</time></trkpt><trkpt lat="40.61037" lon="14.9817633"><ele>76.0</ele><time>2026-03-28T15:49:27.8Z</time></trkpt><trkpt lat="40.6103883" lon="14.9816483"><ele>76.0</ele><time>2026-03-28T15:49:29.803Z</time></trkpt><trkpt lat="40.61047" lon="14.98155"><ele>76.0</ele><time>2026-03-28T15:49:32.801Z</time></trkpt><trkpt lat="40.610545" lon="14.9815367"><ele>76.0</ele><time>2026-03-28T15:49:35.801Z</time></trkpt><trkpt lat="40.6106033" lon="14.9814883"><ele>76.0</ele><time>2026-03-28T15:49:37.801Z</time></trkpt><trkpt lat="40.61063" lon="14.98136"><ele>76.0</ele><time>2026-03-28T15:49:40.8Z</time></trkpt><trkpt lat="40.6106233" lon="14.9812717"><ele>76.0</ele><time>2026-03-28T15:49:41.803Z</time></trkpt><trkpt lat="40.610595" lon="14.9811167"><ele>76.0</ele><time>2026-03-28T15:49:43.8Z</time></trkpt><trkpt lat="40.6105533" lon="14.9809967"><ele>76.0</ele><time>2026-03-28T15:49:45.801Z</time></trkpt><trkpt lat="40.6105517" lon="14.980885"><ele>76.0</ele><time>2026-03-28T15:49:47.801Z</time></trkpt><trkpt lat="40.6105383" lon="14.980775"><ele>76.0</ele><time>2026-03-28T15:49:49.8Z</time></trkpt><trkpt lat="40.61048" lon="14.9807267"><ele>76.0</ele><time>2026-03-28T15:49:51.8Z</time></trkpt><trkpt lat="40.6103867" lon="14.980705"><ele>76.0</ele><time>2026-03-28T15:49:53.802Z</time></trkpt><trkpt lat="40.6102633" lon="14.9807233"><ele>75.8</ele><time>2026-03-28T15:49:55.803Z</time></trkpt><trkpt lat="40.6101383" lon="14.980735"><ele>75.6</ele><time>2026-03-28T15:49:57.799Z</time></trkpt><trkpt lat="40.610055" lon="14.98077"><ele>75.4</ele><time>2026-03-28T15:49:58.799Z</time></trkpt><trkpt lat="40.6099483" lon="14.9807983"><ele>75.2</ele><time>2026-03-28T15:50:00.8Z</time></trkpt><trkpt lat="40.609855" lon="14.9808133"><ele>75.0</ele><time>2026-03-28T15:50:02.8Z</time></trkpt><trkpt lat="40.609735" lon="14.9808233"><ele>75.0</ele><time>2026-03-28T15:50:04.8Z</time></trkpt><trkpt lat="40.6096667" lon="14.980835"><ele>75.0</ele><time>2026-03-28T15:50:05.8Z</time></trkpt><trkpt lat="40.6095567" lon="14.98082"><ele>75.0</ele><time>2026-03-28T15:50:07.799Z</time></trkpt><trkpt lat="40.60947" lon="14.9808233"><ele>75.0</ele><time>2026-03-28T15:50:09.799Z</time></trkpt><trkpt lat="40.6093667" lon="14.9808617"><ele>75.0</ele><time>2026-03-28T15:50:18.799Z</time></trkpt><trkpt lat="40.6092533" lon="14.9808617"><ele>75.4</ele><time>2026-03-28T15:50:20.802Z</time></trkpt><trkpt lat="40.6091333" lon="14.98087"><ele>75.8</ele><time>2026-03-28T15:50:22.799Z</time></trkpt><trkpt lat="40.6090467" lon="14.98087"><ele>76.2</ele><time>2026-03-28T15:50:24.799Z</time></trkpt><trkpt lat="40.6089483" lon="14.9808917"><ele>76.6</ele><time>2026-03-28T15:50:26.799Z</time></trkpt><trkpt lat="40.60888" lon="14.98091"><ele>77.0</ele><time>2026-03-28T15:50:27.799Z</time></trkpt><trkpt lat="40.608795" lon="14.9809183"><ele>77.0</ele><time>2026-03-28T15:50:28.8Z</time></trkpt><trkpt lat="40.608675" lon="14.9809383"><ele>77.0</ele><time>2026-03-28T15:50:29.8Z</time></trkpt><trkpt lat="40.60856" lon="14.9809533"><ele>77.0</ele><time>2026-03-28T15:50:30.801Z</time></trkpt><trkpt lat="40.6084233" lon="14.98097"><ele>77.0</ele><time>2026-03-28T15:50:31.801Z</time></trkpt><trkpt lat="40.6083167" lon="14.9809833"><ele>77.2</ele><time>2026-03-28T15:50:32.799Z</time></trkpt><trkpt lat="40.6082183" lon="14.981005"><ele>77.4</ele><time>2026-03-28T15:50:33.799Z</time></trkpt><trkpt lat="40.60812" lon="14.9810283"><ele>77.6</ele><time>2026-03-28T15:50:34.801Z</time></trkpt><trkpt lat="40.6080333" lon="14.9810267"><ele>77.8</ele><time>2026-03-28T15:50:35.8Z</time></trkpt><trkpt lat="40.6079433" lon="14.9810283"><ele>78.0</ele><time>2026-03-28T15:50:36.801Z</time></trkpt><trkpt lat="40.607845" lon="14.98102"><ele>77.8</ele><time>2026-03-28T15:50:37.8Z</time></trkpt><trkpt lat="40.6077417" lon="14.9810333"><ele>77.6</ele><time>2026-03-28T15:50:38.8Z</time></trkpt><trkpt lat="40.6076417" lon="14.9810583"><ele>77.4</ele><time>2026-03-28T15:50:39.799Z</time></trkpt><trkpt lat="40.607535" lon="14.9810817"><ele>77.2</ele><time>2026-03-28T15:50:40.801Z</time></trkpt><trkpt lat="40.6074383" lon="14.9810967"><ele>77.0</ele><time>2026-03-28T15:50:41.799Z</time></trkpt><trkpt lat="40.607345" lon="14.9811133"><ele>77.0</ele><time>2026-03-28T15:50:42.8Z</time></trkpt><trkpt lat="40.6072417" lon="14.9811367"><ele>77.0</ele><time>2026-03-28T15:50:43.799Z</time></trkpt><trkpt lat="40.607155" lon="14.9811533"><ele>77.0</ele><time>2026-03-28T15:50:44.8Z</time></trkpt><trkpt lat="40.6070817" lon="14.9811567"><ele>77.0</ele><time>2026-03-28T15:50:45.802Z</time></trkpt><trkpt lat="40.6070167" lon="14.9811617"><ele>77.0</ele><time>2026-03-28T15:50:46.799Z</time></trkpt><trkpt lat="40.6069433" lon="14.9811767"><ele>77.0</ele><time>2026-03-28T15:50:47.799Z</time></trkpt><trkpt lat="40.606875" lon="14.9811933"><ele>76.2</ele><time>2026-03-28T15:50:48.799Z</time></trkpt><trkpt lat="40.6067933" lon="14.981225"><ele>75.4</ele><time>2026-03-28T15:50:49.8Z</time></trkpt><trkpt lat="40.6067083" lon="14.981255"><ele>74.6</ele><time>2026-03-28T15:50:50.799Z</time></trkpt><trkpt lat="40.6066017" lon="14.9812783"><ele>73.8</ele><time>2026-03-28T15:50:51.799Z</time></trkpt><trkpt lat="40.6065067" lon="14.9813017"><ele>73.0</ele><time>2026-03-28T15:50:52.799Z</time></trkpt><trkpt lat="40.6064117" lon="14.9813233"><ele>73.0</ele><time>2026-03-28T15:50:53.802Z</time></trkpt><trkpt lat="40.606315" lon="14.981345"><ele>73.0</ele><time>2026-03-28T15:50:54.799Z</time></trkpt><trkpt lat="40.60622" lon="14.9813667"><ele>73.0</ele><time>2026-03-28T15:50:55.803Z</time></trkpt><trkpt lat="40.60612" lon="14.9813883"><ele>73.0</ele><time>2026-03-28T15:50:56.801Z</time></trkpt><trkpt lat="40.6060317" lon="14.9813933"><ele>73.0</ele><time>2026-03-28T15:50:57.799Z</time></trkpt><trkpt lat="40.60594" lon="14.98139"><ele>72.4</ele><time>2026-03-28T15:50:58.8Z</time></trkpt><trkpt lat="40.6058383" lon="14.9814183"><ele>71.8</ele><time>2026-03-28T15:50:59.8Z</time></trkpt><trkpt lat="40.605745" lon="14.9814233"><ele>71.2</ele><time>2026-03-28T15:51:00.8Z</time></trkpt><trkpt lat="40.6056617" lon="14.981435"><ele>70.6</ele><time>2026-03-28T15:51:01.799Z</time></trkpt><trkpt lat="40.6055833" lon="14.9814483"><ele>70.0</ele><time>2026-03-28T15:51:02.801Z</time></trkpt><trkpt lat="40.6054717" lon="14.9814533"><ele>70.0</ele><time>2026-03-28T15:51:04.8Z</time></trkpt><trkpt lat="40.6054067" lon="14.98146"><ele>70.0</ele><time>2026-03-28T15:51:05.8Z</time></trkpt><trkpt lat="40.605275" lon="14.9814467"><ele>70.0</ele><time>2026-03-28T15:51:07.8Z</time></trkpt><trkpt lat="40.6052067" lon="14.9814433"><ele>70.0</ele><time>2026-03-28T15:51:08.799Z</time></trkpt><trkpt lat="40.6051317" lon="14.98145"><ele>70.0</ele><time>2026-03-28T15:51:09.8Z</time></trkpt><trkpt lat="40.6050117" lon="14.98148"><ele>69.71428571428571</ele><time>2026-03-28T15:51:11.8Z</time></trkpt><trkpt lat="40.6049417" lon="14.9814933"><ele>69.42857142857143</ele><time>2026-03-28T15:51:12.8Z</time></trkpt><trkpt lat="40.604865" lon="14.98151"><ele>69.14285714285714</ele><time>2026-03-28T15:51:13.799Z</time></trkpt><trkpt lat="40.60479" lon="14.9815333"><ele>68.85714285714286</ele><time>2026-03-28T15:51:14.799Z</time></trkpt><trkpt lat="40.6047233" lon="14.9815433"><ele>68.57142857142857</ele><time>2026-03-28T15:51:15.799Z</time></trkpt><trkpt lat="40.6046583" lon="14.9815433"><ele>68.28571428571428</ele><time>2026-03-28T15:51:16.799Z</time></trkpt><trkpt lat="40.6045933" lon="14.981545"><ele>68.0</ele><time>2026-03-28T15:51:17.8Z</time></trkpt><trkpt lat="40.60451" lon="14.9815583"><ele>68.0</ele><time>2026-03-28T15:51:19.8Z</time></trkpt><trkpt lat="40.6044217" lon="14.9815717"><ele>68.0</ele><time>2026-03-28T15:51:21.801Z</time></trkpt><trkpt lat="40.6043583" lon="14.9815917"><ele>68.0</ele><time>2026-03-28T15:51:22.8Z</time></trkpt><trkpt lat="40.60425" lon="14.98161"><ele>68.0</ele><time>2026-03-28T15:51:24.802Z</time></trkpt><trkpt lat="40.604185" lon="14.981665"><ele>68.0</ele><time>2026-03-28T15:51:26.802Z</time></trkpt><trkpt lat="40.6043" lon="14.98165"><ele>68.0</ele><time>2026-03-28T15:51:33.799Z</time></trkpt><trkpt lat="40.6044083" lon="14.9816"><ele>68.0</ele><time>2026-03-28T15:51:35.8Z</time></trkpt><trkpt lat="40.6045133" lon="14.9815867"><ele>68.0</ele><time>2026-03-28T15:51:36.801Z</time></trkpt><trkpt lat="40.60469" lon="14.9815533"><ele>68.0</ele><time>2026-03-28T15:51:37.8Z</time></trkpt><trkpt lat="40.6048233" lon="14.981535"><ele>68.0</ele><time>2026-03-28T15:51:38.801Z</time></trkpt><trkpt lat="40.6049733" lon="14.9815117"><ele>68.0</ele><time>2026-03-28T15:51:39.8Z</time></trkpt><trkpt lat="40.6051033" lon="14.9814867"><ele>68.0</ele><time>2026-03-28T15:51:40.799Z</time></trkpt><trkpt lat="40.6052033" lon="14.9814683"><ele>68.0</ele><time>2026-03-28T15:51:41.802Z</time></trkpt><trkpt lat="40.6052867" lon="14.9814417"><ele>68.33333333333334</ele><time>2026-03-28T15:51:42.799Z</time></trkpt><trkpt lat="40.60537" lon="14.9814017"><ele>68.66666666666667</ele><time>2026-03-28T15:51:43.8Z</time></trkpt><trkpt lat="40.6054483" lon="14.981355"><ele>69.0</ele><time>2026-03-28T15:51:44.799Z</time></trkpt><trkpt lat="40.6055367" lon="14.9813683"><ele>69.33333333333333</ele><time>2026-03-28T15:51:45.802Z</time></trkpt><trkpt lat="40.6056233" lon="14.98136"><ele>69.66666666666666</ele><time>2026-03-28T15:51:46.799Z</time></trkpt><trkpt lat="40.6057083" lon="14.98135"><ele>70.0</ele><time>2026-03-28T15:51:47.801Z</time></trkpt><trkpt lat="40.6057783" lon="14.9813217"><ele>70.0</ele><time>2026-03-28T15:51:48.8Z</time></trkpt><trkpt lat="40.60585" lon="14.98129"><ele>70.0</ele><time>2026-03-28T15:51:49.801Z</time></trkpt><trkpt lat="40.6059133" lon="14.9812433"><ele>70.0</ele><time>2026-03-28T15:51:50.799Z</time></trkpt><trkpt lat="40.6059817" lon="14.9811183"><ele>70.0</ele><time>2026-03-28T15:51:51.799Z</time></trkpt><trkpt lat="40.60607" lon="14.980985"><ele>70.0</ele><time>2026-03-28T15:51:52.799Z</time></trkpt><trkpt lat="40.6061517" lon="14.980845"><ele>70.0</ele><time>2026-03-28T15:51:53.8Z</time></trkpt><trkpt lat="40.606245" lon="14.9807033"><ele>70.0</ele><time>2026-03-28T15:51:54.8Z</time></trkpt><trkpt lat="40.606325" lon="14.980545"><ele>70.0</ele><time>2026-03-28T15:51:55.801Z</time></trkpt><trkpt lat="40.606385" lon="14.9803783"><ele>70.0</ele><time>2026-03-28T15:51:56.799Z</time></trkpt><trkpt lat="40.6064467" lon="14.9802117"><ele>70.0</ele><time>2026-03-28T15:51:57.802Z</time></trkpt><trkpt lat="40.60651" lon="14.9800433"><ele>70.0</ele><time>2026-03-28T15:51:58.801Z</time></trkpt><trkpt lat="40.6065783" lon="14.979865"><ele>70.0</ele><time>2026-03-28T15:51:59.802Z</time></trkpt><trkpt lat="40.606655" lon="14.97968"><ele>69.25</ele><time>2026-03-28T15:52:00.801Z</time></trkpt><trkpt lat="40.606725" lon="14.9795067"><ele>68.5</ele><time>2026-03-28T15:52:01.799Z</time></trkpt><trkpt lat="40.60678" lon="14.9793383"><ele>67.75</ele><time>2026-03-28T15:52:02.8Z</time></trkpt><trkpt lat="40.6068383" lon="14.9791617"><ele>67.0</ele><time>2026-03-28T15:52:03.799Z</time></trkpt><trkpt lat="40.6068983" lon="14.9789883"><ele>67.0</ele><time>2026-03-28T15:52:04.8Z</time></trkpt><trkpt lat="40.606955" lon="14.9788183"><ele>67.0</ele><time>2026-03-28T15:52:05.8Z</time></trkpt><trkpt lat="40.6070117" lon="14.97864"><ele>67.0</ele><time>2026-03-28T15:52:06.799Z</time></trkpt><trkpt lat="40.6070617" lon="14.978455"><ele>67.0</ele><time>2026-03-28T15:52:07.799Z</time></trkpt><trkpt lat="40.6071033" lon="14.97826"><ele>67.66666666666666</ele><time>2026-03-28T15:52:08.799Z</time></trkpt><trkpt lat="40.6071367" lon="14.9780583"><ele>68.33333333333333</ele><time>2026-03-28T15:52:09.799Z</time></trkpt><trkpt lat="40.6071667" lon="14.9778667"><ele>69.0</ele><time>2026-03-28T15:52:10.802Z</time></trkpt><trkpt lat="40.6071833" lon="14.97767"><ele>68.5</ele><time>2026-03-28T15:52:11.801Z</time></trkpt><trkpt lat="40.6072067" lon="14.9774933"><ele>68.0</ele><time>2026-03-28T15:52:12.802Z</time></trkpt><trkpt lat="40.6072167" lon="14.977325"><ele>67.5</ele><time>2026-03-28T15:52:13.803Z</time></trkpt><trkpt lat="40.6072133" lon="14.9771467"><ele>67.0</ele><time>2026-03-28T15:52:14.799Z</time></trkpt><trkpt lat="40.6071917" lon="14.9769683"><ele>67.0</ele><time>2026-03-28T15:52:15.802Z</time></trkpt><trkpt lat="40.6071533" lon="14.9767917"><ele>67.0</ele><time>2026-03-28T15:52:16.8Z</time></trkpt><trkpt lat="40.6071067" lon="14.9766283"><ele>67.0</ele><time>2026-03-28T15:52:17.799Z</time></trkpt><trkpt lat="40.6070567" lon="14.976475"><ele>67.0</ele><time>2026-03-28T15:52:18.8Z</time></trkpt><trkpt lat="40.6070133" lon="14.9763417"><ele>67.0</ele><time>2026-03-28T15:52:19.799Z</time></trkpt><trkpt lat="40.60698" lon="14.976225"><ele>67.0</ele><time>2026-03-28T15:52:20.799Z</time></trkpt><trkpt lat="40.6069533" lon="14.9761"><ele>67.0</ele><time>2026-03-28T15:52:21.799Z</time></trkpt><trkpt lat="40.6069533" lon="14.97596"><ele>67.0</ele><time>2026-03-28T15:52:22.8Z</time></trkpt><trkpt lat="40.6069817" lon="14.9757983"><ele>67.0</ele><time>2026-03-28T15:52:23.803Z</time></trkpt><trkpt lat="40.6070283" lon="14.97562"><ele>67.33333333333333</ele><time>2026-03-28T15:52:24.799Z</time></trkpt><trkpt lat="40.60709" lon="14.9754383"><ele>67.66666666666667</ele><time>2026-03-28T15:52:25.799Z</time></trkpt><trkpt lat="40.6071533" lon="14.9752417"><ele>68.0</ele><time>2026-03-28T15:52:26.803Z</time></trkpt><trkpt lat="40.6072167" lon="14.975035"><ele>68.33333333333334</ele><time>2026-03-28T15:52:27.802Z</time></trkpt><trkpt lat="40.6072833" lon="14.974825"><ele>68.66666666666667</ele><time>2026-03-28T15:52:28.8Z</time></trkpt><trkpt lat="40.60735" lon="14.9746117"><ele>69.0</ele><time>2026-03-28T15:52:29.799Z</time></trkpt><trkpt lat="40.607425" lon="14.9744067"><ele>69.0</ele><time>2026-03-28T15:52:30.799Z</time></trkpt><trkpt lat="40.6074867" lon="14.9742067"><ele>69.0</ele><time>2026-03-28T15:52:31.799Z</time></trkpt><trkpt lat="40.607545" lon="14.9740067"><ele>69.0</ele><time>2026-03-28T15:52:32.799Z</time></trkpt><trkpt lat="40.607605" lon="14.9738267"><ele>69.0</ele><time>2026-03-28T15:52:33.8Z</time></trkpt><trkpt lat="40.60766" lon="14.9736533"><ele>69.0</ele><time>2026-03-28T15:52:34.799Z</time></trkpt><trkpt lat="40.60771" lon="14.9734717"><ele>69.0</ele><time>2026-03-28T15:52:35.8Z</time></trkpt><trkpt lat="40.607765" lon="14.9732917"><ele>69.0</ele><time>2026-03-28T15:52:36.8Z</time></trkpt><trkpt lat="40.6078183" lon="14.9731133"><ele>67.66666666666667</ele><time>2026-03-28T15:52:37.799Z</time></trkpt><trkpt lat="40.6078583" lon="14.9729333"><ele>66.33333333333334</ele><time>2026-03-28T15:52:38.8Z</time></trkpt><trkpt lat="40.60792" lon="14.97275"><ele>65.0</ele><time>2026-03-28T15:52:39.801Z</time></trkpt><trkpt lat="40.6079767" lon="14.972555"><ele>64.33333333333334</ele><time>2026-03-28T15:52:40.801Z</time></trkpt><trkpt lat="40.60803" lon="14.972355"><ele>63.66666666666667</ele><time>2026-03-28T15:52:41.802Z</time></trkpt><trkpt lat="40.6080867" lon="14.9721583"><ele>63.0</ele><time>2026-03-28T15:52:42.801Z</time></trkpt><trkpt lat="40.6081433" lon="14.97196"><ele>63.0</ele><time>2026-03-28T15:52:43.8Z</time></trkpt><trkpt lat="40.6081883" lon="14.9717667"><ele>63.0</ele><time>2026-03-28T15:52:44.799Z</time></trkpt><trkpt lat="40.608235" lon="14.9715833"><ele>63.0</ele><time>2026-03-28T15:52:45.799Z</time></trkpt><trkpt lat="40.6082767" lon="14.9713983"><ele>63.0</ele><time>2026-03-28T15:52:46.8Z</time></trkpt><trkpt lat="40.6083033" lon="14.9711933"><ele>62.66666666666667</ele><time>2026-03-28T15:52:47.8Z</time></trkpt><trkpt lat="40.6083117" lon="14.9709617"><ele>62.333333333333336</ele><time>2026-03-28T15:52:48.8Z</time></trkpt><trkpt lat="40.608315" lon="14.9707333"><ele>62.0</ele><time>2026-03-28T15:52:49.8Z</time></trkpt><trkpt lat="40.6083117" lon="14.9705117"><ele>62.0</ele><time>2026-03-28T15:52:50.799Z</time></trkpt><trkpt lat="40.6083017" lon="14.9702883"><ele>62.0</ele><time>2026-03-28T15:52:51.801Z</time></trkpt><trkpt lat="40.608295" lon="14.9700883"><ele>62.0</ele><time>2026-03-28T15:52:52.801Z</time></trkpt><trkpt lat="40.6082767" lon="14.9698983"><ele>61.75</ele><time>2026-03-28T15:52:53.799Z</time></trkpt><trkpt lat="40.608255" lon="14.9697133"><ele>61.5</ele><time>2026-03-28T15:52:54.799Z</time></trkpt><trkpt lat="40.60822" lon="14.969545"><ele>61.25</ele><time>2026-03-28T15:52:55.799Z</time></trkpt><trkpt lat="40.6081667" lon="14.96938"><ele>61.0</ele><time>2026-03-28T15:52:56.799Z</time></trkpt><trkpt lat="40.6080783" lon="14.96922"><ele>61.0</ele><time>2026-03-28T15:52:57.8Z</time></trkpt><trkpt lat="40.6079817" lon="14.9690617"><ele>61.0</ele><time>2026-03-28T15:52:58.801Z</time></trkpt><trkpt lat="40.6078817" lon="14.9689067"><ele>61.0</ele><time>2026-03-28T15:52:59.802Z</time></trkpt><trkpt lat="40.6077833" lon="14.96875"><ele>60.33333333333333</ele><time>2026-03-28T15:53:00.8Z</time></trkpt><trkpt lat="40.6076917" lon="14.9686"><ele>59.66666666666667</ele><time>2026-03-28T15:53:01.802Z</time></trkpt><trkpt lat="40.607595" lon="14.968445"><ele>59.0</ele><time>2026-03-28T15:53:02.799Z</time></trkpt><trkpt lat="40.6074967" lon="14.9682883"><ele>58.66666666666667</ele><time>2026-03-28T15:53:03.799Z</time></trkpt><trkpt lat="40.6074" lon="14.968135"><ele>58.33333333333333</ele><time>2026-03-28T15:53:04.8Z</time></trkpt><trkpt lat="40.6073033" lon="14.967975"><ele>58.0</ele><time>2026-03-28T15:53:05.8Z</time></trkpt><trkpt lat="40.60721" lon="14.9678183"><ele>58.0</ele><time>2026-03-28T15:53:06.802Z</time></trkpt><trkpt lat="40.6071133" lon="14.9676583"><ele>58.0</ele><time>2026-03-28T15:53:07.799Z</time></trkpt><trkpt lat="40.60702" lon="14.9674967"><ele>58.0</ele><time>2026-03-28T15:53:08.8Z</time></trkpt><trkpt lat="40.6069167" lon="14.9673217"><ele>58.0</ele><time>2026-03-28T15:53:09.802Z</time></trkpt><trkpt lat="40.606815" lon="14.9671367"><ele>58.0</ele><time>2026-03-28T15:53:10.802Z</time></trkpt><trkpt lat="40.6067133" lon="14.966945"><ele>58.0</ele><time>2026-03-28T15:53:11.803Z</time></trkpt><trkpt lat="40.6065967" lon="14.9667383"><ele>57.666666666666664</ele><time>2026-03-28T15:53:12.798Z</time></trkpt><trkpt lat="40.6064817" lon="14.9665133"><ele>57.33333333333333</ele><time>2026-03-28T15:53:13.801Z</time></trkpt><trkpt lat="40.60636" lon="14.966275"><ele>57.0</ele><time>2026-03-28T15:53:14.801Z</time></trkpt><trkpt lat="40.6062317" lon="14.9660333"><ele>56.5</ele><time>2026-03-28T15:53:15.799Z</time></trkpt><trkpt lat="40.6061067" lon="14.965785"><ele>56.0</ele><time>2026-03-28T15:53:16.799Z</time></trkpt><trkpt lat="40.60598" lon="14.9655383"><ele>56.0</ele><time>2026-03-28T15:53:17.801Z</time></trkpt><trkpt lat="40.6058583" lon="14.9652983"><ele>56.0</ele><time>2026-03-28T15:53:18.8Z</time></trkpt><trkpt lat="40.6057367" lon="14.96507"><ele>56.0</ele><time>2026-03-28T15:53:19.801Z</time></trkpt><trkpt lat="40.60562" lon="14.964855"><ele>56.0</ele><time>2026-03-28T15:53:20.799Z</time></trkpt><trkpt lat="40.6055067" lon="14.96465"><ele>56.0</ele><time>2026-03-28T15:53:21.8Z</time></trkpt><trkpt lat="40.605395" lon="14.9644467"><ele>56.0</ele><time>2026-03-28T15:53:22.8Z</time></trkpt><trkpt lat="40.60529" lon="14.96424"><ele>56.66666666666667</ele><time>2026-03-28T15:53:23.802Z</time></trkpt><trkpt lat="40.605185" lon="14.9640333"><ele>57.33333333333333</ele><time>2026-03-28T15:53:24.802Z</time></trkpt><trkpt lat="40.6050783" lon="14.9638267"><ele>58.0</ele><time>2026-03-28T15:53:25.801Z</time></trkpt><trkpt lat="40.604975" lon="14.963625"><ele>58.0</ele><time>2026-03-28T15:53:26.8Z</time></trkpt><trkpt lat="40.6048717" lon="14.96342"><ele>58.0</ele><time>2026-03-28T15:53:27.803Z</time></trkpt><trkpt lat="40.60477" lon="14.9632117"><ele>58.0</ele><time>2026-03-28T15:53:28.8Z</time></trkpt><trkpt lat="40.6046667" lon="14.9630067"><ele>58.0</ele><time>2026-03-28T15:53:29.799Z</time></trkpt><trkpt lat="40.6045533" lon="14.9628067"><ele>58.0</ele><time>2026-03-28T15:53:30.803Z</time></trkpt><trkpt lat="40.604435" lon="14.9626167"><ele>58.0</ele><time>2026-03-28T15:53:31.799Z</time></trkpt><trkpt lat="40.604305" lon="14.962435"><ele>56.666666666666664</ele><time>2026-03-28T15:53:32.799Z</time></trkpt><trkpt lat="40.6041767" lon="14.9622733"><ele>55.33333333333333</ele><time>2026-03-28T15:53:33.799Z</time></trkpt><trkpt lat="40.60405" lon="14.9621283"><ele>54.0</ele><time>2026-03-28T15:53:34.799Z</time></trkpt><trkpt lat="40.6039217" lon="14.961985"><ele>54.0</ele><time>2026-03-28T15:53:35.801Z</time></trkpt><trkpt lat="40.6037933" lon="14.9618367"><ele>54.0</ele><time>2026-03-28T15:53:36.8Z</time></trkpt><trkpt lat="40.6036583" lon="14.9616867"><ele>54.0</ele><time>2026-03-28T15:53:37.799Z</time></trkpt><trkpt lat="40.603515" lon="14.9615383"><ele>53.33333333333333</ele><time>2026-03-28T15:53:38.799Z</time></trkpt><trkpt lat="40.6033767" lon="14.961395"><ele>52.666666666666664</ele><time>2026-03-28T15:53:39.8Z</time></trkpt><trkpt lat="40.6032433" lon="14.961255"><ele>52.0</ele><time>2026-03-28T15:53:40.801Z</time></trkpt><trkpt lat="40.6031117" lon="14.961115"><ele>52.0</ele><time>2026-03-28T15:53:41.802Z</time></trkpt><trkpt lat="40.602985" lon="14.9609833"><ele>52.0</ele><time>2026-03-28T15:53:42.801Z</time></trkpt><trkpt lat="40.6028733" lon="14.9608633"><ele>52.0</ele><time>2026-03-28T15:53:43.801Z</time></trkpt><trkpt lat="40.6027683" lon="14.960745"><ele>52.0</ele><time>2026-03-28T15:53:44.801Z</time></trkpt><trkpt lat="40.6026633" lon="14.9606267"><ele>51.5</ele><time>2026-03-28T15:53:45.8Z</time></trkpt><trkpt lat="40.6025617" lon="14.9605117"><ele>51.0</ele><time>2026-03-28T15:53:46.799Z</time></trkpt><trkpt lat="40.6024667" lon="14.9603833"><ele>50.5</ele><time>2026-03-28T15:53:47.8Z</time></trkpt><trkpt lat="40.6023717" lon="14.9602417"><ele>50.0</ele><time>2026-03-28T15:53:48.8Z</time></trkpt><trkpt lat="40.60228" lon="14.9600917"><ele>50.0</ele><time>2026-03-28T15:53:49.799Z</time></trkpt><trkpt lat="40.6021817" lon="14.95994"><ele>50.0</ele><time>2026-03-28T15:53:50.803Z</time></trkpt><trkpt lat="40.6020767" lon="14.95978"><ele>50.0</ele><time>2026-03-28T15:53:51.8Z</time></trkpt><trkpt lat="40.6019633" lon="14.9596"><ele>49.333333333333336</ele><time>2026-03-28T15:53:52.8Z</time></trkpt><trkpt lat="40.6018533" lon="14.9594033"><ele>48.66666666666667</ele><time>2026-03-28T15:53:53.802Z</time></trkpt><trkpt lat="40.6017433" lon="14.959195"><ele>48.0</ele><time>2026-03-28T15:53:54.8Z</time></trkpt><trkpt lat="40.6016167" lon="14.958985"><ele>48.0</ele><time>2026-03-28T15:53:55.802Z</time></trkpt><trkpt lat="40.6014867" lon="14.9587717"><ele>48.0</ele><time>2026-03-28T15:53:56.803Z</time></trkpt><trkpt lat="40.6013617" lon="14.9585583"><ele>48.0</ele><time>2026-03-28T15:53:57.802Z</time></trkpt><trkpt lat="40.6012467" lon="14.958355"><ele>47.333333333333336</ele><time>2026-03-28T15:53:58.803Z</time></trkpt><trkpt lat="40.6011383" lon="14.95816"><ele>46.66666666666667</ele><time>2026-03-28T15:53:59.803Z</time></trkpt><trkpt lat="40.6010417" lon="14.95798"><ele>46.0</ele><time>2026-03-28T15:54:00.801Z</time></trkpt><trkpt lat="40.6009517" lon="14.9577833"><ele>46.0</ele><time>2026-03-28T15:54:01.8Z</time></trkpt><trkpt lat="40.600865" lon="14.9575533"><ele>46.0</ele><time>2026-03-28T15:54:02.802Z</time></trkpt><trkpt lat="40.600775" lon="14.9573"><ele>46.0</ele><time>2026-03-28T15:54:03.801Z</time></trkpt><trkpt lat="40.6006833" lon="14.9570283"><ele>45.5</ele><time>2026-03-28T15:54:04.8Z</time></trkpt><trkpt lat="40.6005867" lon="14.9567417"><ele>45.0</ele><time>2026-03-28T15:54:05.802Z</time></trkpt><trkpt lat="40.6004933" lon="14.9564633"><ele>44.333333333333336</ele><time>2026-03-28T15:54:06.801Z</time></trkpt><trkpt lat="40.600405" lon="14.9561933"><ele>43.66666666666667</ele><time>2026-03-28T15:54:07.802Z</time></trkpt><trkpt lat="40.6003167" lon="14.9559367"><ele>43.0</ele><time>2026-03-28T15:54:08.799Z</time></trkpt><trkpt lat="40.60023" lon="14.955685"><ele>42.66666666666667</ele><time>2026-03-28T15:54:09.799Z</time></trkpt><trkpt lat="40.6001533" lon="14.955445"><ele>42.333333333333336</ele><time>2026-03-28T15:54:10.799Z</time></trkpt><trkpt lat="40.6000783" lon="14.95521"><ele>42.0</ele><time>2026-03-28T15:54:11.803Z</time></trkpt><trkpt lat="40.6000033" lon="14.954985"><ele>42.0</ele><time>2026-03-28T15:54:12.799Z</time></trkpt><trkpt lat="40.599925" lon="14.9547617"><ele>42.0</ele><time>2026-03-28T15:54:13.801Z</time></trkpt><trkpt lat="40.5998417" lon="14.9545433"><ele>42.0</ele><time>2026-03-28T15:54:14.802Z</time></trkpt><trkpt lat="40.5997517" lon="14.9543283"><ele>41.666666666666664</ele><time>2026-03-28T15:54:15.799Z</time></trkpt><trkpt lat="40.59965" lon="14.9541167"><ele>41.33333333333333</ele><time>2026-03-28T15:54:16.799Z</time></trkpt><trkpt lat="40.599545" lon="14.9539"><ele>41.0</ele><time>2026-03-28T15:54:17.8Z</time></trkpt><trkpt lat="40.5994383" lon="14.9536817"><ele>41.0</ele><time>2026-03-28T15:54:18.8Z</time></trkpt><trkpt lat="40.599335" lon="14.95347"><ele>41.0</ele><time>2026-03-28T15:54:19.799Z</time></trkpt><trkpt lat="40.59924" lon="14.95328"><ele>41.0</ele><time>2026-03-28T15:54:20.799Z</time></trkpt><trkpt lat="40.59916" lon="14.9531167"><ele>41.0</ele><time>2026-03-28T15:54:21.799Z</time></trkpt><trkpt lat="40.5990883" lon="14.9529683"><ele>41.0</ele><time>2026-03-28T15:54:22.799Z</time></trkpt><trkpt lat="40.5990183" lon="14.952825"><ele>41.0</ele><time>2026-03-28T15:54:23.801Z</time></trkpt><trkpt lat="40.59895" lon="14.9526867"><ele>41.0</ele><time>2026-03-28T15:54:24.801Z</time></trkpt><trkpt lat="40.598885" lon="14.9525533"><ele>40.75</ele><time>2026-03-28T15:54:25.8Z</time></trkpt><trkpt lat="40.5988233" lon="14.952425"><ele>40.5</ele><time>2026-03-28T15:54:26.799Z</time></trkpt><trkpt lat="40.59877" lon="14.952295"><ele>40.25</ele><time>2026-03-28T15:54:27.799Z</time></trkpt><trkpt lat="40.59871" lon="14.952165"><ele>40.0</ele><time>2026-03-28T15:54:28.8Z</time></trkpt><trkpt lat="40.5986533" lon="14.9520383"><ele>40.0</ele><time>2026-03-28T15:54:29.8Z</time></trkpt><trkpt lat="40.5986067" lon="14.9519117"><ele>40.0</ele><time>2026-03-28T15:54:30.8Z</time></trkpt><trkpt lat="40.5985583" lon="14.9517883"><ele>40.0</ele><time>2026-03-28T15:54:31.8Z</time></trkpt><trkpt lat="40.5985083" lon="14.951665"><ele>40.0</ele><time>2026-03-28T15:54:32.799Z</time></trkpt><trkpt lat="40.5984567" lon="14.9515383"><ele>40.0</ele><time>2026-03-28T15:54:33.799Z</time></trkpt><trkpt lat="40.5984017" lon="14.951405"><ele>39.75</ele><time>2026-03-28T15:54:34.799Z</time></trkpt><trkpt lat="40.5983433" lon="14.95127"><ele>39.5</ele><time>2026-03-28T15:54:35.8Z</time></trkpt><trkpt lat="40.5982833" lon="14.951125"><ele>39.25</ele><time>2026-03-28T15:54:36.799Z</time></trkpt><trkpt lat="40.5982267" lon="14.9509767"><ele>39.0</ele><time>2026-03-28T15:54:37.799Z</time></trkpt><trkpt lat="40.5981717" lon="14.9508383"><ele>38.75</ele><time>2026-03-28T15:54:38.8Z</time></trkpt><trkpt lat="40.59811" lon="14.950685"><ele>38.5</ele><time>2026-03-28T15:54:39.799Z</time></trkpt><trkpt lat="40.5980533" lon="14.9505317"><ele>38.25</ele><time>2026-03-28T15:54:40.799Z</time></trkpt><trkpt lat="40.5979883" lon="14.950375"><ele>38.0</ele><time>2026-03-28T15:54:41.801Z</time></trkpt><trkpt lat="40.597925" lon="14.950225"><ele>38.0</ele><time>2026-03-28T15:54:42.802Z</time></trkpt><trkpt lat="40.5978617" lon="14.9500833"><ele>38.0</ele><time>2026-03-28T15:54:43.799Z</time></trkpt><trkpt lat="40.5978067" lon="14.94995"><ele>38.0</ele><time>2026-03-28T15:54:44.799Z</time></trkpt><trkpt lat="40.5977583" lon="14.9498233"><ele>38.0</ele><time>2026-03-28T15:54:45.799Z</time></trkpt><trkpt lat="40.5977117" lon="14.9497"><ele>38.199999999999996</ele><time>2026-03-28T15:54:46.799Z</time></trkpt><trkpt lat="40.5976683" lon="14.9495833"><ele>38.4</ele><time>2026-03-28T15:54:47.799Z</time></trkpt><trkpt lat="40.59762" lon="14.9494667"><ele>38.599999999999994</ele><time>2026-03-28T15:54:48.799Z</time></trkpt><trkpt lat="40.5975717" lon="14.9493533"><ele>38.8</ele><time>2026-03-28T15:54:49.799Z</time></trkpt><trkpt lat="40.59752" lon="14.9492417"><ele>39.0</ele><time>2026-03-28T15:54:50.8Z</time></trkpt><trkpt lat="40.5974667" lon="14.9491183"><ele>39.0</ele><time>2026-03-28T15:54:51.799Z</time></trkpt><trkpt lat="40.5974083" lon="14.948985"><ele>39.0</ele><time>2026-03-28T15:54:52.802Z</time></trkpt><trkpt lat="40.5973467" lon="14.9488317"><ele>39.0</ele><time>2026-03-28T15:54:53.802Z</time></trkpt><trkpt lat="40.5972767" lon="14.9486583"><ele>39.0</ele><time>2026-03-28T15:54:54.799Z</time></trkpt><trkpt lat="40.597205" lon="14.948465"><ele>39.0</ele><time>2026-03-28T15:54:55.801Z</time></trkpt><trkpt lat="40.5971267" lon="14.9482617"><ele>39.0</ele><time>2026-03-28T15:54:56.803Z</time></trkpt><trkpt lat="40.597045" lon="14.9480583"><ele>39.0</ele><time>2026-03-28T15:54:57.802Z</time></trkpt><trkpt lat="40.59697" lon="14.9478517"><ele>39.0</ele><time>2026-03-28T15:54:58.801Z</time></trkpt><trkpt lat="40.5968967" lon="14.9476517"><ele>39.0</ele><time>2026-03-28T15:54:59.8Z</time></trkpt><trkpt lat="40.5968283" lon="14.9474667"><ele>39.0</ele><time>2026-03-28T15:55:00.8Z</time></trkpt><trkpt lat="40.596765" lon="14.9473"><ele>38.75</ele><time>2026-03-28T15:55:01.801Z</time></trkpt><trkpt lat="40.5967083" lon="14.9471483"><ele>38.5</ele><time>2026-03-28T15:55:02.8Z</time></trkpt><trkpt lat="40.59665" lon="14.9470067"><ele>38.25</ele><time>2026-03-28T15:55:03.801Z</time></trkpt><trkpt lat="40.5966" lon="14.9468717"><ele>38.0</ele><time>2026-03-28T15:55:04.8Z</time></trkpt><trkpt lat="40.5965467" lon="14.9467183"><ele>38.0</ele><time>2026-03-28T15:55:05.8Z</time></trkpt><trkpt lat="40.59649" lon="14.946555"><ele>38.0</ele><time>2026-03-28T15:55:06.799Z</time></trkpt><trkpt lat="40.5964367" lon="14.9463833"><ele>38.0</ele><time>2026-03-28T15:55:07.8Z</time></trkpt><trkpt lat="40.5963867" lon="14.9461883"><ele>38.0</ele><time>2026-03-28T15:55:08.8Z</time></trkpt><trkpt lat="40.5963417" lon="14.945975"><ele>37.0</ele><time>2026-03-28T15:55:09.8Z</time></trkpt><trkpt lat="40.5962917" lon="14.9457433"><ele>36.0</ele><time>2026-03-28T15:55:10.8Z</time></trkpt><trkpt lat="40.5962483" lon="14.94553"><ele>35.0</ele><time>2026-03-28T15:55:11.802Z</time></trkpt><trkpt lat="40.5962067" lon="14.9453333"><ele>35.0</ele><time>2026-03-28T15:55:12.801Z</time></trkpt><trkpt lat="40.5961733" lon="14.94515"><ele>35.0</ele><time>2026-03-28T15:55:13.801Z</time></trkpt><trkpt lat="40.5961467" lon="14.944975"><ele>35.0</ele><time>2026-03-28T15:55:14.801Z</time></trkpt><trkpt lat="40.596115" lon="14.9448117"><ele>35.0</ele><time>2026-03-28T15:55:15.802Z</time></trkpt><trkpt lat="40.5960817" lon="14.94465"><ele>35.0</ele><time>2026-03-28T15:55:16.799Z</time></trkpt><trkpt lat="40.5960467" lon="14.9444867"><ele>35.0</ele><time>2026-03-28T15:55:17.801Z</time></trkpt><trkpt lat="40.5960117" lon="14.9443217"><ele>35.0</ele><time>2026-03-28T15:55:18.801Z</time></trkpt><trkpt lat="40.595975" lon="14.9441433"><ele>35.0</ele><time>2026-03-28T15:55:19.8Z</time></trkpt><trkpt lat="40.5959367" lon="14.943955"><ele>34.666666666666664</ele><time>2026-03-28T15:55:20.801Z</time></trkpt><trkpt lat="40.595895" lon="14.9437617"><ele>34.333333333333336</ele><time>2026-03-28T15:55:21.802Z</time></trkpt><trkpt lat="40.5958567" lon="14.943555"><ele>34.0</ele><time>2026-03-28T15:55:22.802Z</time></trkpt><trkpt lat="40.5958117" lon="14.94335"><ele>34.0</ele><time>2026-03-28T15:55:23.8Z</time></trkpt><trkpt lat="40.5957583" lon="14.94314"><ele>34.0</ele><time>2026-03-28T15:55:24.8Z</time></trkpt><trkpt lat="40.5957" lon="14.9429267"><ele>34.0</ele><time>2026-03-28T15:55:25.8Z</time></trkpt><trkpt lat="40.5956317" lon="14.9427167"><ele>34.333333333333336</ele><time>2026-03-28T15:55:26.801Z</time></trkpt><trkpt lat="40.5955517" lon="14.9425"><ele>34.666666666666664</ele><time>2026-03-28T15:55:27.8Z</time></trkpt><trkpt lat="40.5954717" lon="14.9422817"><ele>35.0</ele><time>2026-03-28T15:55:28.801Z</time></trkpt><trkpt lat="40.595385" lon="14.9420567"><ele>35.33333333333333</ele><time>2026-03-28T15:55:29.802Z</time></trkpt><trkpt lat="40.5953033" lon="14.941825"><ele>35.666666666666664</ele><time>2026-03-28T15:55:30.802Z</time></trkpt><trkpt lat="40.595215" lon="14.9415917"><ele>36.0</ele><time>2026-03-28T15:55:31.801Z</time></trkpt><trkpt lat="40.5951217" lon="14.941355"><ele>35.333333333333336</ele><time>2026-03-28T15:55:32.802Z</time></trkpt><trkpt lat="40.5950267" lon="14.9411183"><ele>34.66666666666667</ele><time>2026-03-28T15:55:33.8Z</time></trkpt><trkpt lat="40.5949317" lon="14.9408783"><ele>34.0</ele><time>2026-03-28T15:55:34.801Z</time></trkpt><trkpt lat="40.594835" lon="14.940635"><ele>34.0</ele><time>2026-03-28T15:55:35.801Z</time></trkpt><trkpt lat="40.5947383" lon="14.94039"><ele>34.0</ele><time>2026-03-28T15:55:36.801Z</time></trkpt><trkpt lat="40.5946383" lon="14.9401383"><ele>34.0</ele><time>2026-03-28T15:55:37.802Z</time></trkpt><trkpt lat="40.5945433" lon="14.93989"><ele>32.66666666666667</ele><time>2026-03-28T15:55:38.8Z</time></trkpt><trkpt lat="40.59444" lon="14.9396417"><ele>31.333333333333336</ele><time>2026-03-28T15:55:39.802Z</time></trkpt><trkpt lat="40.59434" lon="14.9393883"><ele>30.0</ele><time>2026-03-28T15:55:40.802Z</time></trkpt><trkpt lat="40.5942433" lon="14.9391367"><ele>30.0</ele><time>2026-03-28T15:55:41.801Z</time></trkpt><trkpt lat="40.594145" lon="14.9388817"><ele>30.0</ele><time>2026-03-28T15:55:42.8Z</time></trkpt><trkpt lat="40.5940433" lon="14.93862"><ele>30.0</ele><time>2026-03-28T15:55:43.8Z</time></trkpt><trkpt lat="40.5939483" lon="14.938365"><ele>30.0</ele><time>2026-03-28T15:55:44.8Z</time></trkpt><trkpt lat="40.593855" lon="14.93811"><ele>30.0</ele><time>2026-03-28T15:55:45.8Z</time></trkpt><trkpt lat="40.5937633" lon="14.9378617"><ele>30.0</ele><time>2026-03-28T15:55:46.8Z</time></trkpt><trkpt lat="40.5936667" lon="14.9376067"><ele>29.333333333333336</ele><time>2026-03-28T15:55:47.801Z</time></trkpt><trkpt lat="40.5935683" lon="14.9373483"><ele>28.666666666666668</ele><time>2026-03-28T15:55:48.801Z</time></trkpt><trkpt lat="40.59347" lon="14.9370867"><ele>28.0</ele><time>2026-03-28T15:55:49.801Z</time></trkpt><trkpt lat="40.5933733" lon="14.9368283"><ele>28.0</ele><time>2026-03-28T15:55:50.8Z</time></trkpt><trkpt lat="40.59328" lon="14.93657"><ele>28.0</ele><time>2026-03-28T15:55:51.8Z</time></trkpt><trkpt lat="40.5931833" lon="14.9363083"><ele>28.0</ele><time>2026-03-28T15:55:52.801Z</time></trkpt><trkpt lat="40.59309" lon="14.9360517"><ele>28.0</ele><time>2026-03-28T15:55:53.804Z</time></trkpt><trkpt lat="40.5929883" lon="14.9357917"><ele>28.0</ele><time>2026-03-28T15:55:54.801Z</time></trkpt><trkpt lat="40.5928867" lon="14.935525"><ele>28.0</ele><time>2026-03-28T15:55:55.802Z</time></trkpt><trkpt lat="40.592785" lon="14.9352583"><ele>27.333333333333336</ele><time>2026-03-28T15:55:56.8Z</time></trkpt><trkpt lat="40.5926817" lon="14.9349967"><ele>26.666666666666664</ele><time>2026-03-28T15:55:57.801Z</time></trkpt><trkpt lat="40.5925817" lon="14.93474"><ele>26.0</ele><time>2026-03-28T15:55:58.802Z</time></trkpt><trkpt lat="40.59248" lon="14.9344767"><ele>26.0</ele><time>2026-03-28T15:55:59.801Z</time></trkpt><trkpt lat="40.5923733" lon="14.934205"><ele>26.0</ele><time>2026-03-28T15:56:00.8Z</time></trkpt><trkpt lat="40.59227" lon="14.933925"><ele>26.0</ele><time>2026-03-28T15:56:01.8Z</time></trkpt><trkpt lat="40.592165" lon="14.9336433"><ele>26.0</ele><time>2026-03-28T15:56:02.803Z</time></trkpt><trkpt lat="40.59206" lon="14.9333667"><ele>26.0</ele><time>2026-03-28T15:56:03.802Z</time></trkpt><trkpt lat="40.5919517" lon="14.93309"><ele>26.0</ele><time>2026-03-28T15:56:04.803Z</time></trkpt><trkpt lat="40.5918517" lon="14.9328217"><ele>26.0</ele><time>2026-03-28T15:56:05.801Z</time></trkpt><trkpt lat="40.591755" lon="14.932565"><ele>26.0</ele><time>2026-03-28T15:56:06.801Z</time></trkpt><trkpt lat="40.59166" lon="14.932315"><ele>26.0</ele><time>2026-03-28T15:56:07.801Z</time></trkpt><trkpt lat="40.591565" lon="14.9320667"><ele>26.333333333333332</ele><time>2026-03-28T15:56:08.801Z</time></trkpt><trkpt lat="40.5914733" lon="14.9318233"><ele>26.666666666666664</ele><time>2026-03-28T15:56:09.8Z</time></trkpt><trkpt lat="40.591385" lon="14.9315917"><ele>27.0</ele><time>2026-03-28T15:56:10.801Z</time></trkpt><trkpt lat="40.5913083" lon="14.9313817"><ele>26.666666666666664</ele><time>2026-03-28T15:56:11.799Z</time></trkpt><trkpt lat="40.5912383" lon="14.9311833"><ele>26.333333333333332</ele><time>2026-03-28T15:56:12.8Z</time></trkpt><trkpt lat="40.5911683" lon="14.931"><ele>26.0</ele><time>2026-03-28T15:56:13.8Z</time></trkpt><trkpt lat="40.591095" lon="14.9308283"><ele>25.75</ele><time>2026-03-28T15:56:14.802Z</time></trkpt><trkpt lat="40.5910117" lon="14.93067"><ele>25.5</ele><time>2026-03-28T15:56:15.799Z</time></trkpt><trkpt lat="40.5909217" lon="14.9305333"><ele>25.25</ele><time>2026-03-28T15:56:16.801Z</time></trkpt><trkpt lat="40.590835" lon="14.93041"><ele>25.0</ele><time>2026-03-28T15:56:17.799Z</time></trkpt><trkpt lat="40.5907633" lon="14.9303133"><ele>25.000000000000004</ele><time>2026-03-28T15:56:18.801Z</time></trkpt><trkpt lat="40.5907033" lon="14.9302317"><ele>25.0</ele><time>2026-03-28T15:56:19.8Z</time></trkpt><trkpt lat="40.59065" lon="14.9301633"><ele>25.0</ele><time>2026-03-28T15:56:20.799Z</time></trkpt><trkpt lat="40.5906" lon="14.93011"><ele>25.0</ele><time>2026-03-28T15:56:21.799Z</time></trkpt><trkpt lat="40.590535" lon="14.9300917"><ele>25.0</ele><time>2026-03-28T15:56:22.799Z</time></trkpt><trkpt lat="40.5904683" lon="14.930095"><ele>25.000000000000004</ele><time>2026-03-28T15:56:23.802Z</time></trkpt><trkpt lat="40.5903867" lon="14.9301217"><ele>25.0</ele><time>2026-03-28T15:56:24.8Z</time></trkpt><trkpt lat="40.5903" lon="14.9301617"><ele>24.75</ele><time>2026-03-28T15:56:25.8Z</time></trkpt><trkpt lat="40.5902117" lon="14.9302083"><ele>24.5</ele><time>2026-03-28T15:56:26.799Z</time></trkpt><trkpt lat="40.590115" lon="14.9302817"><ele>24.25</ele><time>2026-03-28T15:56:27.8Z</time></trkpt><trkpt lat="40.590005" lon="14.93037"><ele>24.0</ele><time>2026-03-28T15:56:28.801Z</time></trkpt><trkpt lat="40.5898917" lon="14.930455"><ele>24.0</ele><time>2026-03-28T15:56:29.801Z</time></trkpt><trkpt lat="40.5897783" lon="14.930545"><ele>24.0</ele><time>2026-03-28T15:56:30.802Z</time></trkpt><trkpt lat="40.5896517" lon="14.9306483"><ele>24.0</ele><time>2026-03-28T15:56:31.801Z</time></trkpt><trkpt lat="40.5895267" lon="14.9307433"><ele>24.0</ele><time>2026-03-28T15:56:32.801Z</time></trkpt><trkpt lat="40.5894" lon="14.930835"><ele>23.75</ele><time>2026-03-28T15:56:33.801Z</time></trkpt><trkpt lat="40.5892683" lon="14.9309317"><ele>23.5</ele><time>2026-03-28T15:56:34.8Z</time></trkpt><trkpt lat="40.5891367" lon="14.9310233"><ele>23.25</ele><time>2026-03-28T15:56:35.8Z</time></trkpt><trkpt lat="40.5890117" lon="14.93111"><ele>23.0</ele><time>2026-03-28T15:56:36.799Z</time></trkpt><trkpt lat="40.5888867" lon="14.9312033"><ele>23.0</ele><time>2026-03-28T15:56:37.799Z</time></trkpt><trkpt lat="40.5887633" lon="14.931295"><ele>23.0</ele><time>2026-03-28T15:56:38.801Z</time></trkpt><trkpt lat="40.5886433" lon="14.9313883"><ele>23.0</ele><time>2026-03-28T15:56:39.802Z</time></trkpt><trkpt lat="40.58852" lon="14.9314733"><ele>23.0</ele><time>2026-03-28T15:56:40.804Z</time></trkpt><trkpt lat="40.5883967" lon="14.9315567"><ele>23.0</ele><time>2026-03-28T15:56:41.799Z</time></trkpt><trkpt lat="40.5882767" lon="14.931635"><ele>23.0</ele><time>2026-03-28T15:56:42.799Z</time></trkpt><trkpt lat="40.5881517" lon="14.9317183"><ele>23.0</ele><time>2026-03-28T15:56:43.8Z</time></trkpt><trkpt lat="40.5880233" lon="14.9318083"><ele>23.0</ele><time>2026-03-28T15:56:44.8Z</time></trkpt><trkpt lat="40.5878917" lon="14.9319117"><ele>23.0</ele><time>2026-03-28T15:56:45.8Z</time></trkpt><trkpt lat="40.5877617" lon="14.932005"><ele>23.0</ele><time>2026-03-28T15:56:46.801Z</time></trkpt><trkpt lat="40.587645" lon="14.932095"><ele>23.0</ele><time>2026-03-28T15:56:47.8Z</time></trkpt><trkpt lat="40.5875383" lon="14.93217"><ele>23.0</ele><time>2026-03-28T15:56:48.799Z</time></trkpt><trkpt lat="40.5874367" lon="14.932235"><ele>23.0</ele><time>2026-03-28T15:56:49.8Z</time></trkpt><trkpt lat="40.58734" lon="14.93231"><ele>23.0</ele><time>2026-03-28T15:56:50.799Z</time></trkpt><trkpt lat="40.5872383" lon="14.9323933"><ele>23.0</ele><time>2026-03-28T15:56:51.8Z</time></trkpt><trkpt lat="40.587135" lon="14.9324783"><ele>23.0</ele><time>2026-03-28T15:56:52.8Z</time></trkpt><trkpt lat="40.5870283" lon="14.9325533"><ele>23.25</ele><time>2026-03-28T15:56:53.802Z</time></trkpt><trkpt lat="40.58692" lon="14.932625"><ele>23.5</ele><time>2026-03-28T15:56:54.8Z</time></trkpt><trkpt lat="40.5868067" lon="14.9327"><ele>23.75</ele><time>2026-03-28T15:56:55.803Z</time></trkpt><trkpt lat="40.5866917" lon="14.9327867"><ele>24.0</ele><time>2026-03-28T15:56:56.801Z</time></trkpt><trkpt lat="40.5865817" lon="14.93287"><ele>24.0</ele><time>2026-03-28T15:56:57.8Z</time></trkpt><trkpt lat="40.5864717" lon="14.9329583"><ele>24.0</ele><time>2026-03-28T15:56:58.799Z</time></trkpt><trkpt lat="40.58636" lon="14.9330533"><ele>24.0</ele><time>2026-03-28T15:56:59.8Z</time></trkpt><trkpt lat="40.5862467" lon="14.9331483"><ele>24.0</ele><time>2026-03-28T15:57:00.801Z</time></trkpt><trkpt lat="40.5861267" lon="14.93324"><ele>24.0</ele><time>2026-03-28T15:57:01.799Z</time></trkpt><trkpt lat="40.586" lon="14.93333"><ele>24.0</ele><time>2026-03-28T15:57:02.799Z</time></trkpt><trkpt lat="40.5858717" lon="14.9334233"><ele>24.0</ele><time>2026-03-28T15:57:03.799Z</time></trkpt><trkpt lat="40.5857417" lon="14.93352"><ele>24.0</ele><time>2026-03-28T15:57:04.801Z</time></trkpt><trkpt lat="40.5856133" lon="14.933615"><ele>24.25</ele><time>2026-03-28T15:57:05.801Z</time></trkpt><trkpt lat="40.585485" lon="14.9337133"><ele>24.5</ele><time>2026-03-28T15:57:06.803Z</time></trkpt><trkpt lat="40.5853633" lon="14.9338067"><ele>24.75</ele><time>2026-03-28T15:57:07.802Z</time></trkpt><trkpt lat="40.5852417" lon="14.9339"><ele>25.0</ele><time>2026-03-28T15:57:08.803Z</time></trkpt><trkpt lat="40.5851183" lon="14.9339883"><ele>25.25</ele><time>2026-03-28T15:57:09.8Z</time></trkpt><trkpt lat="40.5849967" lon="14.9340833"><ele>25.5</ele><time>2026-03-28T15:57:10.803Z</time></trkpt><trkpt lat="40.584875" lon="14.9341683"><ele>25.75</ele><time>2026-03-28T15:57:11.801Z</time></trkpt><trkpt lat="40.5847567" lon="14.9342433"><ele>26.0</ele><time>2026-03-28T15:57:12.799Z</time></trkpt><trkpt lat="40.5846383" lon="14.9343317"><ele>26.0</ele><time>2026-03-28T15:57:13.801Z</time></trkpt><trkpt lat="40.5845183" lon="14.9344217"><ele>26.0</ele><time>2026-03-28T15:57:14.8Z</time></trkpt><trkpt lat="40.5843917" lon="14.9345183"><ele>26.0</ele><time>2026-03-28T15:57:15.8Z</time></trkpt><trkpt lat="40.58426" lon="14.9346117"><ele>26.0</ele><time>2026-03-28T15:57:16.799Z</time></trkpt><trkpt lat="40.5841217" lon="14.934705"><ele>25.666666666666664</ele><time>2026-03-28T15:57:17.8Z</time></trkpt><trkpt lat="40.5839817" lon="14.934805"><ele>25.333333333333336</ele><time>2026-03-28T15:57:18.801Z</time></trkpt><trkpt lat="40.5838433" lon="14.9349083"><ele>25.0</ele><time>2026-03-28T15:57:19.8Z</time></trkpt><trkpt lat="40.5837167" lon="14.9350017"><ele>25.25</ele><time>2026-03-28T15:57:20.801Z</time></trkpt><trkpt lat="40.5836017" lon="14.9350783"><ele>25.5</ele><time>2026-03-28T15:57:21.8Z</time></trkpt><trkpt lat="40.5834817" lon="14.93516"><ele>25.75</ele><time>2026-03-28T15:57:22.8Z</time></trkpt><trkpt lat="40.5833517" lon="14.935265"><ele>26.0</ele><time>2026-03-28T15:57:23.8Z</time></trkpt><trkpt lat="40.583225" lon="14.9353583"><ele>26.0</ele><time>2026-03-28T15:57:24.802Z</time></trkpt><trkpt lat="40.5831017" lon="14.93545"><ele>26.0</ele><time>2026-03-28T15:57:25.803Z</time></trkpt><trkpt lat="40.58298" lon="14.9355433"><ele>26.0</ele><time>2026-03-28T15:57:26.801Z</time></trkpt><trkpt lat="40.58286" lon="14.9356283"><ele>26.0</ele><time>2026-03-28T15:57:27.801Z</time></trkpt><trkpt lat="40.582745" lon="14.9357067"><ele>26.0</ele><time>2026-03-28T15:57:28.801Z</time></trkpt><trkpt lat="40.58263" lon="14.93579"><ele>26.0</ele><time>2026-03-28T15:57:29.801Z</time></trkpt><trkpt lat="40.5825133" lon="14.9358717"><ele>26.0</ele><time>2026-03-28T15:57:30.8Z</time></trkpt><trkpt lat="40.5823883" lon="14.9359617"><ele>26.0</ele><time>2026-03-28T15:57:31.799Z</time></trkpt><trkpt lat="40.5822683" lon="14.93605"><ele>26.0</ele><time>2026-03-28T15:57:32.8Z</time></trkpt><trkpt lat="40.58215" lon="14.9361333"><ele>26.0</ele><time>2026-03-28T15:57:33.799Z</time></trkpt><trkpt lat="40.58203" lon="14.936225"><ele>26.0</ele><time>2026-03-28T15:57:34.8Z</time></trkpt><trkpt lat="40.58191" lon="14.9363117"><ele>26.0</ele><time>2026-03-28T15:57:35.799Z</time></trkpt><trkpt lat="40.5817833" lon="14.9364067"><ele>26.0</ele><time>2026-03-28T15:57:36.8Z</time></trkpt><trkpt lat="40.58166" lon="14.936495"><ele>26.0</ele><time>2026-03-28T15:57:37.802Z</time></trkpt><trkpt lat="40.581535" lon="14.93659"><ele>26.0</ele><time>2026-03-28T15:57:38.802Z</time></trkpt><trkpt lat="40.581405" lon="14.936685"><ele>26.0</ele><time>2026-03-28T15:57:39.8Z</time></trkpt><trkpt lat="40.58128" lon="14.9367733"><ele>26.0</ele><time>2026-03-28T15:57:40.801Z</time></trkpt><trkpt lat="40.5811567" lon="14.9368633"><ele>26.0</ele><time>2026-03-28T15:57:41.801Z</time></trkpt><trkpt lat="40.5810333" lon="14.936955"><ele>26.0</ele><time>2026-03-28T15:57:42.8Z</time></trkpt><trkpt lat="40.5809117" lon="14.937045"><ele>26.0</ele><time>2026-03-28T15:57:43.801Z</time></trkpt><trkpt lat="40.5807917" lon="14.9371383"><ele>26.0</ele><time>2026-03-28T15:57:44.801Z</time></trkpt><trkpt lat="40.5806767" lon="14.9372267"><ele>26.0</ele><time>2026-03-28T15:57:45.8Z</time></trkpt><trkpt lat="40.5805717" lon="14.9373067"><ele>26.0</ele><time>2026-03-28T15:57:46.8Z</time></trkpt><trkpt lat="40.5804833" lon="14.93738"><ele>26.0</ele><time>2026-03-28T15:57:47.8Z</time></trkpt><trkpt lat="40.5804067" lon="14.9374367"><ele>26.0</ele><time>2026-03-28T15:57:48.8Z</time></trkpt><trkpt lat="40.5803383" lon="14.9374867"><ele>26.200000000000003</ele><time>2026-03-28T15:57:49.799Z</time></trkpt><trkpt lat="40.5802717" lon="14.9375333"><ele>26.400000000000002</ele><time>2026-03-28T15:57:50.799Z</time></trkpt><trkpt lat="40.5802033" lon="14.9375883"><ele>26.6</ele><time>2026-03-28T15:57:51.8Z</time></trkpt><trkpt lat="40.580125" lon="14.9376433"><ele>26.8</ele><time>2026-03-28T15:57:52.8Z</time></trkpt><trkpt lat="40.580035" lon="14.9377033"><ele>27.0</ele><time>2026-03-28T15:57:53.801Z</time></trkpt><trkpt lat="40.5799383" lon="14.93778"><ele>27.0</ele><time>2026-03-28T15:57:54.799Z</time></trkpt><trkpt lat="40.5798333" lon="14.93786"><ele>27.0</ele><time>2026-03-28T15:57:55.8Z</time></trkpt><trkpt lat="40.5797183" lon="14.9379433"><ele>27.0</ele><time>2026-03-28T15:57:56.8Z</time></trkpt><trkpt lat="40.5795983" lon="14.93803"><ele>27.0</ele><time>2026-03-28T15:57:57.8Z</time></trkpt><trkpt lat="40.5794683" lon="14.9381233"><ele>27.0</ele><time>2026-03-28T15:57:58.8Z</time></trkpt><trkpt lat="40.5793417" lon="14.9382183"><ele>27.0</ele><time>2026-03-28T15:57:59.801Z</time></trkpt><trkpt lat="40.57923" lon="14.9383167"><ele>27.0</ele><time>2026-03-28T15:58:00.802Z</time></trkpt><trkpt lat="40.579135" lon="14.9384117"><ele>27.0</ele><time>2026-03-28T15:58:01.802Z</time></trkpt><trkpt lat="40.57905" lon="14.9385033"><ele>27.0</ele><time>2026-03-28T15:58:02.802Z</time></trkpt><trkpt lat="40.5789717" lon="14.9385783"><ele>27.0</ele><time>2026-03-28T15:58:03.802Z</time></trkpt><trkpt lat="40.5789033" lon="14.93865"><ele>27.0</ele><time>2026-03-28T15:58:04.8Z</time></trkpt><trkpt lat="40.57884" lon="14.9387183"><ele>27.0</ele><time>2026-03-28T15:58:05.803Z</time></trkpt><trkpt lat="40.5787867" lon="14.938775"><ele>27.0</ele><time>2026-03-28T15:58:06.803Z</time></trkpt><trkpt lat="40.5786967" lon="14.9388117"><ele>27.0</ele><time>2026-03-28T15:58:08.803Z</time></trkpt><trkpt lat="40.5786133" lon="14.9387033"><ele>26.75</ele><time>2026-03-28T15:58:10.804Z</time></trkpt><trkpt lat="40.5785683" lon="14.9386233"><ele>26.5</ele><time>2026-03-28T15:58:11.801Z</time></trkpt><trkpt lat="40.5785033" lon="14.93851"><ele>26.25</ele><time>2026-03-28T15:58:12.802Z</time></trkpt><trkpt lat="40.5784133" lon="14.938355"><ele>26.0</ele><time>2026-03-28T15:58:13.802Z</time></trkpt><trkpt lat="40.57831" lon="14.9381733"><ele>25.333333333333332</ele><time>2026-03-28T15:58:14.803Z</time></trkpt><trkpt lat="40.578195" lon="14.9379833"><ele>24.666666666666664</ele><time>2026-03-28T15:58:15.8Z</time></trkpt><trkpt lat="40.5780833" lon="14.9378"><ele>24.0</ele><time>2026-03-28T15:58:16.802Z</time></trkpt><trkpt lat="40.5779833" lon="14.9376333"><ele>24.666666666666664</ele><time>2026-03-28T15:58:17.8Z</time></trkpt><trkpt lat="40.5778867" lon="14.9374733"><ele>25.333333333333332</ele><time>2026-03-28T15:58:18.8Z</time></trkpt><trkpt lat="40.5777933" lon="14.9373217"><ele>26.0</ele><time>2026-03-28T15:58:19.8Z</time></trkpt><trkpt lat="40.5776983" lon="14.9371683"><ele>26.0</ele><time>2026-03-28T15:58:20.8Z</time></trkpt><trkpt lat="40.577605" lon="14.9370183"><ele>26.0</ele><time>2026-03-28T15:58:21.802Z</time></trkpt><trkpt lat="40.57751" lon="14.9368633"><ele>26.0</ele><time>2026-03-28T15:58:22.801Z</time></trkpt><trkpt lat="40.5774133" lon="14.9367033"><ele>25.666666666666664</ele><time>2026-03-28T15:58:23.803Z</time></trkpt><trkpt lat="40.5773167" lon="14.9365433"><ele>25.333333333333336</ele><time>2026-03-28T15:58:24.8Z</time></trkpt><trkpt lat="40.5772233" lon="14.9363867"><ele>25.0</ele><time>2026-03-28T15:58:25.801Z</time></trkpt><trkpt lat="40.5771283" lon="14.9362283"><ele>25.0</ele><time>2026-03-28T15:58:26.802Z</time></trkpt><trkpt lat="40.5770333" lon="14.9360717"><ele>25.0</ele><time>2026-03-28T15:58:27.803Z</time></trkpt><trkpt lat="40.5769367" lon="14.9359167"><ele>25.0</ele><time>2026-03-28T15:58:28.803Z</time></trkpt><trkpt lat="40.5768433" lon="14.9357667"><ele>24.75</ele><time>2026-03-28T15:58:29.802Z</time></trkpt><trkpt lat="40.5767567" lon="14.93563"><ele>24.5</ele><time>2026-03-28T15:58:30.801Z</time></trkpt><trkpt lat="40.5766733" lon="14.935495"><ele>24.25</ele><time>2026-03-28T15:58:31.803Z</time></trkpt><trkpt lat="40.5765917" lon="14.9353583"><ele>24.0</ele><time>2026-03-28T15:58:32.799Z</time></trkpt><trkpt lat="40.5765167" lon="14.9352367"><ele>24.0</ele><time>2026-03-28T15:58:33.8Z</time></trkpt><trkpt lat="40.576435" lon="14.9351333"><ele>24.0</ele><time>2026-03-28T15:58:34.8Z</time></trkpt><trkpt lat="40.5763383" lon="14.9350483"><ele>24.0</ele><time>2026-03-28T15:58:35.8Z</time></trkpt><trkpt lat="40.57622" lon="14.9349717"><ele>24.0</ele><time>2026-03-28T15:58:36.802Z</time></trkpt><trkpt lat="40.5760883" lon="14.9349067"><ele>23.666666666666668</ele><time>2026-03-28T15:58:37.799Z</time></trkpt><trkpt lat="40.57594" lon="14.9348683"><ele>23.333333333333336</ele><time>2026-03-28T15:58:38.799Z</time></trkpt><trkpt lat="40.5757783" lon="14.9348467"><ele>23.0</ele><time>2026-03-28T15:58:39.8Z</time></trkpt><trkpt lat="40.5756133" lon="14.934825"><ele>23.0</ele><time>2026-03-28T15:58:40.8Z</time></trkpt><trkpt lat="40.5754533" lon="14.934795"><ele>23.0</ele><time>2026-03-28T15:58:41.799Z</time></trkpt><trkpt lat="40.57529" lon="14.9347717"><ele>23.0</ele><time>2026-03-28T15:58:42.8Z</time></trkpt><trkpt lat="40.5751217" lon="14.9347533"><ele>22.666666666666668</ele><time>2026-03-28T15:58:43.801Z</time></trkpt><trkpt lat="40.574955" lon="14.9347283"><ele>22.333333333333332</ele><time>2026-03-28T15:58:44.799Z</time></trkpt><trkpt lat="40.5747867" lon="14.9347"><ele>22.0</ele><time>2026-03-28T15:58:45.799Z</time></trkpt><trkpt lat="40.5746233" lon="14.9346733"><ele>22.0</ele><time>2026-03-28T15:58:46.802Z</time></trkpt><trkpt lat="40.5744633" lon="14.9346467"><ele>22.0</ele><time>2026-03-28T15:58:47.801Z</time></trkpt><trkpt lat="40.5743017" lon="14.93462"><ele>22.0</ele><time>2026-03-28T15:58:48.8Z</time></trkpt><trkpt lat="40.5741467" lon="14.9345967"><ele>22.0</ele><time>2026-03-28T15:58:49.8Z</time></trkpt><trkpt lat="40.5740017" lon="14.9345717"><ele>22.0</ele><time>2026-03-28T15:58:50.8Z</time></trkpt><trkpt lat="40.573855" lon="14.93455"><ele>22.0</ele><time>2026-03-28T15:58:51.8Z</time></trkpt><trkpt lat="40.573715" lon="14.9345233"><ele>22.0</ele><time>2026-03-28T15:58:52.8Z</time></trkpt><trkpt lat="40.5735733" lon="14.9344983"><ele>22.0</ele><time>2026-03-28T15:58:53.803Z</time></trkpt><trkpt lat="40.5734317" lon="14.9344733"><ele>22.0</ele><time>2026-03-28T15:58:54.803Z</time></trkpt><trkpt lat="40.5732833" lon="14.934455"><ele>22.0</ele><time>2026-03-28T15:58:55.803Z</time></trkpt><trkpt lat="40.5731317" lon="14.9344367"><ele>22.0</ele><time>2026-03-28T15:58:56.803Z</time></trkpt><trkpt lat="40.5729833" lon="14.9344133"><ele>21.75</ele><time>2026-03-28T15:58:57.802Z</time></trkpt><trkpt lat="40.5728333" lon="14.9343883"><ele>21.5</ele><time>2026-03-28T15:58:58.802Z</time></trkpt><trkpt lat="40.572685" lon="14.9343633"><ele>21.25</ele><time>2026-03-28T15:58:59.801Z</time></trkpt><trkpt lat="40.5725433" lon="14.93434"><ele>21.0</ele><time>2026-03-28T15:59:00.803Z</time></trkpt><trkpt lat="40.5724133" lon="14.9343183"><ele>21.0</ele><time>2026-03-28T15:59:01.799Z</time></trkpt><trkpt lat="40.5722867" lon="14.9343017"><ele>21.0</ele><time>2026-03-28T15:59:02.801Z</time></trkpt><trkpt lat="40.5721517" lon="14.93429"><ele>21.0</ele><time>2026-03-28T15:59:03.8Z</time></trkpt><trkpt lat="40.5720183" lon="14.9342733"><ele>21.0</ele><time>2026-03-28T15:59:04.802Z</time></trkpt><trkpt lat="40.5718933" lon="14.934255"><ele>21.0</ele><time>2026-03-28T15:59:05.8Z</time></trkpt><trkpt lat="40.5717717" lon="14.9342283"><ele>21.0</ele><time>2026-03-28T15:59:06.799Z</time></trkpt><trkpt lat="40.5716617" lon="14.934205"><ele>21.0</ele><time>2026-03-28T15:59:07.799Z</time></trkpt><trkpt lat="40.5715567" lon="14.9341833"><ele>21.0</ele><time>2026-03-28T15:59:08.8Z</time></trkpt><trkpt lat="40.571465" lon="14.9341567"><ele>21.0</ele><time>2026-03-28T15:59:09.8Z</time></trkpt><trkpt lat="40.5713767" lon="14.9341183"><ele>21.0</ele><time>2026-03-28T15:59:10.802Z</time></trkpt><trkpt lat="40.57128" lon="14.9340467"><ele>21.0</ele><time>2026-03-28T15:59:11.802Z</time></trkpt><trkpt lat="40.5711733" lon="14.9339283"><ele>21.0</ele><time>2026-03-28T15:59:12.801Z</time></trkpt><trkpt lat="40.5710667" lon="14.9337767"><ele>21.0</ele><time>2026-03-28T15:59:13.802Z</time></trkpt><trkpt lat="40.570965" lon="14.93363"><ele>21.0</ele><time>2026-03-28T15:59:14.802Z</time></trkpt><trkpt lat="40.570865" lon="14.9334933"><ele>21.0</ele><time>2026-03-28T15:59:15.801Z</time></trkpt><trkpt lat="40.57077" lon="14.93336"><ele>21.0</ele><time>2026-03-28T15:59:16.802Z</time></trkpt><trkpt lat="40.57067" lon="14.9332233"><ele>21.0</ele><time>2026-03-28T15:59:17.8Z</time></trkpt><trkpt lat="40.570575" lon="14.93309"><ele>20.666666666666668</ele><time>2026-03-28T15:59:18.8Z</time></trkpt><trkpt lat="40.5704767" lon="14.9329483"><ele>20.333333333333336</ele><time>2026-03-28T15:59:19.8Z</time></trkpt><trkpt lat="40.5703667" lon="14.9327967"><ele>20.0</ele><time>2026-03-28T15:59:20.799Z</time></trkpt><trkpt lat="40.5702483" lon="14.9326317"><ele>19.333333333333336</ele><time>2026-03-28T15:59:21.8Z</time></trkpt><trkpt lat="40.5701283" lon="14.9324667"><ele>18.666666666666668</ele><time>2026-03-28T15:59:22.8Z</time></trkpt><trkpt lat="40.570015" lon="14.9323083"><ele>18.0</ele><time>2026-03-28T15:59:23.803Z</time></trkpt><trkpt lat="40.569905" lon="14.9321583"><ele>18.0</ele><time>2026-03-28T15:59:24.801Z</time></trkpt><trkpt lat="40.569795" lon="14.9320083"><ele>18.0</ele><time>2026-03-28T15:59:25.801Z</time></trkpt><trkpt lat="40.5696933" lon="14.9318667"><ele>18.0</ele><time>2026-03-28T15:59:26.799Z</time></trkpt><trkpt lat="40.56959" lon="14.9317217"><ele>18.0</ele><time>2026-03-28T15:59:27.799Z</time></trkpt><trkpt lat="40.569485" lon="14.9315767"><ele>18.0</ele><time>2026-03-28T15:59:28.802Z</time></trkpt><trkpt lat="40.56938" lon="14.9314283"><ele>18.0</ele><time>2026-03-28T15:59:29.8Z</time></trkpt><trkpt lat="40.5692733" lon="14.93128"><ele>18.0</ele><time>2026-03-28T15:59:30.802Z</time></trkpt><trkpt lat="40.5691617" lon="14.9311267"><ele>18.0</ele><time>2026-03-28T15:59:31.801Z</time></trkpt><trkpt lat="40.5690533" lon="14.9309733"><ele>18.0</ele><time>2026-03-28T15:59:32.799Z</time></trkpt><trkpt lat="40.5689367" lon="14.930815"><ele>18.0</ele><time>2026-03-28T15:59:33.8Z</time></trkpt><trkpt lat="40.5688167" lon="14.9306517"><ele>18.0</ele><time>2026-03-28T15:59:34.799Z</time></trkpt><trkpt lat="40.5686983" lon="14.9304867"><ele>18.0</ele><time>2026-03-28T15:59:35.8Z</time></trkpt><trkpt lat="40.5685833" lon="14.930325"><ele>18.0</ele><time>2026-03-28T15:59:36.8Z</time></trkpt><trkpt lat="40.56847" lon="14.9301683"><ele>18.0</ele><time>2026-03-28T15:59:37.8Z</time></trkpt><trkpt lat="40.5683617" lon="14.93002"><ele>18.0</ele><time>2026-03-28T15:59:38.799Z</time></trkpt><trkpt lat="40.56825" lon="14.92987"><ele>18.0</ele><time>2026-03-28T15:59:39.8Z</time></trkpt><trkpt lat="40.5681383" lon="14.9297233"><ele>18.0</ele><time>2026-03-28T15:59:40.801Z</time></trkpt><trkpt lat="40.56803" lon="14.9295767"><ele>18.0</ele><time>2026-03-28T15:59:41.803Z</time></trkpt><trkpt lat="40.5679267" lon="14.9294333"><ele>18.0</ele><time>2026-03-28T15:59:42.801Z</time></trkpt><trkpt lat="40.5678233" lon="14.9292917"><ele>18.0</ele><time>2026-03-28T15:59:43.8Z</time></trkpt><trkpt lat="40.56772" lon="14.92915"><ele>18.0</ele><time>2026-03-28T15:59:44.802Z</time></trkpt><trkpt lat="40.5676167" lon="14.9290117"><ele>18.0</ele><time>2026-03-28T15:59:45.8Z</time></trkpt><trkpt lat="40.5675217" lon="14.9288767"><ele>17.75</ele><time>2026-03-28T15:59:46.802Z</time></trkpt><trkpt lat="40.5674267" lon="14.928745"><ele>17.5</ele><time>2026-03-28T15:59:47.801Z</time></trkpt><trkpt lat="40.5673333" lon="14.928615"><ele>17.25</ele><time>2026-03-28T15:59:48.8Z</time></trkpt><trkpt lat="40.5672433" lon="14.9284867"><ele>17.0</ele><time>2026-03-28T15:59:49.802Z</time></trkpt><trkpt lat="40.567155" lon="14.9283633"><ele>17.0</ele><time>2026-03-28T15:59:50.8Z</time></trkpt><trkpt lat="40.5670717" lon="14.9282467"><ele>17.0</ele><time>2026-03-28T15:59:51.8Z</time></trkpt><trkpt lat="40.5669867" lon="14.928125"><ele>17.0</ele><time>2026-03-28T15:59:52.799Z</time></trkpt><trkpt lat="40.5668967" lon="14.9279983"><ele>17.0</ele><time>2026-03-28T15:59:53.803Z</time></trkpt><trkpt lat="40.5667967" lon="14.92786"><ele>17.0</ele><time>2026-03-28T15:59:54.802Z</time></trkpt><trkpt lat="40.5666983" lon="14.9277233"><ele>17.0</ele><time>2026-03-28T15:59:55.802Z</time></trkpt><trkpt lat="40.5666017" lon="14.9275883"><ele>17.0</ele><time>2026-03-28T15:59:56.802Z</time></trkpt><trkpt lat="40.5665083" lon="14.9274583"><ele>17.0</ele><time>2026-03-28T15:59:57.802Z</time></trkpt><trkpt lat="40.5664183" lon="14.927335"><ele>16.75</ele><time>2026-03-28T15:59:58.801Z</time></trkpt><trkpt lat="40.56633" lon="14.9272117"><ele>16.5</ele><time>2026-03-28T15:59:59.801Z</time></trkpt><trkpt lat="40.5662417" lon="14.9270867"><ele>16.25</ele><time>2026-03-28T16:00:00.8Z</time></trkpt><trkpt lat="40.5661517" lon="14.92697"><ele>16.0</ele><time>2026-03-28T16:00:01.802Z</time></trkpt><trkpt lat="40.56607" lon="14.9268633"><ele>15.833333333333332</ele><time>2026-03-28T16:00:02.799Z</time></trkpt><trkpt lat="40.566005" lon="14.92677"><ele>15.666666666666666</ele><time>2026-03-28T16:00:03.801Z</time></trkpt><trkpt lat="40.5659483" lon="14.9266883"><ele>15.5</ele><time>2026-03-28T16:00:04.8Z</time></trkpt><trkpt lat="40.5659067" lon="14.92662"><ele>15.333333333333332</ele><time>2026-03-28T16:00:05.802Z</time></trkpt><trkpt lat="40.56586" lon="14.9265167"><ele>15.166666666666666</ele><time>2026-03-28T16:00:07.803Z</time></trkpt><trkpt lat="40.565885" lon="14.926415"><ele>15.0</ele><time>2026-03-28T16:00:09.8Z</time></trkpt><trkpt lat="40.5659767" lon="14.9262967"><ele>15.0</ele><time>2026-03-28T16:00:11.802Z</time></trkpt><trkpt lat="40.5660417" lon="14.926225"><ele>15.0</ele><time>2026-03-28T16:00:12.799Z</time></trkpt><trkpt lat="40.5661083" lon="14.9261517"><ele>15.0</ele><time>2026-03-28T16:00:13.8Z</time></trkpt><trkpt lat="40.5661717" lon="14.9260833"><ele>15.0</ele><time>2026-03-28T16:00:14.802Z</time></trkpt><trkpt lat="40.566235" lon="14.92602"><ele>15.0</ele><time>2026-03-28T16:00:15.803Z</time></trkpt><trkpt lat="40.5663333" lon="14.9259467"><ele>15.0</ele><time>2026-03-28T16:00:17.799Z</time></trkpt><trkpt lat="40.5664067" lon="14.9259583"><ele>15.0</ele><time>2026-03-28T16:00:19.8Z</time></trkpt><trkpt lat="40.5664867" lon="14.926055"><ele>15.0</ele><time>2026-03-28T16:00:21.801Z</time></trkpt><trkpt lat="40.5665317" lon="14.9261183"><ele>15.0</ele><time>2026-03-28T16:00:22.799Z</time></trkpt><trkpt lat="40.56658" lon="14.9261867"><ele>15.0</ele><time>2026-03-28T16:00:23.801Z</time></trkpt><trkpt lat="40.56663" lon="14.926255"><ele>15.0</ele><time>2026-03-28T16:00:24.8Z</time></trkpt><trkpt lat="40.56668" lon="14.926335"><ele>15.0</ele><time>2026-03-28T16:00:25.801Z</time></trkpt><trkpt lat="40.56673" lon="14.926415"><ele>15.0</ele><time>2026-03-28T16:00:26.799Z</time></trkpt><trkpt lat="40.5667817" lon="14.9264933"><ele>15.0</ele><time>2026-03-28T16:00:27.8Z</time></trkpt><trkpt lat="40.5668333" lon="14.9265683"><ele>15.0</ele><time>2026-03-28T16:00:28.799Z</time></trkpt><trkpt lat="40.5668833" lon="14.926645"><ele>15.0</ele><time>2026-03-28T16:00:29.8Z</time></trkpt><trkpt lat="40.5669417" lon="14.9267283"><ele>15.0</ele><time>2026-03-28T16:00:30.8Z</time></trkpt><trkpt lat="40.5669983" lon="14.9268117"><ele>15.0</ele><time>2026-03-28T16:00:31.801Z</time></trkpt><trkpt lat="40.5670533" lon="14.9268933"><ele>15.166666666666666</ele><time>2026-03-28T16:00:32.801Z</time></trkpt><trkpt lat="40.5670967" lon="14.9269683"><ele>15.333333333333332</ele><time>2026-03-28T16:00:33.801Z</time></trkpt><trkpt lat="40.5671683" lon="14.9270867"><ele>15.5</ele><time>2026-03-28T16:00:35.803Z</time></trkpt><trkpt lat="40.5672317" lon="14.9271233"><ele>15.666666666666666</ele><time>2026-03-28T16:00:38.8Z</time></trkpt><trkpt lat="40.567305" lon="14.9271067"><ele>15.833333333333332</ele><time>2026-03-28T16:01:55.799Z</time></trkpt><trkpt lat="40.5673967" lon="14.9271"><ele>16.0</ele><time>2026-03-28T16:01:57.8Z</time></trkpt><trkpt lat="40.567495" lon="14.9270617"><ele>16.0</ele><time>2026-03-28T16:01:59.799Z</time></trkpt><trkpt lat="40.56758" lon="14.92698"><ele>16.0</ele><time>2026-03-28T16:02:01.8Z</time></trkpt><trkpt lat="40.5675733" lon="14.9268633"><ele>16.0</ele><time>2026-03-28T16:02:04.799Z</time></trkpt><trkpt lat="40.5674717" lon="14.926775"><ele>16.0</ele><time>2026-03-28T16:03:38.799Z</time></trkpt></trkseg></trk></gpx>